GFSGBSN_con_3kmhel_000.txt.gz
Helicity
80 83 85 51 57 64 60 58 93 61 45 34 0 -6 -5 10 7 32 42 37 63 66 43 37 43 62 113 175 172 64 258 66 71 174 192 182 209 184 149 106 87 66 46 1 54 84 57
81 91 86 58 50 65 55 50 67 62 32 23 -9 5 1 5 11 22 34 36 30 48 42 38 42 51 135 135 99 30 359 194 120 197 178 179 208 160 109 97 80 62 43 11 11 38 15
85 76 83 67 51 49 47 41 50 50 25 4 8 5 2 7 9 0 8 26 26 26 37 30 42 74 122 111 96 -21 248 323 167 134 157 180 148 150 126 102 77 54 44 -2 7 38 36
87 82 65 72 55 37 44 27 36 35 25 1 15 -3 -12 9 5 -7 -22 -31 24 25 37 30 23 82 110 36 92 119 237 344 247 198 169 126 160 142 152 135 117 82 65 47 60 25 15
84 80 59 70 61 33 34 38 29 20 15 4 1 9 9 4 -16 -9 -25 -26 -12 20 19 34 67 113 97 10 71 107 141 292 308 157 131 130 203 198 105 115 124 105 56 51 88 17 55
63 77 58 50 63 48 30 86 26 58 7 -18 -35 -39 -15 33 33 20 -3 -18 -42 -26 30 53 92 93 88 102 73 60 86 221 287 139 111 173 159 149 139 163 104 79 87 64 68 39 63
56 74 58 32 65 54 37 76 71 88 69 19 -8 -38 -25 -2 -23 -4 7 -34 0 -28 59 149 94 127 66 83 104 43 106 135 202 226 185 85 208 194 141 123 77 75 87 88 122 48 78
44 53 61 36 45 44 41 74 57 71 73 64 7 -4 -21 9 5 14 -34 -42 -25 36 60 89 100 89 103 144 178 183 92 184 217 178 169 165 87 129 115 112 78 69 54 72 91 34 34
45 48 47 50 36 35 40 50 54 94 71 101 66 31 15 15 8 0 5 -11 -12 47 44 33 104 30 119 139 127 156 65 160 155 201 160 274 171 116 119 86 92 90 59 58 46 62 41
41 44 45 42 43 24 35 41 49 80 94 90 94 28 -12 24 -9 -15 -17 -37 -51 -17 48 38 54 75 100 111 47 65 71 171 324 227 179 134 162 120 108 91 119 64 39 68 66 47 53
33 44 46 34 47 22 24 31 37 36 49 63 60 10 -13 34 -97 -65 -57 -32 -24 46 63 42 44 21 115 167 94 143 90 404 243 269 279 261 175 114 112 33 88 60 74 86 78 46 59
32 27 37 35 28 32 14 36 36 19 35 31 23 -3 -27 -31 94 -96 -63 -80 44 43 53 46 14 38 74 280 125 157 211 330 267 348 291 205 172 152 102 98 98 84 137 157 117 77 81
53 27 20 22 19 24 1 23 40 38 21 20 -7 7 66 158 230 175 94 -5 75 12 88 39 63 80 76 152 188 126 361 286 372 345 268 316 213 185 165 206 199 167 178 158 141 143 82
43 45 14 6 11 9 15 -21 50 64 55 23 -33 35 67 206 189 240 138 106 31 8 37 106 68 108 148 166 195 85 372 317 388 344 386 283 273 166 154 119 122 122 126 160 123 124 116
24 38 19 1 -5 2 0 -18 64 71 85 43 27 68 102 168 332 247 30 76 -11 19 103 28 116 157 205 205 131 149 184 260 340 343 290 179 257 208 161 185 135 120 108 60 131 138 146
3 12 26 -2 -16 -8 -7 -28 50 100 101 50 8 44 34 221 271 63 61 22 14 14 28 136 91 86 240 153 214 157 149 236 179 153 198 160 156 179 154 154 130 100 85 127 136 120 109
10 10 14 -5 -5 -8 -14 -28 46 97 129 34 1 -32 5 156 48 9 10 47 15 2 66 72 39 4 46 144 141 241 159 194 253 72 97 129 117 201 153 121 90 119 116 119 104 90 81
7 14 4 2 -6 17 -5 -13 38 81 133 -5 -23 -31 50 68 17 15 26 69 41 12 117 190 85 157 125 113 126 144 171 222 154 71 94 144 98 190 126 97 76 59 49 85 84 63 71
10 15 7 14 -7 36 14 27 39 68 63 36 -25 -41 4 -2 41 64 17 35 91 123 100 44 198 252 232 212 198 242 150 154 116 104 100 104 115 192 131 98 90 62 80 82 103 83 48
16 16 8 14 7 43 22 35 39 77 89 12 -27 -17 24 18 83 68 21 34 47 89 291 179 151 171 237 281 195 163 84 120 94 92 90 83 81 69 72 43 83 82 87 97 99 84 67
15 19 15 9 21 36 37 32 46 60 105 13 -21 -4 15 54 62 29 4 29 49 82 72 111 153 86 39 112 145 45 67 93 96 117 95 65 53 59 88 63 75 64 89 86 96 103 59
20 18 16 11 25 29 56 28 47 63 94 38 -14 -14 38 50 58 67 56 29 36 52 67 93 93 98 61 38 45 80 100 112 96 112 95 103 75 82 83 84 59 50 58 49 53 66 47
26 24 19 15 21 25 58 39 45 58 57 56 21 -2 15 56 39 28 51 27 5 29 91 97 57 164 139 113 104 125 117 123 124 141 138 109 95 111 82 85 55 28 30 61 74 80 43
30 28 21 23 17 28 57 54 48 64 50 64 69 33 39 40 15 19 5 35 26 44 62 91 103 91 74 142 142 127 141 115 140 149 96 65 75 66 13 57 34 59 74 63 102 143 99
33 30 25 29 19 33 45 76 61 74 79 74 103 61 52 69 51 87 51 59 66 121 125 89 89 111 80 120 127 97 98 70 95 123 138 116 101 78 45 58 66 74 114 115 110 127 127
35 31 33 32 24 32 42 74 75 90 89 58 93 74 65 97 77 70 83 60 86 90 106 101 131 114 100 99 94 43 27 45 46 75 149 168 150 112 100 68 45 79 114 86 83 97 139
45 41 37 38 31 33 47 62 89 89 99 67 83 99 88 110 137 107 80 52 63 79 70 65 71 84 103 90 72 45 47 73 41 43 63 118 120 82 79 45 64 62 77 54 104 89 131
49 49 43 43 37 33 42 56 77 88 107 89 79 110 90 111 159 136 110 97 105 92 74 62 96 72 83 76 58 52 64 62 89 68 60 84 100 84 114 77 50 108 111 114 123 126 101
57 55 51 48 44 36 43 56 76 91 103 125 111 117 128 100 100 119 122 135 139 119 112 123 87 88 73 89 81 91 93 97 95 78 85 91 92 81 78 74 106 159 132 124 104 88 65

GFSGBSN_con_3kmhel_003.txt.gz
Helicity
75 75 67 61 43 31 28 12 29 44 54 67 69 37 14 27 16 -1 -6 26 33 47 65 67 51 58 111 140 153 68 202 142 79 152 183 164 222 229 161 133 127 94 51 41 36 26 -8
69 67 66 64 46 31 31 12 23 42 53 51 52 19 9 8 -1 -8 -16 3 21 36 64 56 35 43 130 71 58 11 91 234 134 143 144 155 145 200 144 118 124 63 52 47 33 22 2
31 71 60 70 53 33 32 24 15 44 46 49 43 14 7 -3 -7 6 12 4 14 17 40 36 44 85 90 64 69 60 69 185 149 142 129 135 179 167 146 116 88 69 51 34 4 42 24
33 56 55 65 52 31 26 23 22 42 55 38 44 26 17 -3 11 12 16 -2 -4 24 28 25 24 79 67 25 33 171 213 123 153 191 109 104 129 155 152 142 116 89 71 29 12 41 20
40 46 58 59 52 37 19 15 8 30 55 50 36 3 -12 -9 22 22 15 3 -17 15 28 32 74 81 23 20 57 110 153 150 120 194 122 123 147 126 179 139 128 114 22 35 80 9 40
36 40 60 55 37 45 25 31 17 39 49 48 31 4 -35 -14 8 37 5 0 -30 -59 58 86 79 64 52 70 50 98 81 156 166 211 149 173 210 171 174 157 101 89 59 70 72 51 41
21 33 43 56 41 42 32 32 45 48 53 51 41 13 -36 -29 3 12 3 22 -28 -79 -67 116 62 99 59 82 39 102 76 178 184 258 169 160 253 193 109 67 115 65 63 94 69 65 -2
16 21 28 35 47 34 39 27 51 54 63 69 60 15 -15 -32 13 40 98 94 36 -73 -29 -40 67 19 67 75 120 132 90 198 229 216 211 221 107 82 94 120 84 85 66 63 62 57 -1
17 22 24 30 38 35 36 25 30 37 42 56 55 38 -32 -31 14 59 73 44 38 -55 18 -53 23 25 60 86 120 149 111 185 222 230 188 198 147 137 98 101 71 65 49 47 42 77 12
18 20 27 33 34 32 30 22 7 20 16 40 29 12 -25 41 24 38 92 32 -43 -33 48 66 58 83 57 144 87 110 77 151 279 187 152 163 189 153 105 103 93 74 55 47 54 48 24
23 17 16 25 34 27 27 22 6 14 18 25 39 20 4 81 -7 -42 -3 16 -105 -110 -34 42 77 84 77 134 46 32 108 142 159 276 272 250 175 106 97 138 140 31 30 46 49 52 31
21 20 18 11 29 28 22 17 11 -10 15 17 28 38 -26 125 -10 -77 2 -48 -146 26 -17 49 64 57 76 90 26 26 66 80 179 279 265 215 172 107 95 59 79 59 123 141 99 59 16
25 25 22 8 20 23 19 13 8 2 3 16 26 32 111 141 186 85 3 -20 24 16 4 -2 48 37 62 32 -33 73 83 123 234 248 205 266 185 149 184 161 137 140 172 147 106 109 31
28 29 9 6 0 15 14 8 2 6 -4 3 26 45 103 245 177 186 22 33 18 -25 25 27 49 74 53 24 83 88 133 184 239 260 380 262 223 109 163 133 137 159 124 132 70 65 33
14 20 11 6 -16 10 4 -11 -6 10 12 3 -17 52 151 201 279 143 89 61 -13 -42 -14 54 89 82 87 61 130 118 245 353 262 204 344 314 242 275 208 209 175 199 152 88 100 95 83
1 12 25 -4 -18 10 -8 -14 -15 13 24 1 19 50 67 140 215 83 86 11 -37 -4 -10 41 75 101 186 101 92 116 403 367 278 216 284 258 292 293 233 207 256 138 135 151 158 98 76
9 11 16 -1 -8 13 -1 -3 -16 25 37 22 38 25 24 126 91 -3 -3 -18 -43 10 9 39 37 103 115 131 48 128 249 190 223 173 186 172 177 270 178 155 154 223 169 192 114 103 85
7 9 16 3 -5 12 14 13 27 34 56 22 -7 -40 30 28 13 20 2 7 -44 -62 2 30 48 77 146 178 130 69 184 165 242 176 204 201 111 194 193 145 122 131 99 135 124 84 88
15 15 18 12 11 7 21 12 40 30 22 10 -6 0 1 -2 30 61 22 5 -32 26 23 16 34 83 149 180 190 178 154 219 180 137 158 133 134 160 203 159 141 99 104 112 113 88 23
25 15 19 18 11 1 26 19 41 21 -2 -20 -7 -3 13 11 33 27 33 14 18 77 81 110 107 52 112 133 197 214 213 219 176 138 98 105 93 82 141 88 110 119 109 112 121 74 64
27 21 21 24 8 0 29 30 41 40 49 -1 -8 4 13 17 8 -1 14 22 23 122 91 143 181 157 35 131 167 200 205 208 143 109 108 84 60 84 129 95 112 93 150 172 159 157 107
32 22 21 25 17 16 32 38 38 57 22 17 -1 6 32 33 20 9 10 40 13 101 78 110 134 115 133 129 189 177 138 156 112 130 119 109 69 98 119 133 94 80 88 115 129 105 82
29 28 24 29 21 23 28 41 41 62 29 24 11 13 1 34 13 4 39 4 20 3 23 62 60 87 83 179 233 41 66 110 81 101 119 99 76 95 91 93 90 79 51 87 106 101 89
36 33 31 33 28 29 20 54 47 65 38 31 21 28 1 16 14 8 23 37 11 51 10 73 52 46 50 81 188 221 187 130 162 227 151 96 112 105 55 105 78 60 102 90 132 180 187
37 33 33 31 31 34 21 51 52 72 59 51 49 48 0 11 14 30 54 69 58 119 135 64 45 118 73 162 126 64 130 139 147 134 155 143 122 53 47 74 81 82 80 122 119 163 213
37 33 33 31 34 37 25 48 58 74 81 65 86 72 26 25 21 44 50 61 78 98 100 92 156 183 160 124 77 22 15 38 53 67 85 84 76 66 50 51 37 41 183 198 154 110 167
31 32 35 36 37 43 35 42 60 71 90 69 101 105 65 41 58 75 67 50 69 88 77 97 110 91 94 98 79 64 54 83 48 62 110 166 153 112 118 58 79 92 129 158 127 77 97
29 38 40 44 40 45 48 43 61 70 86 79 90 119 94 71 124 116 81 68 89 84 80 69 104 94 103 98 74 62 47 75 90 70 50 88 112 102 139 89 39 115 160 113 97 99 77
36 47 49 50 45 50 55 46 57 63 65 100 99 114 127 114 102 131 109 111 112 90 75 114 70 91 78 104 94 89 72 91 100 75 126 95 112 103 96 95 95 119 96 100 75 59 45

GFSGBSN_con_3kmhel_006.txt.gz
Helicity
43 50 58 60 64 57 37 35 47 49 38 35 26 34 43 49 38 35 34 39 51 45 55 56 63 80 142 132 84 46 85 299 126 145 145 199 253 208 158 137 137 94 70 48 44 45 -0
39 26 59 55 66 60 46 37 48 54 27 35 24 35 56 68 34 21 20 24 33 44 56 46 54 72 140 61 25 60 6 157 214 160 140 170 196 188 138 104 115 36 53 57 30 25 -0
39 31 56 53 48 59 51 35 47 50 44 25 18 35 41 52 26 -1 15 15 26 35 43 39 61 107 86 33 32 96 29 57 196 137 104 110 155 187 141 129 81 93 55 43 15 3 16
45 45 39 52 39 51 52 32 40 56 63 47 31 68 51 27 11 -5 6 9 13 20 12 21 35 140 51 -0 23 77 121 111 121 118 79 111 73 182 154 128 120 107 77 16 -15 49 39
36 42 45 44 44 37 54 39 42 64 80 76 72 85 48 23 -3 9 49 25 11 23 3 18 89 102 6 8 16 20 84 156 82 129 138 80 110 166 135 118 110 99 40 26 82 49 27
34 34 39 40 42 40 28 42 43 61 82 72 63 56 38 9 -17 2 48 49 24 67 23 83 123 84 48 45 44 41 57 129 97 127 147 135 156 171 174 151 156 105 76 60 70 78 29
33 36 31 43 34 55 42 38 38 37 53 68 67 65 37 11 -43 -5 71 106 183 100 119 153 126 147 78 41 31 56 91 104 116 191 214 153 206 186 154 117 106 80 89 72 100 70 7
39 36 29 42 41 46 50 38 34 23 33 48 38 39 51 5 -21 17 178 220 187 69 73 2 71 24 12 -42 45 82 87 132 185 194 210 181 162 102 144 146 108 105 91 74 64 72 -30
35 36 28 29 49 40 47 46 34 20 29 22 27 35 14 3 -16 57 194 185 148 109 28 20 -8 8 36 11 61 61 86 146 177 174 154 213 115 87 140 154 96 73 45 49 54 30 -29
35 31 31 20 41 47 46 48 42 20 23 33 44 77 90 -5 70 65 130 134 67 177 -16 1 21 18 32 64 75 67 67 143 147 133 148 208 111 180 166 132 108 51 22 47 81 33 -15
24 32 24 19 34 41 44 45 46 33 26 28 54 43 103 28 -7 62 82 218 28 -82 114 39 58 29 67 90 77 66 63 91 139 201 251 228 89 108 136 79 99 30 13 14 52 18 -15
27 25 17 19 25 50 39 45 41 42 40 27 39 59 43 51 43 13 75 52 -38 32 64 59 35 71 77 42 100 116 118 77 102 165 200 154 140 147 150 127 88 77 68 89 93 52 -7
35 28 14 16 13 45 42 39 36 39 34 33 44 37 138 116 132 21 69 54 126 199 59 63 48 74 42 70 70 41 44 82 156 251 155 163 127 169 115 144 152 182 126 89 89 102 47
34 28 12 5 12 25 54 38 25 27 19 23 37 45 128 199 137 134 96 152 141 89 52 23 80 69 57 61 65 61 114 91 132 203 328 213 169 149 140 134 121 111 140 137 103 70 29
35 23 16 -5 -0 10 55 31 20 23 3 4 8 48 143 143 197 216 143 183 56 40 21 -0 79 100 33 -99 98 66 13 84 124 160 319 253 234 212 170 142 152 109 103 97 111 90 33
32 18 18 -1 5 4 40 29 12 19 25 -23 61 57 61 115 213 253 108 78 38 77 75 74 69 86 96 89 176 86 85 75 57 130 227 237 209 236 231 167 184 95 127 150 157 77 52
30 16 16 6 9 2 27 24 15 9 25 19 52 61 51 140 52 179 77 81 -13 64 -1 32 90 65 -7 142 97 148 99 139 157 158 181 203 215 247 173 157 202 243 223 207 145 132 85
31 24 12 12 11 2 13 22 21 13 34 56 45 59 48 81 -17 95 33 15 -23 -11 46 55 65 64 83 187 89 101 168 168 140 174 205 209 136 233 259 211 175 176 155 182 153 141 124
33 32 12 21 13 7 6 18 27 15 42 40 39 51 36 17 26 110 6 20 -57 -86 16 22 48 55 104 152 86 64 187 185 182 162 141 143 152 256 240 190 240 170 182 188 160 139 75
40 33 8 26 15 7 6 14 26 16 33 42 35 17 36 28 2 40 47 26 -29 -40 2 23 38 43 119 158 126 85 82 129 175 164 151 144 127 121 146 123 158 137 169 194 189 112 93
38 30 -2 28 13 10 5 16 27 18 22 37 38 11 21 -0 17 56 54 81 16 30 22 40 16 69 100 204 241 106 147 178 126 114 161 119 110 118 123 119 188 144 157 195 169 144 120
37 30 -4 27 21 19 9 20 25 25 47 37 27 39 20 10 -0 68 9 -3 81 115 38 53 -55 83 123 176 159 158 179 202 180 131 104 128 122 150 124 137 120 115 123 154 208 208 198
40 31 12 25 20 25 12 22 20 35 38 34 34 46 17 23 3 15 22 10 20 70 44 104 134 168 112 135 128 164 121 171 146 100 131 109 98 93 100 88 97 98 64 121 171 183 180
53 28 18 30 30 27 16 23 24 41 29 38 26 35 27 31 4 9 25 37 59 33 33 128 118 73 98 11 159 169 159 163 202 219 129 82 106 100 51 105 89 58 78 95 169 146 148
60 37 19 21 30 28 23 24 28 44 37 44 40 36 30 31 30 23 47 91 70 116 80 80 83 66 101 172 209 195 202 136 152 203 192 137 123 105 78 89 72 68 73 105 147 133 211
75 44 31 30 29 29 25 25 32 47 50 58 55 47 46 19 35 40 56 59 58 85 101 60 82 137 30 30 85 75 121 113 126 105 156 159 149 108 98 68 18 59 127 142 149 112 149
50 44 42 39 34 35 26 27 35 43 55 65 64 71 65 22 46 64 54 45 49 71 65 72 125 95 106 70 73 17 50 77 60 65 95 171 177 133 131 79 101 74 113 136 134 68 187
120 38 40 43 39 37 32 30 40 43 63 73 71 86 84 38 68 84 89 68 81 56 67 79 121 69 65 69 36 33 34 47 63 57 49 69 98 81 125 60 11 169 208 140 121 156 146
192 59 49 44 43 39 35 32 39 43 68 78 86 93 114 86 60 119 118 120 98 69 59 142 71 89 55 80 65 55 42 63 77 54 108 92 115 86 101 97 160 116 124 158 114 88 63

GFSGBSN_con_3kmhel_009.txt.gz
Helicity
30 33 27 62 52 66 74 66 58 44 46 40 18 39 47 42 8 26 37 47 37 36 41 52 68 90 199 208 186 175 76 131 238 121 160 163 177 232 189 138 155 104 79 47 45 50 24
27 38 22 45 49 58 80 69 60 53 56 41 7 20 40 41 29 24 30 42 32 28 43 52 60 120 194 180 126 72 116 84 121 173 145 144 132 179 144 131 103 53 38 45 51 44 11
36 34 38 37 46 55 79 70 62 56 60 72 39 33 55 58 32 27 22 27 27 36 40 44 54 166 167 134 101 68 132 61 23 129 125 92 106 154 133 146 110 105 57 63 50 41 11
35 29 36 44 42 54 60 72 62 59 59 81 77 83 118 112 49 28 12 15 26 37 49 56 78 173 195 134 56 32 56 78 10 79 79 53 75 113 161 147 134 109 73 52 26 40 43
49 40 33 36 43 44 43 51 74 60 57 67 81 83 86 65 20 8 2 19 44 51 57 89 143 162 169 101 83 49 51 52 78 86 61 24 108 124 146 158 145 136 72 65 78 51 69
63 46 37 31 37 39 42 46 59 61 54 59 77 79 96 62 10 -21 -10 72 84 89 112 144 158 176 125 50 64 58 70 47 85 50 101 87 130 173 155 183 146 139 84 71 82 112 86
50 42 43 38 31 39 43 51 44 60 49 47 84 84 138 111 30 -14 -33 105 221 222 258 250 167 220 114 -38 45 77 84 65 66 72 171 85 182 152 131 141 148 105 84 53 95 104 59
50 54 47 38 36 42 44 47 41 61 51 39 76 64 88 133 42 -10 -15 237 249 207 237 72 91 47 37 54 49 59 84 85 80 122 132 165 134 99 115 121 138 119 97 113 110 91 40
38 43 41 32 31 43 48 43 39 52 54 37 49 57 91 117 36 7 63 153 268 313 229 90 78 67 42 38 28 46 55 84 70 49 131 147 118 102 94 122 122 109 111 98 111 92 15
42 51 38 34 25 36 47 47 39 46 61 46 34 47 69 107 80 109 84 227 358 387 118 78 108 -25 24 45 32 18 27 90 59 60 111 162 56 127 98 92 113 68 50 28 77 92 42
45 43 44 32 31 36 50 44 48 45 64 64 54 33 50 137 219 65 60 294 238 85 271 73 79 21 41 81 11 54 34 73 39 64 229 188 56 123 94 93 88 68 43 67 83 78 -2
36 42 41 35 27 24 39 45 41 52 58 80 72 55 64 104 138 62 54 221 124 142 272 75 64 28 78 57 38 57 63 78 87 96 114 162 50 129 117 93 136 78 124 126 72 47 37
28 35 34 31 24 24 28 51 39 57 53 78 69 75 115 142 129 199 170 171 225 274 135 118 72 9 33 58 47 98 63 40 106 189 104 115 208 170 167 165 193 151 121 150 136 106 44
23 29 27 31 20 16 19 35 40 42 45 65 60 73 106 139 119 230 117 220 219 169 271 65 13 26 34 47 49 68 72 -19 71 247 99 227 273 170 64 94 140 170 158 145 112 71 36
28 27 30 30 15 16 16 24 42 33 34 48 41 72 127 150 183 156 158 231 210 161 139 53 26 24 40 52 58 77 61 101 50 210 231 195 224 164 138 140 139 132 142 134 87 65 64
29 27 27 26 14 19 21 22 38 26 28 50 59 70 66 98 233 460 164 210 160 87 38 95 33 17 46 32 75 54 51 18 -46 125 159 164 204 180 174 186 244 98 158 151 166 85 86
28 29 27 15 18 19 22 26 31 28 34 41 74 52 73 165 374 340 161 129 108 76 115 45 9 30 3 15 131 101 53 -11 35 37 198 139 177 287 187 190 155 194 155 147 138 136 87
40 36 29 10 21 16 19 27 24 37 61 72 59 47 86 383 241 217 145 115 21 73 8 44 41 -26 15 44 138 120 69 110 56 68 143 169 134 196 203 183 147 170 162 109 168 139 117
111 61 31 5 22 14 18 25 36 41 52 63 51 58 85 93 141 88 122 69 -22 -45 -9 42 52 3 43 77 76 74 96 36 19 -28 139 167 160 253 197 170 174 152 177 175 146 144 96
149 71 41 10 25 8 18 26 39 42 56 65 53 43 70 103 79 61 64 30 -38 -76 -27 47 58 67 56 -30 31 67 71 76 97 -10 78 130 141 125 167 129 201 219 218 201 190 147 119
210 66 27 17 21 5 19 23 36 47 48 66 52 15 56 37 84 99 45 28 -25 -20 -11 37 52 49 95 89 78 62 86 173 116 96 103 132 131 114 149 151 213 220 193 197 200 164 156
226 147 29 20 22 5 19 21 35 49 61 67 45 35 42 28 13 92 121 50 66 -38 1 -1 32 16 72 93 34 47 60 87 151 155 14 100 62 96 131 113 117 145 150 176 147 210 186
306 190 67 20 30 13 25 25 35 49 68 51 34 30 17 11 6 27 47 66 62 50 32 67 47 63 81 95 81 114 152 143 73 145 137 88 89 79 108 104 92 121 81 128 139 175 145
294 238 181 33 31 23 26 25 32 44 58 56 27 43 31 32 27 5 14 61 70 -12 35 134 103 100 101 115 176 249 263 211 144 172 170 155 109 123 128 126 94 55 83 105 175 108 197
222 324 216 38 22 25 29 26 28 32 47 62 38 45 25 37 49 35 38 75 65 67 71 118 157 177 121 265 290 306 248 151 165 155 105 102 135 111 113 102 60 48 42 86 130 93 125
159 333 214 25 13 25 34 27 32 27 40 70 44 51 32 33 33 41 56 66 66 46 101 118 190 205 130 231 124 103 124 92 85 128 156 128 120 90 77 83 65 42 52 85 92 67 134
178 280 235 27 21 29 37 29 35 25 38 69 55 59 55 37 37 53 54 68 52 132 51 82 143 39 59 94 94 125 135 103 122 104 119 153 165 142 140 105 78 46 73 83 108 35 180
177 311 286 60 20 31 42 28 34 29 40 71 68 57 63 53 76 64 67 62 67 58 43 37 101 68 89 47 43 71 27 85 122 115 121 139 129 112 127 106 43 136 154 121 98 169 198
194 270 306 74 12 37 48 35 33 35 38 63 78 71 73 83 69 88 86 91 88 61 48 122 45 105 25 42 42 78 68 61 45 44 110 90 125 102 103 81 105 135 149 177 124 118 120

GFSGBSN_con_3kmhel_012.txt.gz
Helicity
32 23 29 14 14 38 62 63 53 37 30 30 19 9 3 50 63 66 73 65 57 42 43 44 64 124 156 193 183 124 83 94 112 94 67 93 154 196 163 113 84 84 59 43 42 41 37
36 38 36 34 39 29 35 78 61 49 35 39 23 25 17 27 10 51 52 43 41 39 24 32 53 97 127 169 111 90 120 156 87 60 98 100 178 114 187 112 77 56 56 36 44 40 42
48 47 36 37 40 37 28 66 64 54 37 40 26 37 61 77 54 39 50 38 29 28 21 30 48 70 117 84 86 88 92 90 90 72 62 90 74 190 160 109 91 55 46 20 56 38 35
36 44 48 35 39 42 36 39 61 60 42 37 25 36 51 75 60 61 61 27 22 24 32 50 76 87 137 77 40 88 109 93 66 79 65 85 108 189 213 158 69 73 56 49 43 18 41
40 45 50 39 33 38 37 42 39 58 57 40 27 37 62 82 73 53 55 22 26 30 50 85 125 149 126 116 92 51 51 70 95 82 46 119 122 151 136 193 122 97 65 39 74 17 48
44 53 43 41 33 31 35 38 47 38 75 51 32 30 59 95 104 79 49 43 53 134 113 127 135 152 140 79 66 46 32 47 66 83 84 128 106 155 165 207 167 106 102 66 55 50 49
36 57 45 37 37 35 39 44 52 50 68 64 46 29 50 93 106 113 93 139 283 233 241 264 131 280 198 49 59 26 63 80 77 100 121 89 163 59 109 125 145 83 51 29 49 80 106
33 40 63 40 31 35 28 45 53 51 55 64 51 30 47 54 82 106 112 276 237 198 235 154 233 119 158 104 49 27 66 99 74 18 72 95 84 89 102 123 138 103 81 35 61 78 75
32 34 47 48 31 26 29 36 51 51 45 58 56 47 48 67 71 133 155 126 128 258 173 149 194 209 134 25 48 26 48 30 4 30 42 117 6 88 145 45 93 108 73 64 91 82 65
38 38 45 58 36 28 30 29 47 47 44 61 65 55 61 80 102 140 156 223 247 332 131 138 196 127 37 50 -12 19 28 51 29 -29 -41 107 110 112 93 113 58 85 127 79 82 111 79
40 40 42 53 51 33 26 33 39 47 47 57 73 62 71 108 141 149 181 221 237 157 240 145 166 59 37 72 19 32 34 38 51 -71 54 127 94 112 60 98 46 87 57 63 94 116 53
21 32 29 41 55 34 27 30 39 38 47 57 70 84 94 93 81 102 204 250 246 182 313 170 115 132 67 12 19 70 40 55 46 -14 17 97 150 97 90 81 42 45 86 112 92 90 51
20 24 31 25 53 42 34 36 28 41 46 55 65 89 133 118 89 180 290 228 200 257 219 163 139 111 46 26 16 12 11 36 16 65 84 71 109 135 118 122 159 82 106 152 106 102 81
125 17 29 27 34 48 32 29 26 30 47 42 67 87 116 142 100 149 363 274 222 171 301 140 74 39 24 24 11 32 29 -4 -128 229 59 128 127 104 139 78 155 144 89 194 135 118 59
207 40 19 37 45 42 25 27 29 37 48 36 58 137 152 146 179 222 369 325 263 251 244 226 128 21 14 9 -9 36 45 -3 -69 192 30 198 254 221 128 231 115 186 152 156 133 110 105
291 146 30 24 24 36 29 24 28 39 39 42 99 86 84 94 219 261 347 256 191 233 59 89 52 0 3 14 25 46 -5 -83 -51 148 188 16 259 146 214 232 252 100 108 128 131 99 97
392 201 56 26 33 29 16 21 30 34 46 64 67 82 71 166 282 430 335 194 143 176 168 66 -10 -1 11 8 43 48 -47 -93 -26 111 104 53 227 283 95 117 104 178 165 149 133 111 95
192 317 92 41 41 21 6 21 29 32 69 51 75 79 167 305 250 327 271 160 87 48 55 14 -2 -8 20 -17 35 89 -9 47 29 124 121 88 131 210 245 164 82 60 66 81 104 86 130
-47 400 235 51 38 24 6 19 34 44 69 66 66 96 166 203 132 247 154 131 54 54 33 -12 60 35 -6 9 13 99 -11 34 2 70 142 146 127 143 144 142 141 109 99 40 56 116 53
7 277 275 101 46 24 7 18 37 37 43 63 80 94 112 120 106 116 120 31 -15 -11 9 52 17 20 -9 19 78 49 51 14 30 20 132 144 113 87 88 116 103 87 63 55 58 71 76
35 74 314 207 89 21 10 16 35 40 49 72 69 67 61 82 109 134 52 -11 -21 -20 -61 35 7 8 8 7 27 32 67 42 37 -10 22 171 136 92 111 96 0 41 112 117 107 88 85
131 23 268 210 179 19 8 17 32 47 61 78 68 71 47 28 -13 96 77 15 2 -6 -78 -10 12 -13 -17 25 37 17 64 21 50 -4 -32 142 136 128 77 87 61 62 66 89 87 55 33
146 -25 331 242 154 27 13 11 33 55 117 69 59 45 43 8 10 8 94 92 43 -6 -40 -10 18 11 13 51 51 20 20 50 56 70 -19 45 97 97 101 89 88 75 54 67 66 59 67
131 -49 247 304 142 91 23 13 35 56 91 73 58 67 34 19 25 0 -2 72 47 7 -3 16 41 30 43 5 44 65 83 118 78 133 62 49 43 82 86 105 78 80 93 43 63 60 80
113 -63 239 249 135 108 27 15 30 41 70 74 53 54 40 29 28 24 56 30 27 21 58 67 87 105 63 146 123 115 89 108 124 162 144 90 84 74 61 4 73 41 34 67 102 30 47
64 8 168 313 224 176 24 15 28 30 37 87 60 65 40 36 34 50 90 29 49 10 84 76 180 210 166 145 190 164 135 88 86 103 120 121 132 101 109 53 46 58 34 33 40 42 41
70 89 41 183 301 312 31 9 27 31 42 83 60 62 46 29 13 55 44 46 49 60 78 119 140 126 180 234 215 181 152 134 63 77 105 89 72 45 46 43 65 29 33 39 62 49 65
55 115 12 234 240 309 38 9 28 33 40 85 71 43 58 41 41 39 36 50 82 53 70 82 119 122 98 114 115 154 70 95 101 99 98 77 73 56 76 67 39 66 97 67 97 84 83
66 102 34 270 317 326 37 9 31 36 33 75 76 63 59 59 65 42 40 53 53 82 62 107 70 62 60 96 73 41 50 93 64 94 123 122 117 85 64 60 73 91 109 114 61 87 125

GFSGBSN_con_3kmhel_015.txt.gz
Helicity
32 36 45 26 22 13 27 36 49 40 29 25 21 15 16 19 8 12 29 61 82 110 103 80 79 106 120 184 140 112 81 76 57 62 54 56 84 147 157 162 89 85 54 57 60 90 54
35 34 47 37 27 32 30 18 53 54 47 36 27 26 23 36 20 21 22 28 54 94 106 91 75 74 115 163 59 72 99 144 95 35 33 54 84 83 138 114 130 141 45 57 43 65 42
37 40 44 46 37 29 30 24 33 55 49 47 37 34 35 36 24 5 28 31 39 74 104 94 76 69 127 81 83 73 62 75 79 77 60 32 49 101 123 174 115 70 88 36 77 60 75
29 40 31 44 51 37 32 29 36 38 41 44 47 39 47 39 38 12 9 35 47 58 85 99 93 68 184 29 29 57 72 65 51 51 85 100 36 94 121 213 241 101 103 78 75 33 49
23 33 28 41 53 51 34 28 29 25 28 45 48 47 49 60 62 38 23 20 41 56 81 95 95 106 114 98 62 34 30 62 82 89 50 80 106 129 143 133 159 147 131 48 84 38 42
21 25 31 48 57 52 43 34 25 27 26 26 58 62 56 56 68 70 50 55 86 97 116 108 91 139 80 54 31 39 53 62 93 129 140 141 181 184 148 166 233 159 114 66 28 64 46
11 17 39 43 53 56 46 44 36 25 28 32 68 73 62 65 64 95 89 132 211 288 344 304 128 142 161 45 97 78 45 96 118 162 222 151 257 178 72 54 108 98 62 71 42 -4 74
29 28 39 44 44 50 48 39 42 32 28 34 62 72 64 72 61 74 105 186 242 256 304 142 109 90 107 187 149 98 87 144 185 209 124 124 173 119 50 122 117 184 56 65 66 34 63
39 39 41 36 42 41 47 49 49 33 26 33 54 65 65 83 114 122 98 104 251 269 246 216 112 135 162 213 215 118 68 63 114 76 84 61 40 47 71 95 68 222 108 107 100 60 46
54 43 37 42 35 42 36 43 46 39 30 42 47 65 71 142 162 71 101 109 264 192 271 301 229 224 196 337 204 18 45 42 53 31 -2 22 -8 127 49 61 64 93 124 124 104 121 69
96 52 38 36 49 51 53 36 40 36 35 46 53 49 85 141 176 111 121 169 245 133 343 190 174 84 131 301 130 56 29 14 17 -28 144 -29 -120 93 43 7 39 153 48 150 141 122 163
161 308 99 42 39 47 51 36 35 35 43 39 61 41 89 121 90 81 149 167 146 269 483 191 168 137 169 123 94 30 54 20 11 42 -35 -58 -44 75 -48 -84 112 194 162 171 168 142 86
82 355 241 67 25 29 41 32 32 47 43 45 64 63 124 110 78 216 211 211 249 397 318 223 205 178 120 129 2 19 37 -10 -24 -54 -21 -129 23 104 0 36 77 80 278 325 196 142 107
-107 286 361 232 61 20 34 18 24 36 33 49 65 65 107 81 113 202 267 296 338 313 321 278 211 132 114 44 -11 2 12 -2 -6 -28 14 2 65 27 -5 97 96 117 111 250 248 129 82
48 -1 295 243 182 36 19 9 25 34 33 58 74 77 199 117 184 230 359 331 428 292 291 232 170 134 60 29 29 3 3 5 -18 -42 26 66 37 53 35 80 125 210 136 165 267 268 120
-11 -6 164 333 269 39 26 18 23 28 31 46 129 126 153 155 231 277 340 412 279 222 216 187 139 60 41 32 4 -12 -15 -4 -17 -74 49 20 49 165 101 253 237 205 154 187 267 148 150
23 123 38 518 305 51 34 22 19 29 33 60 127 94 98 191 231 320 375 399 199 206 230 167 27 0 3 4 -5 -5 -6 -84 -98 33 106 72 258 298 320 174 187 117 217 183 205 216 175
26 111 0 349 360 130 16 14 9 23 56 113 94 75 125 185 218 292 317 344 143 89 202 54 -11 -38 18 16 16 18 1 25 -80 -14 40 62 18 430 421 196 65 72 102 106 132 104 201
52 165 -52 127 333 266 25 2 4 42 108 98 98 93 107 188 139 203 276 180 132 105 47 25 -12 -6 14 22 41 18 28 -29 -5 22 33 1 131 215 256 195 216 162 105 38 87 126 72
65 89 93 136 317 271 40 -2 4 45 59 113 105 59 137 170 81 92 191 128 104 61 11 -14 -16 -2 27 42 93 10 21 -10 19 23 63 75 122 148 80 89 115 103 62 19 34 77 63
81 57 117 -16 340 288 112 3 -9 28 38 104 124 69 91 80 51 76 165 117 -9 -11 -37 -1 6 11 33 35 65 42 9 -15 23 39 87 109 175 127 129 122 -11 -13 7 23 18 14 37
92 66 124 7 285 321 239 5 -3 30 64 122 97 85 74 54 -5 45 147 230 4 -58 -35 -31 9 42 61 44 41 49 10 17 25 29 56 102 145 101 94 97 70 20 -3 -7 36 28 10
114 57 86 22 248 297 241 3 -5 33 115 111 113 82 84 35 -16 -5 52 195 9 -22 -45 -62 19 16 26 45 31 52 8 10 23 17 28 84 170 103 68 52 74 64 30 41 28 6 21
104 73 73 -93 233 236 208 184 15 25 82 109 69 79 56 12 1 22 45 40 41 -20 -30 -89 8 14 17 69 65 30 106 120 108 38 105 71 108 144 94 84 50 83 82 4 21 33 19
64 68 87 70 88 271 320 179 13 19 41 96 68 82 55 28 20 4 7 24 48 11 -79 9 -8 97 54 63 52 13 107 114 117 182 69 108 77 80 90 69 102 73 28 57 38 -1 -8
71 64 78 19 102 244 290 329 3 14 11 98 66 71 55 42 34 31 14 48 46 67 19 28 59 144 110 108 150 43 59 76 50 73 231 131 71 43 55 60 64 60 21 41 37 63 49
64 74 116 -14 82 235 212 376 18 14 14 88 44 81 64 37 5 14 32 51 38 54 70 74 93 117 122 122 170 112 70 67 63 69 118 136 123 32 32 54 27 11 32 35 63 62 35
59 72 81 56 91 243 221 325 45 29 24 84 57 58 84 34 19 31 39 37 55 58 82 54 118 98 99 120 132 147 104 82 68 47 98 164 177 105 65 70 22 52 56 70 57 45 36
81 73 76 92 139 319 210 270 48 31 31 69 55 63 68 52 54 26 26 35 30 46 75 96 96 108 75 92 132 127 117 115 88 55 82 92 79 80 73 42 47 50 106 91 58 48 58

GFSGBSN_con_3kmhel_018.txt.gz
Helicity
27 28 42 38 42 28 29 21 30 40 24 23 29 40 48 44 28 34 36 42 50 50 53 63 81 116 185 222 152 145 108 51 11 57 75 53 77 116 140 225 121 86 106 68 65 98 94
19 24 33 41 37 29 30 34 28 33 36 24 22 35 46 50 39 37 37 45 40 29 41 54 69 95 162 139 93 104 104 88 120 103 62 74 98 89 162 124 148 171 85 98 81 78 72
4 15 29 39 35 40 34 28 32 43 38 32 19 29 38 52 45 39 31 38 36 26 31 47 67 91 147 112 111 108 132 55 54 75 120 33 48 105 143 158 178 141 124 91 71 84 107
19 9 21 31 34 34 40 38 35 36 29 34 28 24 33 41 49 45 51 41 46 30 34 44 58 81 175 75 48 52 110 60 31 44 71 109 124 73 104 136 178 217 159 134 53 151 79
38 23 25 22 30 37 51 43 40 34 30 17 32 33 31 32 56 58 60 57 71 48 56 61 82 115 117 100 76 49 51 50 52 45 46 47 127 130 143 150 190 131 203 114 117 138 107
48 44 40 34 23 42 58 53 43 35 26 31 26 42 39 40 59 75 77 78 88 108 96 100 106 141 87 45 51 11 38 29 52 84 103 82 134 159 159 205 207 224 184 170 123 115 127
182 40 43 37 30 44 59 53 49 50 44 37 37 45 54 53 58 99 122 114 149 157 213 275 118 148 189 74 92 64 27 53 70 94 133 130 196 193 161 149 96 132 133 95 101 101 45
209 127 53 44 43 50 53 56 58 52 45 55 38 64 66 59 56 88 134 150 134 173 134 133 103 163 53 170 113 68 81 116 110 117 122 153 155 135 124 116 82 96 115 126 87 47 54
216 129 150 36 45 46 48 52 49 55 49 55 47 53 66 68 83 106 103 96 135 158 171 230 201 194 155 125 134 86 105 108 118 106 137 195 169 82 107 130 145 98 78 96 68 19 121
146 167 138 199 113 47 29 45 48 51 51 46 49 51 75 140 110 74 66 41 136 142 176 244 265 194 169 274 252 115 133 134 185 140 113 132 75 103 132 126 149 133 22 81 63 49 169
102 157 149 8 165 159 38 28 35 32 39 33 58 53 81 101 110 80 116 113 137 82 205 192 199 106 101 290 284 84 211 135 160 130 160 201 157 122 86 80 103 91 26 19 36 82 216
36 123 91 97 188 212 115 37 21 25 33 36 51 53 81 60 62 127 105 87 106 204 293 285 262 186 191 171 201 223 109 34 61 35 51 58 75 73 -9 39 31 15 -39 69 50 99 143
37 73 75 70 73 267 328 65 36 23 32 37 49 60 104 119 88 222 140 150 194 261 287 244 202 178 126 170 162 119 115 45 125 146 76 20 -25 -1 -32 -48 -68 47 -63 6 149 232 111
48 75 30 111 65 240 316 94 50 28 34 38 48 63 97 119 193 257 185 183 206 185 342 357 244 185 151 154 108 96 87 39 38 2 -28 -63 -40 1 -4 2 -24 -66 -34 113 105 377 300
75 72 37 68 72 324 280 126 63 26 40 44 57 81 156 172 255 212 191 250 301 265 353 273 231 187 164 93 36 51 -10 -22 3 10 -13 -52 -13 -49 -70 13 -13 -245 -113 44 213 166 258
69 58 62 62 -75 431 347 79 64 29 45 44 94 127 152 223 327 255 211 293 300 323 354 240 144 102 121 79 65 11 -13 -5 25 -38 -14 -74 47 -43 -18 -73 49 75 103 115 236 188 164
37 67 24 73 -55 154 316 215 47 27 38 81 105 104 86 278 323 253 337 249 305 415 309 156 135 80 16 87 48 -3 -8 9 -2 -26 29 40 47 61 107 -28 -18 74 74 163 90 210 202
46 48 11 110 -46 185 356 298 90 32 43 115 109 117 101 165 202 283 309 273 359 274 185 81 101 53 -6 31 43 21 53 5 -5 -19 66 29 58 114 74 64 20 140 153 216 257 195 232
15 54 25 51 52 35 337 348 95 45 114 156 106 123 118 161 140 214 256 231 294 241 108 87 39 24 16 6 25 47 31 4 -61 66 -30 47 93 97 107 90 226 70 115 210 304 204 199
45 33 74 56 33 62 371 338 143 51 79 144 131 93 131 154 156 131 114 166 211 137 78 77 -19 6 36 8 25 -1 44 26 -11 97 32 -15 146 113 107 53 78 81 -8 72 141 179 213
45 26 82 60 76 37 302 361 361 43 62 155 125 87 90 64 59 108 128 75 79 33 49 51 -41 -7 17 25 40 71 -18 4 9 25 28 46 67 119 242 107 93 83 12 13 46 40 91
53 37 61 72 13 -6 383 343 356 37 62 139 101 104 94 59 44 3 59 158 126 29 -31 -21 -20 -32 36 47 47 29 -1 40 33 -5 4 80 82 235 52 32 101 63 22 45 28 38 37
42 49 43 79 53 -3 205 340 359 46 124 129 157 106 112 71 -8 18 24 124 73 42 -104 -36 44 28 25 71 52 11 -29 -25 12 5 -12 24 57 113 73 47 75 100 52 36 19 40 34
66 52 45 60 98 22 241 282 270 72 30 126 105 93 66 36 20 18 -20 147 138 69 -59 -63 -19 -29 22 72 25 56 99 88 53 21 16 50 35 80 58 45 26 44 45 18 63 73 41
56 64 56 64 139 38 157 311 278 36 -1 108 121 72 63 40 23 15 15 43 9 7 -84 -42 50 32 38 111 40 62 75 42 69 78 75 52 64 70 70 57 87 27 37 45 47 71 49
57 62 85 78 179 101 94 242 300 307 1 95 101 106 63 40 3 24 -4 -12 34 31 25 -28 68 94 120 53 78 42 67 67 64 102 174 102 108 83 93 92 70 80 41 44 70 79 77
64 54 86 77 109 102 120 226 235 331 27 92 50 90 54 12 -4 3 8 37 65 32 34 28 40 82 117 138 67 8 -1 28 14 51 113 155 108 43 45 73 55 6 3 35 69 63 63
49 68 74 89 132 78 94 236 227 262 34 85 58 58 79 28 17 32 28 12 56 49 38 45 114 68 163 121 95 121 49 42 31 47 99 172 122 89 80 14 26 44 55 45 26 37 43
38 69 83 86 140 114 102 309 230 268 33 68 52 57 78 66 32 26 26 20 31 34 61 58 140 115 31 59 69 148 102 113 52 38 35 75 114 90 58 25 35 68 68 61 39 35 76

GFSGBSN_con_3kmhel_021.txt.gz
Helicity
22 33 12 25 32 40 38 27 18 16 25 24 22 26 37 48 42 42 41 39 38 46 82 97 101 105 127 125 127 157 161 98 80 71 64 90 137 149 170 163 178 95 83 113 62 43 51
29 29 32 7 16 36 33 37 33 31 4 24 30 27 39 52 55 41 40 30 30 30 54 72 91 125 156 70 47 91 149 134 91 50 68 82 112 94 154 186 212 204 142 63 24 56 96
79 32 32 31 18 18 36 39 41 42 36 19 30 36 45 47 60 46 41 30 30 28 30 46 84 115 138 67 70 184 98 83 111 123 158 106 86 128 217 216 185 166 159 126 57 39 12
152 52 32 41 32 29 28 39 46 46 47 36 29 38 45 48 54 61 53 50 53 47 44 44 77 117 104 66 30 38 145 100 100 83 100 51 108 155 165 199 233 212 184 141 116 90 69
201 165 106 58 34 37 34 31 45 57 54 43 44 35 42 43 58 73 81 66 61 56 54 68 77 120 86 28 37 36 74 84 85 92 74 63 143 172 175 200 206 212 219 194 103 109 129
111 174 188 90 103 28 35 38 53 51 50 54 52 34 47 47 58 69 102 96 68 77 95 97 97 107 61 72 76 30 71 59 119 177 118 131 198 211 218 286 237 184 155 127 102 71 137
132 134 189 174 147 25 37 37 52 53 56 55 58 36 42 59 61 100 130 110 112 117 151 164 119 130 116 86 67 76 56 91 85 175 218 150 233 293 152 99 116 151 123 144 100 88 83
92 110 167 240 118 150 59 43 50 52 53 60 47 59 46 69 70 104 142 99 103 135 92 77 50 112 61 158 184 102 95 163 143 141 126 195 166 135 120 103 124 99 98 53 72 56 101
122 101 117 171 200 147 154 40 56 35 41 48 35 52 57 77 94 138 85 70 93 107 99 124 142 149 145 122 222 171 109 98 154 177 167 153 193 92 117 120 121 111 102 65 66 108 59
121 141 99 89 153 151 196 144 69 18 26 35 32 59 61 124 127 105 80 31 103 104 78 131 76 16 72 167 217 137 103 155 189 165 139 122 66 108 100 101 146 118 97 73 59 89 74
88 66 37 38 72 142 47 192 182 73 13 33 35 74 105 125 87 97 81 124 126 73 91 100 100 35 78 112 208 75 85 162 181 234 268 238 141 77 98 96 124 82 119 136 104 62 27
8 21 34 42 60 63 73 74 83 93 16 19 33 89 117 62 140 96 82 76 65 128 61 168 146 95 87 95 118 144 134 169 182 201 187 124 143 130 120 88 112 111 147 141 97 88 49
-9 23 50 59 68 41 26 38 69 97 54 37 57 109 139 137 86 98 85 104 126 146 152 117 104 103 66 102 97 117 141 156 239 204 223 167 65 126 142 138 135 159 165 254 141 74 18
-18 32 31 58 47 33 4 35 97 64 103 23 60 113 107 130 163 170 184 172 121 100 125 224 162 138 124 134 112 110 124 101 78 113 230 156 133 154 132 116 162 151 156 255 294 73 -100
-8 36 37 14 14 85 35 52 196 74 130 54 60 107 176 177 202 199 218 184 96 119 170 183 178 132 131 100 103 71 57 82 64 83 125 58 2 52 33 154 193 115 61 17 161 39 -27
13 36 23 -27 -8 139 -28 109 224 192 75 63 104 126 105 265 226 251 216 182 153 197 215 209 168 118 136 100 102 90 78 -5 3 40 62 -47 -39 -91 -24 33 31 -15 -33 -99 -229 3 46
44 20 -0 -35 54 45 -7 97 367 181 61 114 141 120 85 322 294 247 258 206 166 201 234 200 177 134 99 113 81 41 1 -9 33 43 128 50 23 41 4 12 -10 -78 -112 -184 -138 -97 180
16 17 18 -10 70 76 20 117 356 212 52 115 157 148 102 329 254 268 231 207 230 174 192 161 110 94 89 6 5 62 128 60 -40 53 161 72 -33 182 197 71 25 -43 101 -50 -85 7 117
12 25 40 2 50 61 113 82 422 202 114 216 156 169 128 204 162 207 208 180 163 208 243 180 124 39 44 -14 37 114 51 37 -13 57 91 138 100 126 28 36 -85 -69 -75 -7 -136 381 271
-5 28 30 25 26 42 -34 226 374 190 70 145 171 157 165 137 152 126 132 110 91 154 204 144 105 8 3 -9 53 1 62 38 67 116 51 -25 82 163 16 8 -21 -17 54 -31 81 222 246
-8 38 25 47 14 52 -29 174 410 254 71 138 216 78 139 117 110 115 99 58 32 62 46 37 57 33 -4 3 46 78 50 28 32 102 120 65 27 123 142 90 40 4 58 165 219 233 242
-9 43 33 55 17 68 -54 39 380 426 88 210 138 111 164 50 45 41 68 12 6 136 31 -9 47 14 -7 16 12 45 72 27 2 77 110 149 223 177 226 21 -8 52 97 32 71 98 59
-20 42 54 53 24 47 27 17 206 367 196 183 175 167 94 47 58 52 38 6 7 -4 12 -11 18 -0 -31 -14 22 -23 -2 15 24 25 54 19 75 97 130 59 41 24 7 -2 94 4 45
-28 25 77 64 45 32 48 86 216 321 187 132 185 114 88 56 49 26 -2 14 49 178 111 26 -16 -4 14 27 34 63 50 26 60 5 -5 25 22 76 53 56 72 64 49 32 51 31 25
-20 19 53 74 73 63 38 21 171 320 268 89 83 83 79 16 -4 7 27 -38 55 12 56 1 2 15 44 77 47 45 44 37 32 34 9 3 6 23 31 52 63 65 63 57 68 66 85
-23 16 45 70 84 60 87 28 195 241 201 86 132 118 81 45 22 52 44 -4 3 1 42 56 84 63 44 59 53 43 17 20 24 43 70 20 4 -17 19 19 35 54 76 38 43 78 77
-18 17 34 60 87 87 126 74 170 213 251 93 65 114 63 28 30 10 -10 -19 -12 40 22 60 17 59 77 35 55 36 49 47 29 32 62 82 46 36 11 19 29 23 47 23 62 53 53
-14 2 20 63 80 91 150 136 196 269 231 86 74 54 57 21 28 15 4 -27 7 28 51 35 130 23 117 79 64 91 42 45 58 39 82 109 103 75 67 33 41 37 23 42 10 36 38
-13 1 17 65 88 92 166 182 148 197 188 116 61 62 72 39 27 23 18 -11 -3 22 35 57 85 82 -3 132 124 91 58 44 52 30 4 32 94 73 52 15 14 62 42 42 24 24 23

GFSGBSN_con_3kmhel_024.txt.gz
Helicity
157 179 30 32 28 20 19 40 56 42 15 26 19 21 17 27 40 50 57 53 47 47 59 69 81 101 126 133 149 151 142 128 86 56 70 89 126 145 148 138 132 129 95 125 81 33 49
157 173 154 82 37 33 18 19 45 54 37 27 21 28 24 28 40 54 61 56 48 44 48 49 63 81 88 86 60 84 111 153 113 75 56 84 89 108 131 123 140 203 217 107 101 64 66
108 112 199 163 48 32 52 32 33 46 44 37 36 39 41 35 38 51 59 61 54 54 49 48 49 51 66 51 62 148 107 82 114 78 91 66 47 201 189 156 134 97 86 94 135 104 65
102 100 132 167 101 85 52 46 34 36 47 47 47 61 54 42 39 49 55 71 76 71 60 65 71 70 51 36 50 16 66 107 79 72 40 72 125 189 176 175 195 151 103 96 133 137 67
127 114 86 151 158 150 133 84 46 39 40 48 59 71 63 48 44 47 69 75 80 71 67 74 98 81 53 54 74 64 93 89 103 74 37 41 114 146 202 175 130 134 136 163 147 98 138
82 86 115 111 112 177 153 77 41 35 35 47 44 68 61 45 44 49 75 89 90 104 97 93 118 94 63 85 62 53 106 85 123 152 151 144 235 200 204 215 180 125 149 133 149 138 122
74 77 88 110 135 137 211 184 184 44 44 47 43 49 48 41 50 67 142 125 123 120 152 153 89 105 101 64 66 84 78 136 146 216 235 186 257 229 133 149 153 132 143 127 154 139 131
96 95 89 96 101 141 155 196 208 174 41 45 46 52 49 41 55 96 150 128 99 120 85 65 57 84 104 138 162 115 130 187 216 191 195 242 207 137 95 103 127 125 122 105 98 66 107
68 97 94 96 108 101 100 136 181 150 36 50 45 57 48 61 95 127 91 80 87 99 78 49 100 129 113 142 161 127 163 165 195 163 177 188 182 72 119 118 150 125 117 116 105 68 42
68 60 85 53 32 29 44 90 159 178 79 100 43 55 67 142 174 134 85 72 82 85 77 30 82 39 34 37 90 84 139 158 174 150 111 143 88 162 95 134 142 133 112 95 90 101 126
44 45 38 4 27 54 45 70 137 64 103 82 31 25 143 204 126 130 69 92 104 66 161 63 64 19 43 37 82 45 50 157 160 183 238 225 146 100 89 96 98 96 122 109 114 129 119
21 28 14 44 51 69 76 78 81 89 37 92 59 41 164 219 157 96 102 108 88 157 136 78 76 54 59 35 84 111 75 57 104 143 170 182 244 171 143 78 132 156 113 126 119 123 152
16 16 7 31 46 27 42 41 76 79 93 47 69 55 160 168 109 128 151 144 177 169 91 85 55 24 66 80 72 93 123 153 217 213 239 237 176 303 205 143 131 141 169 221 205 230 205
20 21 16 28 -13 2 -12 161 62 63 133 30 61 47 162 226 165 208 179 198 157 101 119 106 33 39 95 90 97 83 113 125 81 153 202 174 164 206 184 146 178 121 139 286 203 218 82
23 23 21 11 -26 4 7 217 5 48 73 84 171 -27 217 196 225 196 227 182 103 83 108 66 55 56 87 67 81 77 87 98 92 134 117 137 95 149 134 179 169 146 180 77 210 144 133
26 11 8 20 0 -31 97 135 -8 56 43 78 93 93 318 255 259 228 216 131 86 115 148 103 46 48 109 80 96 72 78 54 82 105 81 63 81 70 128 161 12 44 127 164 195 187 204
43 -20 20 29 -2 -30 130 84 61 136 188 28 34 172 173 198 230 277 259 128 119 126 138 82 41 95 95 111 114 76 45 12 70 47 123 80 2 -52 3 -37 -16 -41 -48 4 133 91 13
32 -54 1 45 13 -19 72 54 139 210 196 61 95 100 158 274 308 279 137 152 108 103 119 127 92 102 101 93 65 52 49 36 39 43 138 135 21 -14 81 50 -8 6 62 -22 -85 -146 -144
31 -40 -4 52 26 -10 34 -37 82 198 338 49 39 186 150 169 182 193 136 99 121 133 125 73 93 96 58 63 18 58 61 53 33 69 25 170 32 108 60 49 113 -51 -15 -73 -48 -212 -345
32 -45 -8 64 41 9 14 -3 44 236 320 156 180 105 242 173 168 160 119 98 91 63 84 136 158 81 65 -6 -15 -1 17 14 53 27 86 47 58 150 38 -4 -39 28 7 -27 -108 -257 -150
25 -41 -13 66 52 27 21 1 89 296 440 66 184 189 175 110 121 66 74 -3 41 40 31 49 41 55 14 19 6 21 67 8 -31 19 127 92 166 164 271 191 69 -3 76 148 138 31 139
9 -33 -14 49 65 44 13 8 70 474 465 94 166 174 177 101 91 90 43 20 12 59 69 87 49 10 36 28 15 6 47 42 50 114 210 228 243 209 261 109 59 7 90 139 113 120 101
-14 -33 -22 34 80 47 9 -3 66 304 352 85 62 151 155 58 57 39 73 64 -25 32 43 32 44 25 16 21 18 51 46 5 20 117 217 152 287 250 113 -29 -19 44 123 225 155 170 253
-7 -25 -19 28 80 71 46 25 44 413 270 88 176 150 121 58 49 35 -12 -13 -9 63 7 -5 12 14 10 -1 3 8 31 -30 66 134 109 90 226 215 140 111 57 32 67 109 142 41 37
3 -17 -18 34 67 76 68 70 31 245 321 47 214 153 75 60 36 25 18 -17 -28 -4 23 40 103 7 23 44 23 30 59 46 8 23 46 87 57 81 76 112 113 77 52 52 43 15 7
8 -9 -27 22 58 65 78 112 80 211 285 160 119 158 75 44 14 36 48 -28 1 -7 29 47 53 68 55 39 3 36 29 24 6 5 -11 44 28 -4 22 13 32 53 73 41 35 34 47
4 -8 -26 11 44 75 89 103 103 178 272 185 98 83 84 40 33 43 30 8 -13 -26 18 78 74 64 53 49 24 39 52 23 11 18 7 14 3 -2 -6 4 46 36 27 7 39 32 33
6 -10 -22 5 42 84 115 132 119 251 268 166 101 85 63 38 41 3 15 -16 -35 7 52 56 86 85 96 33 21 29 26 32 30 27 31 61 51 43 23 -6 29 40 43 50 15 27 30
2 -13 -13 5 42 87 130 146 112 209 188 185 52 84 74 35 28 29 32 19 -35 0 19 19 78 71 82 78 75 62 46 39 45 68 42 38 56 31 24 13 17 36 43 40 14 6 17

GFSGBSN_con_3kmhel_027.txt.gz
Helicity
102 60 126 126 205 125 69 28 26 28 40 37 38 25 23 21 19 27 31 37 38 41 45 58 60 93 132 104 76 93 121 120 72 83 82 112 169 173 154 127 132 147 90 101 86 58 40
97 108 81 80 110 98 94 170 29 36 31 45 50 51 35 33 26 31 33 40 42 46 50 48 50 68 96 69 56 73 128 166 139 116 108 108 113 112 145 129 127 130 124 75 91 77 35
65 75 103 109 46 74 93 132 130 32 36 33 35 59 52 48 36 35 38 42 46 51 59 58 57 66 69 45 68 93 129 105 149 129 109 90 98 172 230 123 110 109 84 74 64 91 61
74 73 82 80 88 124 54 127 164 120 33 29 30 43 80 62 41 40 41 43 57 67 71 68 77 76 38 59 77 27 76 108 106 66 77 86 92 185 180 188 173 138 103 74 62 100 109
61 75 71 64 101 93 128 89 178 157 111 41 32 22 49 58 46 47 50 60 79 85 77 69 100 79 40 77 88 55 91 111 134 110 102 92 143 195 209 190 152 137 137 116 108 96 124
69 53 65 85 83 97 118 99 156 226 158 176 47 20 55 72 45 54 51 108 97 107 103 85 117 80 65 83 85 69 58 95 142 165 166 171 206 207 230 224 226 155 150 95 66 102 144
79 78 41 56 81 96 101 107 129 143 152 97 42 40 32 81 75 56 139 169 145 119 138 136 64 52 86 99 101 107 101 175 189 247 194 222 277 287 185 159 163 145 130 112 132 131 81
74 69 62 44 74 91 94 82 121 177 133 184 171 48 39 81 87 99 197 179 109 116 91 33 78 64 118 161 142 147 141 208 223 212 221 266 207 212 166 144 132 145 126 112 61 55 105
64 46 48 42 42 57 38 36 71 120 135 202 224 77 53 76 100 188 114 120 86 94 93 76 102 104 96 117 132 123 158 190 182 215 234 212 236 116 187 158 159 145 127 111 87 85 74
30 29 44 25 8 12 9 30 56 49 91 144 179 56 48 47 200 194 134 112 81 85 131 64 94 106 114 135 72 86 116 169 194 173 174 194 162 138 175 156 151 122 102 95 109 120 139
29 30 45 13 15 29 50 59 54 76 85 152 140 202 111 202 242 252 135 159 99 106 162 88 109 62 70 66 79 81 54 116 157 195 250 218 157 140 143 123 97 138 97 70 97 137 126
40 44 35 29 32 27 11 48 46 46 81 94 42 63 169 301 263 178 145 172 145 213 179 89 77 75 77 44 65 103 87 72 162 164 153 175 129 163 168 92 135 166 110 115 146 175 198
36 45 33 24 28 27 -19 23 64 57 79 74 3 117 77 312 271 155 200 232 254 213 118 103 99 89 60 59 70 86 134 146 185 176 186 196 159 258 207 146 126 116 179 261 251 290 288
40 48 49 18 45 17 -24 -6 157 114 25 8 -30 77 52 329 172 178 209 345 234 123 159 53 97 82 58 72 87 88 122 112 117 174 225 204 203 228 281 245 263 225 206 335 302 302 174
38 47 38 -7 19 18 -25 -11 178 114 29 36 84 -44 -48 242 198 177 248 265 138 135 114 96 101 67 58 39 84 64 89 94 111 127 163 180 192 188 164 227 294 245 154 106 258 219 176
36 36 39 -29 -1 23 1 -12 74 81 43 54 3 -93 4 210 179 184 243 170 148 122 117 85 81 28 51 71 80 72 73 54 69 182 123 103 118 100 43 17 84 132 131 170 191 179 172
35 36 29 -37 11 53 52 -33 48 56 103 238 11 -16 39 310 340 230 194 156 97 78 96 83 71 72 50 97 102 106 61 32 57 46 154 104 95 19 93 131 174 110 104 212 176 181 198
29 34 30 -39 38 76 58 -15 19 53 215 40 79 56 224 405 274 240 241 115 78 67 90 111 74 49 73 81 75 85 62 41 32 90 119 149 133 81 129 121 117 158 136 175 154 207 175
24 28 16 -21 36 92 72 10 2 79 202 149 59 54 264 237 292 279 147 113 72 98 76 45 46 37 57 93 47 78 57 1 80 104 62 131 33 75 63 87 82 146 18 12 -33 -30 -58
20 21 19 -32 26 95 82 21 26 68 406 230 65 165 298 171 178 185 138 77 83 79 86 93 80 52 72 48 47 21 -21 -8 10 90 108 110 85 222 213 109 32 96 129 79 86 79 127
14 16 3 -24 18 82 89 33 -11 72 457 144 59 139 197 122 154 128 85 35 49 44 23 36 22 63 65 47 -5 -6 -49 -5 -41 64 82 165 193 253 301 246 75 89 -5 106 250 141 135
12 1 -15 -29 -8 62 89 42 3 109 498 72 115 87 123 129 93 108 44 29 5 5 30 20 21 47 27 24 12 22 27 -6 -12 65 131 170 188 221 319 286 218 96 23 34 87 51 -4
2 -9 -0 -26 3 49 91 53 26 109 421 93 27 122 159 65 99 58 68 20 4 43 -23 1 -11 31 -5 99 53 3 30 9 35 53 204 191 275 315 343 37 -25 69 117 67 222 145 177
-5 -2 -0 -25 7 41 84 76 66 128 275 212 106 112 97 88 45 47 3 49 29 -12 -13 -19 -23 -15 30 67 66 3 -1 50 32 116 236 196 151 198 240 67 50 173 161 159 347 364 328
-9 -6 -1 -24 -0 42 72 85 118 156 306 170 106 46 107 50 60 19 22 19 12 -20 -2 -2 10 17 48 37 49 25 18 37 61 65 208 200 90 88 101 98 67 87 151 199 158 236 191
-15 8 -6 -24 -6 50 69 97 151 202 210 181 203 115 121 54 24 23 7 15 -31 -7 85 -1 6 36 56 40 64 23 11 24 19 31 94 112 101 53 33 61 43 39 5 9 94 87 103
-7 9 -11 -19 -11 53 74 103 163 212 252 212 94 200 134 56 41 49 28 6 14 47 -2 -18 47 77 94 52 42 30 24 21 -2 11 24 40 34 52 23 28 64 43 61 31 15 -5 12
4 7 -9 -18 -2 44 87 113 176 189 218 261 108 86 99 56 55 28 23 26 10 -15 -20 -9 74 89 96 37 50 36 40 27 18 28 6 22 4 9 8 -2 18 51 41 42 32 51 55
3 -1 -12 -3 5 38 85 113 164 151 152 264 74 63 64 70 43 36 21 48 33 -9 1 16 76 87 73 61 48 38 32 23 36 25 38 9 40 14 27 29 4 15 5 7 13 10 12

GFSGBSN_con_3kmhel_030.txt.gz
Helicity
77 91 104 102 78 63 87 113 94 203 63 15 28 15 29 3 14 18 27 32 41 48 45 37 48 58 79 76 59 86 102 103 42 105 92 84 118 109 98 103 135 165 160 132 113 86 47
44 54 80 98 106 105 46 47 39 122 174 79 32 24 37 34 13 22 29 32 43 47 46 43 42 50 64 65 44 100 91 123 129 91 85 109 91 97 110 115 127 150 149 149 106 66 48
49 44 54 65 84 103 133 113 41 112 108 125 47 25 28 52 35 26 26 37 43 52 50 53 50 59 55 25 53 71 147 121 131 107 102 102 97 135 154 102 117 111 107 107 107 99 77
59 67 64 56 50 63 87 114 116 77 165 182 107 40 27 41 66 18 23 34 39 57 61 64 63 63 26 37 47 45 75 121 113 103 120 97 84 140 170 160 161 114 114 119 113 96 120
82 81 80 73 97 64 81 87 112 129 130 206 193 138 62 17 70 55 18 40 74 88 72 65 81 52 26 69 60 67 87 101 123 121 105 95 126 154 210 191 151 165 133 125 146 170 120
76 74 55 61 63 85 88 102 90 97 139 127 206 109 105 34 52 71 32 92 129 116 119 102 94 69 64 67 61 66 64 107 142 145 153 162 163 180 224 203 208 194 141 102 108 97 145
65 43 53 39 27 34 58 84 84 93 104 120 151 125 80 77 36 105 165 195 177 143 148 109 92 75 87 66 69 80 70 172 179 199 149 179 205 231 184 157 137 150 166 131 138 128 98
57 61 15 40 20 12 32 56 56 48 58 102 155 168 108 176 37 160 264 203 154 91 98 42 83 79 96 153 125 102 94 160 188 172 211 226 152 157 169 185 172 164 144 119 94 73 106
75 54 49 44 25 28 3 12 22 35 48 54 114 183 198 206 43 277 192 119 165 91 90 90 82 102 130 95 96 94 103 163 170 213 186 192 180 137 193 222 230 210 173 159 127 124 106
67 36 46 40 38 27 30 29 48 64 47 75 48 163 193 113 71 294 233 191 145 88 135 72 92 98 135 139 80 98 143 178 181 125 158 126 137 155 205 241 206 142 161 98 107 123 97
64 41 42 48 30 24 13 39 13 20 46 62 98 141 207 179 62 355 245 139 95 120 159 82 120 128 109 149 134 120 72 121 141 145 206 172 147 135 158 211 231 249 121 119 109 150 139
44 40 44 47 36 21 6 40 -17 -10 78 121 76 75 85 155 94 315 263 173 158 251 195 78 81 90 119 66 116 86 67 84 148 107 128 126 143 188 181 143 149 198 184 182 177 163 168
52 30 42 36 27 7 12 -30 -33 -34 192 75 13 -23 51 39 219 275 244 241 301 236 157 103 102 88 104 112 83 71 92 124 139 137 146 158 149 215 207 181 144 180 244 249 222 313 293
42 34 43 39 28 -21 -4 6 -13 -27 65 63 23 -4 -6 51 154 242 247 360 250 140 180 36 136 142 116 87 80 69 104 103 103 156 184 183 142 120 180 177 194 167 216 287 298 266 210
45 37 37 35 22 -11 32 65 16 1 63 97 63 30 27 -20 165 282 272 340 225 166 141 134 87 109 74 53 73 58 67 119 126 150 195 110 109 137 130 120 187 225 237 174 239 223 216
44 29 26 24 17 -7 47 89 29 -19 55 97 42 11 43 -5 301 209 297 248 200 178 151 126 143 92 101 83 63 68 84 77 85 126 134 141 99 97 131 142 69 173 173 191 263 242 240
28 16 20 22 12 4 56 86 39 -25 40 174 -5 52 -26 67 205 263 207 276 177 113 113 97 105 94 87 65 56 89 90 68 56 72 165 126 93 14 138 168 151 157 183 212 232 266 265
12 11 14 18 19 3 59 80 45 2 12 200 14 -18 5 90 152 164 219 130 123 104 121 82 75 93 61 51 63 83 77 70 69 149 106 67 19 101 134 200 193 173 110 154 234 281 279
10 7 15 14 12 16 63 77 53 11 61 250 48 107 8 256 122 226 188 135 79 91 61 46 60 41 29 40 61 65 76 23 106 121 40 88 119 13 38 65 141 267 278 247 104 56 95
16 3 3 6 -16 16 67 71 47 10 192 248 120 89 188 152 178 179 167 143 103 97 40 51 44 35 35 51 70 46 25 36 33 66 82 140 172 174 219 182 219 254 282 279 335 298 249
16 -6 -12 -0 -19 10 59 79 54 7 263 120 92 69 180 112 171 172 170 80 68 61 51 12 9 7 46 49 55 53 -12 -29 -26 -11 101 136 140 255 373 383 313 305 263 294 218 316 337
7 -16 -11 -0 -19 6 60 95 76 28 401 54 72 7 201 81 136 130 134 53 33 71 4 68 38 -8 -32 50 63 3 2 -52 -22 23 167 155 202 184 455 458 307 278 280 268 254 193 213
-8 -14 -9 -4 -12 11 52 87 100 68 250 99 28 62 154 10 122 84 51 32 27 64 5 20 -38 -24 -9 27 12 33 20 32 8 -28 40 158 186 225 412 258 107 154 184 191 223 176 239
-16 -12 -9 -3 -15 13 55 79 99 115 174 143 40 123 98 36 53 44 -3 30 14 20 29 7 -9 12 16 1 4 22 -34 -13 19 56 130 157 142 216 269 178 222 303 249 155 252 240 435
9 -6 2 -16 -14 4 47 79 122 167 186 115 79 86 58 66 23 63 33 30 46 45 21 -7 -23 52 23 26 39 42 21 6 22 95 156 199 123 142 81 116 221 216 286 240 163 204 205
1 -0 2 -18 -16 2 40 84 120 220 211 96 136 19 64 45 28 39 19 45 47 5 9 -5 50 66 60 34 47 30 16 12 15 7 4 104 95 96 58 86 65 155 97 160 151 162 149
7 2 -0 -19 -19 20 44 90 116 190 184 119 113 138 70 67 61 61 52 28 34 38 4 42 36 26 42 50 43 35 32 9 21 25 9 22 52 101 44 37 38 90 114 88 73 81 27
-0 2 7 -15 -0 25 45 90 115 167 179 126 129 162 113 88 52 60 51 21 29 19 -1 14 4 48 75 86 55 57 18 22 28 14 -10 28 16 11 -8 14 12 43 31 -0 62 35 38
2 -0 5 -20 -14 18 50 85 106 148 158 189 108 110 57 88 65 46 39 23 -11 33 57 24 11 81 54 72 48 44 55 39 32 24 14 -10 39 23 53 25 17 10 -17 -12 47 29 21

GFSGBSN_con_3kmhel_033.txt.gz
Helicity
30 39 40 46 66 99 111 115 89 85 98 121 142 108 52 22 28 2 1 32 38 43 57 61 65 67 92 84 80 66 44 69 44 112 93 96 111 99 96 113 131 146 111 81 50 60 58
30 41 41 57 57 49 60 126 133 105 102 105 118 111 114 42 33 30 -8 21 36 47 58 63 59 53 74 75 50 85 80 94 91 47 88 91 59 80 66 91 111 122 107 98 90 49 54
48 66 73 63 57 45 64 54 112 145 102 126 219 167 113 82 30 44 7 9 33 41 53 57 53 59 62 40 42 68 113 84 86 86 81 73 103 103 96 96 105 100 82 60 47 58 65
68 70 71 62 77 79 55 58 66 107 139 114 125 212 133 123 78 38 44 8 10 38 53 60 50 60 48 46 40 36 48 84 87 94 97 82 101 116 118 121 104 82 86 79 118 123 80
43 37 51 37 52 38 38 54 79 101 98 98 87 184 226 89 124 31 65 36 26 40 52 58 75 46 56 59 54 49 58 72 94 107 112 102 105 120 135 119 104 100 106 93 82 125 136
38 43 53 67 50 49 43 37 45 72 88 109 107 86 184 199 97 61 84 83 105 138 100 102 59 64 74 66 70 83 91 104 120 135 144 125 121 124 141 143 130 91 105 90 87 92 140
41 81 53 74 81 45 14 27 35 46 50 16 71 111 125 152 71 127 182 277 216 162 144 80 76 130 101 81 98 97 76 130 132 139 114 125 128 122 104 122 134 134 110 88 129 115 84
59 57 72 77 69 44 40 43 29 33 25 43 50 56 104 137 122 95 335 324 183 34 69 45 84 78 83 93 101 86 69 98 119 114 152 149 83 90 134 129 118 100 81 79 74 66 98
76 56 73 79 50 24 52 35 21 36 45 44 26 57 63 154 126 31 321 201 191 140 86 89 72 97 102 96 107 76 75 117 119 147 117 146 107 99 99 145 138 141 138 131 116 104 100
51 74 72 47 46 33 48 24 6 22 24 20 24 24 68 123 113 1 239 238 140 140 112 71 96 82 128 151 75 85 94 123 132 79 118 93 90 134 135 155 137 108 130 104 109 134 107
76 82 69 36 47 42 35 17 10 -15 -32 -26 4 39 31 87 139 126 327 289 111 131 111 84 119 129 106 160 109 103 120 181 138 126 147 103 85 110 87 75 185 165 144 127 131 143 120
81 71 51 38 45 37 31 -1 3 -13 9 -8 97 60 20 57 40 110 317 263 204 232 149 82 83 125 135 125 133 140 99 105 98 99 93 95 130 135 117 107 129 166 171 136 138 146 214
76 59 54 36 36 27 22 7 57 36 0 24 67 68 26 47 1 26 270 271 422 195 126 100 95 84 96 127 144 121 116 91 116 124 89 87 80 149 177 163 149 176 195 175 152 201 281
87 68 55 27 27 28 13 29 44 57 -2 2 110 35 29 11 -50 94 380 485 305 194 186 74 109 116 113 130 98 99 100 85 59 121 113 88 90 107 75 56 132 196 224 242 199 218 187
81 76 22 26 25 23 6 32 59 57 -11 19 138 26 22 5 104 206 320 412 208 120 153 138 123 152 108 75 90 64 61 70 83 157 124 97 69 51 64 103 94 206 222 129 217 178 185
89 45 14 24 21 22 -20 37 74 44 -5 56 11 39 14 61 59 202 284 335 260 171 162 130 145 81 105 56 75 43 42 56 84 139 126 140 93 67 92 146 94 151 205 256 327 358 368
73 21 17 18 19 14 -19 37 58 45 7 44 -5 48 8 69 75 205 297 313 231 179 134 159 136 127 93 78 69 66 47 56 36 64 96 112 113 96 111 124 164 227 242 312 318 374 470
58 22 8 8 3 12 -8 40 52 52 22 -15 58 80 54 74 197 220 143 196 186 172 167 116 100 95 77 63 40 43 32 60 65 128 87 77 -61 -23 114 202 180 213 219 298 320 327 543
42 28 0 -3 6 5 -1 26 45 57 7 244 48 66 69 236 162 185 215 205 154 147 131 114 100 79 65 44 25 29 49 63 111 108 -39 88 76 -8 -11 97 130 244 280 350 343 277 420
47 23 -8 -5 4 -16 -6 37 37 55 178 175 52 112 110 84 96 111 146 157 151 149 89 75 50 52 41 21 10 28 37 56 -15 -5 32 74 133 202 160 206 238 296 453 459 366 289 396
46 6 -15 -8 7 -9 -2 50 49 85 296 67 92 63 61 58 20 80 121 85 109 74 69 43 12 22 24 25 13 36 68 -20 -28 -27 -14 84 95 183 327 327 302 415 393 374 530 509 360
31 18 -9 -7 1 -10 9 56 70 84 333 84 87 74 64 62 24 69 101 31 55 84 49 36 44 5 -6 17 5 -5 52 -5 -16 -27 60 100 139 139 331 341 363 412 338 248 347 416 324
29 15 -5 -7 -9 -14 7 66 88 114 235 108 86 62 39 7 82 82 24 33 39 65 19 14 -2 16 -8 17 -28 -37 5 25 5 -4 83 79 68 85 249 109 213 259 204 178 145 322 155
38 16 -1 -1 -9 -2 12 56 88 131 157 110 55 71 44 33 53 124 16 69 43 7 64 29 -10 0 -8 -1 -38 -10 23 -5 1 -17 41 104 90 99 237 168 237 320 261 178 106 247 239
34 12 -4 -5 -9 13 39 53 96 138 182 99 62 77 52 5 40 57 -21 -17 42 10 25 15 -7 15 70 6 -22 1 14 1 21 119 153 238 139 122 118 182 215 213 223 285 229 162 307
48 12 -1 -1 -15 27 56 58 108 132 131 45 83 31 65 30 45 45 46 15 31 26 14 34 55 99 73 8 14 20 42 18 19 8 -3 55 118 79 70 151 111 157 133 140 126 85 143
44 10 4 1 -12 17 50 60 94 140 165 32 121 47 49 44 51 44 36 39 21 34 13 13 54 32 49 22 27 32 34 14 25 34 4 -5 7 80 91 74 92 105 147 75 16 66 64
61 27 11 7 -16 -8 31 63 111 137 183 6 113 106 111 42 51 44 38 37 46 21 -5 19 19 35 49 53 49 35 20 14 19 26 13 -6 -21 -7 28 26 36 0 36 30 97 59 26
73 45 29 22 1 -10 36 65 107 117 144 142 107 138 158 36 33 34 25 46 15 -15 79 -27 5 17 25 39 42 38 47 33 22 45 17 -11 5 5 52 37 38 42 94 81 80 96 36

GFSGBSN_con_3kmhel_036.txt.gz
Helicity
35 36 38 37 48 34 38 30 60 120 131 118 136 152 134 145 104 32 47 21 16 31 44 66 70 75 82 75 76 45 55 106 67 32 51 74 102 104 87 114 114 110 80 75 62 47 39
39 39 46 43 54 66 63 40 39 4 107 141 125 163 173 102 121 69 49 31 9 32 47 64 67 65 72 60 68 108 91 72 48 24 49 64 81 113 98 80 81 108 94 75 72 41 37
53 54 54 46 59 58 47 54 45 16 37 103 116 112 169 188 133 125 42 53 14 31 47 57 70 64 60 70 56 92 84 100 91 39 54 115 113 95 51 43 65 64 44 41 24 28 33
26 27 51 35 20 31 28 41 31 25 37 72 124 108 122 164 251 136 87 53 38 42 46 51 64 65 70 63 48 49 70 87 88 89 42 77 99 108 74 94 47 62 58 66 63 72 53
28 61 84 27 52 19 25 32 26 15 38 70 116 122 114 144 174 108 154 40 78 48 51 56 71 71 81 60 59 47 42 66 83 107 107 93 108 124 81 54 47 29 59 32 51 61 67
59 69 61 68 71 90 36 36 21 23 13 42 54 55 91 145 157 86 101 29 88 106 102 81 82 84 60 72 75 80 83 74 113 104 100 89 96 73 43 61 61 42 6 16 21 28 55
59 52 68 75 73 66 63 36 33 48 17 36 39 52 58 79 161 183 7 311 337 297 169 100 82 142 62 116 52 86 85 120 109 61 49 67 61 48 25 25 32 66 57 44 38 46 45
60 64 60 69 72 83 39 50 33 26 19 22 31 41 43 78 120 110 52 216 320 145 91 86 70 64 106 66 95 86 54 72 60 37 61 54 30 14 36 30 24 26 33 40 45 42 64
75 74 77 74 71 60 44 49 28 7 13 10 19 20 17 39 72 49 69 76 125 158 106 80 75 94 75 65 90 55 26 80 45 49 14 38 60 43 18 39 30 21 30 36 45 83 66
73 94 87 59 36 59 41 35 19 -13 -0 -3 -21 32 36 20 17 45 14 33 182 255 126 43 82 69 79 94 69 71 49 79 81 22 41 22 33 79 73 50 38 43 84 50 59 74 77
107 84 74 55 42 37 29 28 7 -4 32 -15 -41 -10 59 39 56 77 13 128 177 128 80 58 147 100 94 94 72 108 93 95 59 72 85 72 50 40 25 -7 61 81 81 60 76 86 102
100 74 83 49 26 26 25 23 -15 25 48 -2 -24 33 93 27 14 45 105 217 246 236 144 87 139 132 133 93 116 112 88 132 95 89 87 71 114 90 43 54 57 149 106 83 88 126 158
91 78 60 7 13 27 22 23 -27 34 52 15 -21 81 102 49 47 40 78 296 311 266 94 106 91 122 110 141 127 87 88 82 97 110 66 58 27 80 106 98 117 127 155 163 118 177 187
96 60 26 17 20 23 28 -13 -10 32 26 5 6 118 19 29 41 -4 136 329 195 240 167 61 90 77 136 121 136 99 92 89 48 80 113 71 60 47 66 77 116 73 123 164 150 127 120
91 51 40 31 21 17 13 -31 13 61 24 17 69 6 11 18 31 64 204 206 183 181 111 52 91 139 127 96 128 117 81 78 49 54 70 56 65 79 54 79 67 136 127 64 103 102 137
84 62 31 29 17 7 11 -17 59 43 35 18 31 11 22 24 30 119 215 197 260 146 113 42 97 75 100 56 94 55 54 48 26 47 35 88 66 78 110 89 66 84 136 196 246 232 180
82 55 31 12 10 4 6 -3 50 44 17 41 -25 59 34 47 158 191 225 264 239 88 79 108 82 116 119 73 54 51 55 51 9 34 41 96 98 71 95 78 90 147 194 238 216 277 343
83 60 8 7 8 15 -14 25 53 22 16 115 51 36 46 71 133 130 201 219 144 73 118 131 140 122 64 63 63 38 29 43 40 71 66 85 82 61 78 29 66 88 128 166 297 287 459
77 43 12 -2 8 16 -1 53 45 32 141 133 42 115 81 125 75 82 160 221 184 104 117 108 129 117 91 62 55 14 35 38 65 68 73 96 33 18 7 54 54 120 143 203 376 320 401
76 49 14 -4 6 -10 13 58 50 107 237 83 60 97 85 114 118 71 75 108 164 123 81 97 79 68 70 65 50 16 15 21 24 34 35 70 28 16 30 25 99 203 310 308 346 391 427
70 59 15 -10 1 -16 18 68 77 180 227 68 93 77 78 41 96 103 93 112 52 70 66 87 64 47 32 11 20 31 11 16 28 -22 -17 15 30 28 122 124 136 225 305 323 244 448 361
58 67 26 -4 -2 1 19 78 87 215 239 87 102 63 31 42 60 89 66 43 36 69 41 43 32 6 9 14 18 14 -8 -1 -6 -18 -22 42 37 11 160 164 160 314 278 177 129 132 210
60 59 30 -5 -0 24 50 78 83 133 197 101 122 78 54 35 48 62 51 16 17 41 50 38 -0 -0 14 1 5 -10 14 12 -1 10 -19 21 43 54 134 105 189 37 100 122 104 138 44
61 72 36 8 -1 22 83 73 89 100 126 58 40 74 32 91 69 68 23 34 28 41 49 39 11 -1 8 37 10 -13 -20 5 29 36 -4 30 67 59 116 105 88 163 145 161 128 71 101
45 52 44 18 1 11 78 61 83 94 74 62 74 44 47 63 43 38 -9 48 23 37 23 25 8 1 2 11 6 -21 2 37 49 63 84 114 95 89 72 111 171 121 86 80 62 84 76
47 70 60 33 -1 2 76 68 81 106 102 63 33 60 66 33 77 51 19 19 18 5 7 11 27 28 21 -3 13 30 41 47 31 21 3 56 163 113 44 55 55 63 72 54 76 76 65
57 73 76 59 13 -0 32 72 83 101 92 80 61 46 53 20 38 62 20 17 24 2 12 7 -0 17 25 16 25 55 48 34 48 38 13 18 4 87 79 53 55 73 86 84 14 122 76
64 80 77 77 17 -0 29 68 85 89 85 67 87 81 74 55 37 48 25 19 30 9 -5 -7 4 7 21 14 35 27 19 25 24 29 14 10 -1 2 37 38 20 17 38 25 65 68 48
72 80 66 64 30 6 47 85 95 108 112 56 65 128 140 25 36 33 31 26 25 -13 17 51 -7 -3 -11 -5 20 27 36 36 25 35 -5 18 22 15 41 22 1 19 48 66 81 59 3

GFSGBSN_con_3kmhel_039.txt.gz
Helicity
36 45 40 35 35 49 42 29 39 31 20 16 74 107 130 156 143 133 125 22 46 21 27 38 46 68 75 98 102 25 42 64 43 27 28 31 60 71 98 76 132 92 85 72 90 86 54
39 45 25 28 34 46 54 44 44 27 25 25 28 98 106 149 169 170 183 52 52 32 32 43 45 65 70 61 119 59 33 70 58 27 48 81 119 101 165 113 116 165 123 99 57 54 32
36 24 47 58 51 28 31 21 23 17 33 21 47 69 140 130 147 154 176 93 50 57 42 43 46 47 60 86 81 83 92 84 77 71 58 50 83 113 96 114 101 146 66 52 26 22 19
35 54 65 53 49 61 66 72 45 24 32 36 36 76 104 122 143 146 129 74 22 49 53 49 41 53 86 91 77 75 89 80 79 45 74 119 139 104 150 133 47 59 41 74 38 65 59
57 58 58 43 67 75 69 64 47 34 26 24 24 65 87 86 120 153 204 137 54 106 66 69 65 82 80 66 81 59 65 65 89 84 91 77 108 114 113 69 70 47 93 32 69 3 70
67 59 52 63 73 69 86 66 28 37 24 26 13 31 25 33 55 106 152 192 64 138 105 89 120 99 54 93 94 84 69 62 68 81 127 117 108 112 53 55 98 78 34 67 77 38 6
66 42 66 74 91 74 60 40 35 31 7 20 6 6 30 44 54 71 101 72 60 193 213 179 60 178 59 97 90 101 74 51 64 52 83 69 88 50 31 30 54 100 125 102 79 64 38
76 48 65 79 88 64 34 52 32 24 -4 -0 11 9 21 35 30 37 46 132 140 301 188 125 103 150 83 77 111 117 86 77 62 46 74 77 34 16 36 54 34 40 43 42 37 31 42
60 83 82 82 91 54 37 45 23 8 4 -0 5 -13 -20 27 41 24 64 74 69 176 223 88 83 68 90 87 90 57 29 63 35 19 26 26 43 58 21 28 29 18 32 39 48 76 47
98 74 88 82 51 13 17 21 16 10 16 8 13 -20 -9 24 -21 14 10 39 -17 -40 266 159 114 133 105 109 97 49 18 80 97 27 33 22 24 32 35 18 13 36 32 48 49 42 15
79 73 52 53 13 18 21 21 16 15 1 29 30 5 -15 15 32 26 15 25 47 124 242 80 165 84 72 104 85 75 41 87 59 61 72 41 34 14 4 6 43 52 109 72 70 78 98
79 53 70 33 38 27 25 25 23 -11 7 46 14 15 9 16 -0 6 14 78 131 184 192 170 159 127 129 112 108 93 95 131 132 69 34 55 57 50 33 62 52 128 78 54 58 71 80
58 68 56 30 39 25 23 21 -1 -6 38 14 11 35 12 -6 11 11 27 165 129 176 36 104 130 143 122 137 111 70 88 100 80 93 54 27 26 43 61 75 81 87 102 76 8 92 142
52 72 55 30 29 20 20 22 -11 27 35 26 -0 52 9 5 50 55 141 200 246 91 132 68 83 92 172 129 86 61 37 59 42 54 63 50 53 22 76 55 85 51 107 91 117 82 120
48 67 61 18 15 17 18 -12 15 52 23 -2 26 20 1 23 29 -5 113 99 138 117 111 80 98 146 184 95 122 84 44 37 45 42 84 80 96 82 62 73 72 101 89 70 130 111 157
44 62 53 20 9 15 20 8 41 27 10 31 54 30 15 21 19 100 138 72 172 134 52 56 104 70 87 96 123 86 62 52 76 17 33 102 80 58 95 94 62 62 132 167 188 132 104
52 71 45 18 3 17 15 52 55 35 46 157 36 16 39 26 59 103 72 107 120 75 80 73 18 54 34 36 70 65 72 101 16 28 19 51 70 69 96 52 56 97 114 169 155 226 183
59 66 51 22 1 8 -10 22 56 49 156 106 -0 -7 43 79 135 59 95 124 88 107 122 78 35 40 28 37 85 77 85 93 27 22 31 37 54 54 27 38 39 69 84 46 190 165 242
41 60 54 29 -3 -7 -25 7 59 111 144 28 22 61 73 136 129 92 227 147 100 92 114 79 72 82 61 40 88 63 60 47 20 14 20 75 34 40 60 57 17 64 29 56 200 180 328
35 54 65 41 -2 -8 -29 46 57 156 138 21 60 88 118 82 109 91 155 199 141 94 76 61 68 40 46 43 79 33 31 29 20 25 146 74 56 43 -33 -0 25 74 100 135 196 330 295
38 59 57 33 5 -15 22 43 69 144 153 105 83 76 124 29 129 115 84 75 119 58 33 62 85 70 80 52 31 39 32 26 25 53 64 75 33 17 42 46 21 26 62 107 108 213 331
40 64 63 35 9 -18 51 66 83 107 176 105 88 119 103 49 27 41 68 17 23 63 44 53 44 35 45 42 48 14 7 16 17 45 52 49 41 27 64 23 28 85 39 41 90 114 135
20 52 43 37 24 -24 66 70 86 78 99 80 104 54 79 51 24 46 35 21 24 40 63 65 33 19 46 47 19 32 38 40 36 27 -0 33 42 11 40 49 96 7 48 86 44 65 79
29 53 54 53 26 -15 56 56 62 72 72 47 48 46 54 65 61 58 33 33 30 40 25 36 34 26 30 23 29 8 -22 -3 20 11 8 26 29 16 37 60 4 21 71 72 142 44 25
44 54 52 48 36 -18 48 60 78 74 82 35 54 36 58 89 68 59 66 45 30 33 41 28 28 40 25 10 25 -3 -17 15 48 49 25 -2 8 23 15 49 119 22 44 34 85 69 73
53 58 66 62 51 -8 48 77 89 94 99 66 12 46 47 76 61 68 76 43 23 25 26 32 43 29 9 22 15 25 22 47 50 47 3 -2 23 65 35 38 -0 -3 15 33 133 35 -15
51 62 60 69 51 -0 41 69 89 109 114 73 37 29 53 91 54 60 -27 35 40 28 43 40 34 3 -2 11 26 35 49 40 63 41 26 27 31 72 67 17 29 41 22 78 27 76 29
60 59 65 64 48 5 2 75 103 104 105 67 71 36 55 39 65 76 70 54 37 28 5 6 20 23 16 12 32 27 40 31 48 44 14 7 -4 5 2 -1 -9 15 29 26 36 16 28
62 56 70 62 34 14 -25 65 107 123 137 88 43 78 92 43 80 34 31 21 45 51 34 -10 18 7 4 -15 7 27 31 36 55 50 19 26 -5 -2 32 17 -0 12 37 51 72 64 -38

GFSGBSN_con_3kmhel_042.txt.gz
Helicity
28 32 27 36 43 43 33 34 36 46 50 51 49 39 74 89 121 114 142 153 156 33 48 24 29 57 92 94 104 25 52 83 42 24 13 13 60 101 136 142 131 106 108 86 107 207 208
30 30 45 61 56 34 36 40 49 55 58 64 61 54 54 74 140 137 150 137 147 39 47 31 38 64 108 87 118 -4 -9 23 38 36 23 -4 64 96 201 193 90 96 121 88 105 101 99
21 39 61 56 55 53 64 52 59 78 67 59 48 51 21 50 108 144 150 163 190 107 60 30 41 60 86 71 87 66 53 47 71 19 33 55 121 137 187 203 254 191 131 92 81 80 83
48 59 57 62 61 63 66 61 85 72 66 23 27 25 24 48 74 105 131 182 192 185 55 84 61 73 98 110 92 55 66 70 85 97 107 99 123 168 215 202 128 84 56 81 23 31 47
61 54 54 61 81 67 64 62 53 57 34 29 30 16 7 41 32 24 95 164 161 61 39 62 102 100 93 72 78 50 52 66 64 54 108 118 137 171 122 104 93 62 98 71 78 64 72
50 67 73 71 73 89 65 35 38 49 37 47 24 6 -3 11 36 51 51 112 108 12 64 61 135 122 98 85 90 65 61 82 106 83 113 95 124 125 119 123 117 63 63 115 105 73 63
53 55 88 126 79 66 46 33 30 35 29 22 3 6 8 8 41 43 27 8 47 -37 197 249 94 221 55 145 109 82 66 76 74 78 140 140 142 113 51 37 44 178 204 171 203 200 107
63 85 99 79 75 56 10 19 28 25 15 14 11 -8 -18 -36 4 40 31 32 138 50 110 153 149 131 112 65 107 88 70 120 102 90 121 159 85 44 67 86 81 81 72 73 57 60 58
80 90 52 61 59 44 38 37 26 21 13 11 4 7 -16 -19 -13 8 -4 32 -66 24 175 106 114 126 85 101 97 82 69 98 66 76 73 70 81 18 56 65 54 65 60 65 69 55 17
64 98 67 71 38 40 41 31 20 12 12 4 11 31 8 -6 -30 60 13 2 6 15 235 103 140 107 101 163 80 53 50 121 83 38 31 39 52 50 49 38 40 55 57 51 58 62 46
95 78 60 72 29 30 30 24 17 18 -1 12 35 30 21 1 -32 -13 35 7 3 29 308 105 185 77 70 145 134 86 29 139 68 89 104 60 48 50 33 33 42 54 73 100 76 66 61
82 60 77 67 24 21 19 17 13 0 -8 15 2 17 12 -30 -25 12 18 34 110 115 310 175 218 119 182 108 164 136 141 147 215 131 83 53 60 50 41 39 62 105 83 24 42 59 58
64 55 77 69 22 12 15 19 -6 -7 3 11 7 4 -9 16 -9 13 44 89 -140 264 61 143 227 135 144 173 165 120 140 120 112 116 77 51 39 27 78 68 75 71 60 42 14 42 50
34 58 74 66 15 4 9 -5 -11 -56 -41 2 15 75 47 13 23 131 133 62 157 -16 69 84 113 133 157 151 99 78 79 80 81 102 46 39 37 31 65 64 63 44 82 67 83 96 105
41 56 77 58 11 -5 -11 -32 -41 -36 -14 6 95 64 19 29 57 104 88 57 55 53 37 83 90 193 173 128 116 82 57 47 51 61 75 40 63 56 70 50 36 92 46 112 135 100 118
35 58 71 62 9 -12 -23 -29 -19 15 27 120 72 34 21 16 21 55 116 -68 64 51 54 30 126 104 138 95 103 75 57 29 49 26 43 91 66 51 60 49 34 50 81 149 156 105 80
36 36 72 71 7 -8 -13 -25 21 28 90 66 52 16 28 24 54 89 119 73 97 -3 -42 68 32 80 55 112 78 80 36 27 34 32 23 61 90 84 111 40 75 85 90 118 170 153 121
32 29 62 63 9 -14 -15 -17 23 71 58 31 18 22 48 50 62 81 -35 154 29 124 56 50 26 35 41 67 101 75 58 114 35 46 42 42 68 64 49 40 17 69 91 75 130 99 194
38 45 58 52 7 -19 -32 -13 38 35 -25 11 45 97 50 66 138 23 9 135 135 172 80 56 50 29 31 36 133 150 125 77 64 43 42 63 46 48 51 83 58 91 60 88 137 130 226
33 49 62 44 8 -27 -46 -50 11 47 67 -18 72 139 120 108 -6 136 85 70 109 189 101 69 33 30 11 74 53 60 81 45 39 63 117 60 56 45 53 82 74 25 48 75 80 168 218
12 30 57 43 16 -37 -46 -44 7 94 118 50 82 113 82 66 204 91 97 35 99 107 63 69 74 18 22 73 55 43 51 39 26 51 58 77 42 48 53 11 -14 -39 -6 29 98 148 213
14 25 48 56 28 -44 -48 -38 22 106 132 43 56 74 96 89 73 54 131 55 50 59 84 73 55 81 116 57 73 16 30 13 17 39 45 75 40 65 -3 44 14 39 82 50 57 80 130
18 25 44 62 45 -33 -58 41 40 97 109 39 48 53 49 72 70 49 63 27 21 36 82 106 46 41 63 81 54 56 72 19 27 36 40 46 46 12 -1 35 36 -4 10 70 156 141 98
20 25 40 61 68 -4 -69 8 48 88 94 38 24 37 43 50 68 55 45 50 27 54 48 60 69 62 37 17 27 18 13 12 48 30 42 40 41 24 31 68 -3 1 79 97 105 103 65
25 23 37 54 68 31 -53 -97 55 77 101 59 40 31 45 57 38 41 74 54 35 57 49 33 44 39 30 12 13 3 6 -4 -10 9 26 24 36 22 20 40 49 15 52 27 89 91 93
26 23 39 50 64 38 -29 -80 64 97 102 61 23 35 50 64 63 62 45 48 26 37 31 33 57 42 31 27 25 17 18 -5 37 60 9 -19 4 30 39 28 10 5 -13 67 130 56 114
27 21 46 51 68 43 4 -52 74 81 129 96 36 25 20 77 85 79 83 28 43 42 35 34 25 33 15 10 32 27 37 49 45 37 48 13 19 42 25 11 3 20 11 108 47 95 62
26 22 49 52 66 56 9 -19 74 73 125 111 55 33 47 66 49 98 108 99 55 39 29 30 29 29 15 20 11 19 31 27 56 27 22 29 3 17 -13 4 -1 -22 -8 29 111 67 63
27 29 48 51 53 44 18 -3 -31 75 119 131 74 53 56 43 66 63 58 42 54 43 35 13 35 19 17 2 -2 7 28 39 51 59 60 33 2 7 -22 -13 -7 -2 -12 67 38 60 38

GFSGBSN_con_3kmhel_045.txt.gz
Helicity
37 28 35 48 56 56 61 61 63 47 59 61 52 69 78 87 83 85 123 123 137 131 158 47 40 55 91 96 77 68 41 -9 52 53 13 23 103 125 146 120 150 149 137 126 135 117 111
35 50 48 48 52 64 78 66 69 94 73 90 67 47 38 32 33 62 100 138 151 131 132 46 62 69 119 95 64 47 30 86 60 53 29 7 75 83 110 124 151 133 119 169 156 123 145
47 78 53 42 54 76 82 88 80 82 59 37 29 36 35 32 28 47 88 139 131 173 146 50 93 95 123 72 91 56 40 16 48 59 56 -11 87 114 150 165 179 201 194 164 110 58 68
72 74 57 60 60 100 113 86 67 37 43 46 52 58 31 26 19 31 27 73 119 139 146 106 94 124 127 70 79 85 77 71 53 85 85 70 114 135 150 167 177 174 120 90 61 80 90
58 66 72 108 119 83 92 81 22 23 24 39 44 34 18 17 17 22 52 39 81 145 110 74 223 188 92 106 92 66 48 88 75 120 106 39 187 190 211 161 183 146 115 71 115 39 84
50 75 112 78 61 95 67 49 44 32 27 23 18 20 10 20 14 19 52 52 69 114 -67 97 206 177 97 123 95 88 63 102 109 97 145 135 145 159 126 165 136 103 116 153 126 137 96
84 65 85 68 66 75 44 44 44 31 24 17 12 14 3 -32 -44 -9 17 5 31 81 -6 134 118 253 118 45 85 85 66 110 128 105 134 134 136 98 56 88 82 124 177 163 113 189 137
62 70 106 81 85 57 25 34 32 20 15 3 -9 3 10 3 -8 -10 -8 15 26 78 -140 108 161 151 116 153 130 101 139 171 127 139 150 178 111 57 56 52 87 133 93 66 35 93 69
65 80 94 92 94 45 26 19 16 17 15 0 -17 24 30 12 6 28 32 3 -8 -51 23 100 166 73 120 91 139 87 134 141 68 120 124 131 98 61 70 107 74 88 64 53 51 -3 -5
58 77 87 93 87 36 11 6 7 4 0 -16 -18 4 21 19 1 28 20 19 20 -9 112 117 222 158 108 135 145 78 120 127 140 87 75 93 88 114 90 70 75 80 73 65 67 50 58
60 61 74 88 66 22 3 1 0 -10 -29 -38 -17 -19 9 -19 -30 -23 17 27 1 13 245 100 204 95 104 193 127 83 74 171 91 96 100 62 63 63 65 65 67 60 60 62 67 61 33
82 55 70 84 55 13 -5 -19 -18 -31 -49 -30 -14 1 16 6 56 50 20 3 30 65 288 123 205 155 176 47 165 121 172 173 135 106 78 62 108 80 57 70 92 68 69 57 45 43 73
63 42 65 78 55 20 -17 -22 -25 -36 -11 9 20 53 56 26 8 27 6 31 65 150 228 212 232 132 140 176 186 171 156 147 135 128 101 79 40 53 78 81 89 91 76 87 58 63 32
55 46 73 70 71 15 -19 -21 -36 -8 13 24 71 80 58 15 20 46 3 123 -44 233 247 145 178 176 199 160 135 159 137 140 129 110 120 54 51 61 50 85 46 87 55 63 38 42 46
48 54 63 72 80 -1 -14 -12 -20 -11 30 86 20 42 16 -12 25 33 57 -81 -1 149 82 158 211 178 185 168 131 114 114 91 79 73 58 57 73 41 51 69 95 56 53 79 85 79 94
57 41 64 66 59 -8 -11 -12 -10 -30 -10 32 32 17 42 -2 39 76 84 -76 15 26 60 111 241 156 112 117 108 90 76 32 45 27 63 84 59 50 55 61 38 61 67 99 102 57 55
59 47 54 53 31 -21 -19 -22 -47 -43 65 -3 -23 36 48 7 17 61 95 -1 61 -6 -3 150 108 114 110 134 86 87 38 37 63 32 50 75 73 81 78 48 53 80 76 93 112 108 71
52 43 37 50 35 -24 -29 -29 -47 -10 101 11 37 42 55 65 94 57 50 77 40 25 117 71 26 67 100 128 80 91 52 71 15 63 56 75 61 66 31 25 70 104 102 109 109 77 121
42 29 27 51 35 -28 -32 -25 -42 -35 38 77 78 108 62 71 0 9 191 144 124 38 28 28 43 56 51 132 92 86 96 104 49 58 61 71 51 80 58 84 82 66 68 95 12 116 131
39 41 22 41 40 -32 -39 -34 -67 39 58 47 94 152 130 115 27 64 121 118 150 106 49 34 21 -3 2 73 86 56 93 83 91 90 40 65 42 31 17 59 92 61 59 66 165 171 109
42 50 25 36 37 -28 -56 -47 -79 70 75 45 102 62 18 139 100 70 41 79 121 83 72 32 0 -33 24 87 88 102 88 79 73 97 92 79 40 33 9 -7 -7 2 -12 17 106 175 210
45 52 26 32 43 -6 -61 -64 6 47 112 41 21 7 22 61 35 31 74 140 91 73 65 79 99 89 93 66 64 40 52 41 40 69 95 95 51 50 18 12 -17 -19 16 20 43 104 228
36 52 30 27 41 13 -57 -93 73 90 96 58 49 30 20 60 47 77 53 46 49 50 105 86 46 68 111 84 58 83 59 38 30 54 56 58 30 28 22 41 -28 -12 6 47 97 165 182
31 44 33 31 38 24 -32 -93 77 113 70 62 35 37 46 52 35 52 69 46 43 30 30 63 68 39 20 21 29 51 68 83 79 32 63 43 35 32 18 28 17 11 18 45 138 145 152
30 37 31 36 46 24 9 -66 -23 116 118 69 71 60 39 46 42 51 78 22 18 31 36 37 44 25 23 31 36 34 38 32 2 11 57 57 43 16 25 19 21 46 17 16 53 50 66
34 34 28 39 42 34 19 -9 -64 131 131 56 53 30 54 57 47 103 56 66 30 24 7 12 15 20 28 23 35 23 17 8 8 29 13 52 41 19 37 25 17 22 4 32 73 30 99
31 29 23 39 36 39 38 15 -20 -9 141 76 55 36 44 52 69 102 67 25 28 4 20 19 16 33 36 15 17 26 34 29 14 5 52 35 18 10 30 19 25 29 26 69 20 81 98
25 27 26 38 35 31 38 34 5 -15 125 105 82 40 37 52 40 60 70 68 35 19 7 16 37 36 31 15 17 20 21 32 36 58 49 26 26 20 4 4 7 -5 -4 5 72 107 83
26 28 31 37 43 32 42 33 17 4 77 101 60 34 39 18 31 30 58 74 43 24 51 53 25 23 10 16 11 17 24 40 40 45 49 37 28 14 -18 -18 -1 13 5 39 51 62 73

GFSGBSN_con_3kmhel_048.txt.gz
Helicity
27 62 82 52 52 59 74 88 110 102 95 82 60 29 58 33 24 29 51 57 80 147 172 153 136 85 124 114 71 80 70 10 21 78 76 85 133 159 184 159 168 149 185 146 94 94 86
40 73 71 59 63 69 97 98 120 114 80 43 6 36 41 22 26 12 23 61 72 130 167 176 92 136 140 83 78 77 38 51 67 92 68 85 100 87 129 142 151 137 93 109 111 102 99
48 55 48 74 114 91 89 104 98 94 49 10 28 57 57 49 43 32 25 38 89 123 169 171 161 134 146 44 116 69 56 51 65 61 79 15 61 133 127 159 135 163 170 191 147 90 95
48 29 74 103 82 60 98 110 70 53 52 40 31 37 26 30 22 21 20 37 39 54 154 96 12 93 135 44 90 123 94 60 77 75 42 11 60 91 107 151 158 155 171 138 102 76 74
30 59 53 74 66 74 92 69 28 40 42 26 27 27 17 7 10 15 20 30 51 52 142 112 67 198 122 115 66 51 80 77 72 143 118 89 98 151 122 156 194 196 154 121 130 70 91
52 37 80 105 95 89 105 46 33 21 11 16 15 15 6 5 -22 -30 -12 40 47 12 75 61 121 179 167 107 80 75 36 108 114 117 160 125 149 228 181 179 164 115 127 113 101 153 134
44 56 87 71 94 115 90 26 -6 -2 2 12 13 -24 -6 15 -2 -21 -40 -9 30 39 123 146 113 201 164 72 112 81 66 94 141 149 140 128 139 156 267 106 120 113 139 135 116 107 83
43 49 75 87 102 90 56 5 -6 4 8 11 -11 -38 -32 17 21 14 68 21 24 28 80 148 198 244 273 151 116 72 67 128 142 159 141 150 104 65 54 43 61 83 108 80 50 60 54
47 52 51 85 101 95 35 4 -10 -4 -3 -13 -31 -41 -29 17 2 45 17 -20 1 8 -3 -42 110 127 103 127 132 121 87 108 111 148 137 136 114 71 74 71 69 90 83 51 42 27 -6
45 58 44 88 97 86 24 -13 -21 -20 -24 -31 -18 -9 21 55 48 55 -4 6 24 44 -0 82 77 101 172 108 154 149 114 123 149 114 115 100 106 100 97 107 96 100 42 9 31 40 60
49 60 46 80 90 70 13 -37 -26 -31 -35 -4 10 -0 -8 4 61 33 -9 3 -12 55 151 71 110 57 137 137 108 95 182 158 150 165 143 110 104 114 123 77 86 67 55 42 33 27 28
43 56 41 82 85 48 10 -11 -20 -22 -3 13 -4 16 22 25 37 16 -8 -12 30 202 220 160 162 157 162 136 176 157 184 167 145 129 127 108 106 95 71 103 88 68 77 70 29 17 74
52 52 65 94 83 32 7 -5 -6 -1 -3 -13 41 33 30 35 26 12 18 -8 83 194 328 293 241 160 153 194 174 158 129 184 149 161 139 119 106 92 95 105 119 88 83 84 91 99 58
51 46 73 95 87 12 5 -0 1 -14 -29 52 -15 -0 11 18 24 20 -2 105 144 391 201 265 194 173 191 191 151 114 140 162 165 122 171 92 77 59 68 58 32 83 49 52 52 52 58
52 29 70 65 67 1 2 -6 -20 -18 -8 71 6 54 46 72 33 56 92 3 252 266 232 233 181 202 198 209 157 129 120 104 84 76 64 89 72 73 43 90 72 63 61 46 72 73 60
48 20 48 63 50 1 10 1 2 -11 65 22 50 38 48 102 26 26 75 170 92 209 164 186 210 141 166 157 139 127 88 41 73 58 83 61 58 52 65 77 72 54 66 84 91 40 23
41 17 47 53 46 -0 8 5 -15 2 54 18 25 55 87 57 33 50 85 59 127 43 167 189 110 148 156 149 95 108 48 68 16 49 52 74 50 81 59 45 71 90 64 61 67 56 31
48 30 46 63 32 -7 -12 -39 -53 41 39 44 47 126 99 65 63 95 143 95 105 145 256 168 72 94 129 130 96 69 47 85 45 48 68 78 52 54 41 59 44 82 59 82 56 40 72
57 34 47 50 33 -25 -35 -70 -33 27 40 72 62 110 99 42 204 202 159 111 108 131 134 52 42 49 128 111 63 65 76 104 -13 69 82 59 56 75 67 58 61 49 61 70 99 57 99
47 44 35 42 36 -36 -63 -72 -16 35 59 40 83 43 67 64 125 118 138 208 111 91 59 49 44 63 138 113 74 73 97 96 88 72 46 55 38 35 23 23 47 46 55 56 126 63 72
43 51 34 29 24 -28 -86 -90 31 80 80 50 44 -37 43 44 43 54 85 138 63 69 52 18 -2 -8 36 91 86 79 82 86 116 95 73 49 25 29 13 2 21 19 10 72 81 162 137
27 47 39 29 19 -0 -75 -76 44 107 101 -21 -16 -38 55 39 55 70 79 84 55 41 7 -20 -44 13 32 52 87 46 55 70 53 91 82 87 37 43 24 14 8 -0 -11 9 36 74 188
26 42 40 31 14 5 -46 -79 72 125 87 -21 35 41 -4 11 35 56 70 57 64 62 79 52 14 79 86 69 72 63 40 35 19 77 139 75 47 48 30 47 16 10 32 61 33 123 175
16 45 38 33 19 8 2 31 11 127 127 57 50 35 -16 -41 32 25 44 39 28 2 6 30 36 40 29 11 18 69 108 84 52 44 80 75 70 41 22 33 17 14 32 -21 83 86 129
11 55 40 33 23 21 2 15 76 104 128 69 57 52 52 -16 38 51 59 50 46 49 42 30 37 17 18 31 56 58 69 54 34 28 33 55 48 23 32 16 17 27 33 -3 -11 29 29
4 49 37 36 26 22 15 7 27 91 147 102 58 82 75 73 67 90 74 51 32 25 15 11 -2 25 31 25 39 35 26 24 26 26 55 45 62 34 36 21 28 24 8 7 38 -9 64
-0 28 37 37 26 23 18 17 17 44 99 118 93 54 76 78 78 104 67 45 38 19 24 13 2 9 30 26 27 28 37 28 18 15 30 38 35 15 12 17 35 40 23 15 11 9 108
-18 15 34 43 34 35 26 25 31 42 50 87 125 71 89 80 82 88 113 59 47 16 23 1 17 26 34 26 20 27 24 37 36 40 32 42 32 32 26 21 29 25 24 9 6 26 64
1 11 34 39 41 48 44 38 38 33 33 41 73 94 27 31 59 31 55 73 63 50 31 29 19 20 18 35 31 30 24 34 38 32 53 32 33 35 22 27 32 20 7 35 40 22 43

GFSGBSN_con_3kmhel_051.txt.gz
Helicity
58 46 47 37 57 80 73 70 93 110 94 81 47 37 42 51 50 34 58 28 30 46 118 134 173 121 150 206 92 -1 121 69 26 80 56 122 195 221 193 156 198 163 193 128 79 91 54
64 45 39 57 77 63 58 79 101 103 50 32 33 27 35 39 44 34 34 34 18 50 98 151 175 104 78 96 38 52 69 62 81 87 50 116 131 150 139 140 137 131 99 94 107 80 60
60 40 58 32 61 58 67 83 105 64 26 21 14 27 29 26 25 23 23 15 14 26 45 135 193 95 69 30 58 121 66 52 75 76 114 106 94 145 158 151 117 145 124 109 86 78 79
58 87 46 41 72 71 85 106 106 28 16 11 11 23 25 11 16 -4 -2 -5 2 36 39 105 160 133 47 44 72 149 88 76 73 79 81 60 89 127 135 155 172 153 160 142 127 98 89
67 68 51 49 57 72 107 104 62 26 7 3 13 18 1 -19 -4 7 23 15 19 49 40 87 70 134 34 55 40 82 148 80 75 72 73 64 67 114 134 166 198 187 163 156 137 85 110
66 70 48 50 67 92 102 77 33 5 9 4 12 9 -31 -27 -3 1 3 34 50 21 -3 43 90 103 69 104 68 76 136 96 117 115 128 99 85 139 151 169 181 173 129 130 134 153 130
66 62 50 37 64 87 119 59 15 2 -0 2 4 -17 -33 -21 -2 13 11 -19 52 4 31 167 131 95 130 117 115 94 105 110 89 148 148 131 99 124 124 92 116 116 136 143 141 111 89
90 60 53 39 48 88 123 52 5 -9 -7 -3 -19 -8 -0 10 17 -2 75 -21 -36 9 123 105 225 158 163 184 137 103 93 110 111 137 135 159 93 52 160 175 137 140 139 112 99 71 56
77 75 53 43 49 95 111 36 7 -8 4 -24 -18 12 7 -9 13 74 63 -65 -3 11 141 30 199 180 203 84 113 107 67 119 132 173 170 104 93 84 92 153 92 112 77 93 73 67 15
90 57 45 58 72 106 94 28 24 8 5 6 11 9 9 2 38 65 -39 -12 -2 50 45 177 163 165 237 120 131 139 71 104 142 128 112 101 109 39 36 -29 47 53 49 41 59 75 59
78 45 50 52 106 113 64 26 28 17 9 -0 12 -4 22 13 67 71 -12 15 25 115 197 124 166 128 218 208 124 120 134 117 126 158 127 124 101 112 103 75 90 83 62 49 30 27 28
82 32 47 56 80 115 37 14 10 8 -20 -12 32 -5 15 12 21 10 5 19 73 184 185 165 104 180 186 148 215 158 162 167 137 154 147 111 130 125 108 132 95 49 87 59 29 29 76
75 17 43 38 57 89 17 17 8 -1 -16 35 43 9 22 28 31 13 13 84 205 105 218 160 130 143 157 131 170 172 205 169 144 180 161 133 161 148 114 148 155 96 96 97 108 120 68
46 -0 37 34 89 65 25 22 27 -9 42 77 29 25 40 39 41 34 18 126 155 197 190 208 185 163 178 116 162 121 169 155 139 109 173 92 107 87 88 74 44 96 71 75 118 112 78
44 -14 35 54 75 41 24 16 -6 52 72 16 48 62 99 82 59 55 107 404 337 306 281 182 198 174 210 149 144 129 111 116 99 88 66 101 99 77 67 82 64 53 66 46 14 26 38
16 -18 41 53 64 18 -9 -8 36 41 37 19 73 94 112 76 53 35 128 179 317 334 181 220 183 117 118 124 131 88 117 58 65 82 75 68 82 81 77 81 99 39 42 65 81 36 45
6 -19 49 45 54 5 -23 -38 28 53 32 41 74 85 113 47 14 58 160 247 303 239 230 141 105 143 119 150 94 109 70 65 67 59 73 77 55 85 67 43 53 79 72 72 54 45 27
18 -9 31 37 42 -18 -34 -32 -19 58 59 36 68 34 80 45 134 157 198 165 138 196 206 151 83 142 100 123 93 97 40 62 25 50 52 67 34 61 59 47 24 45 35 69 53 38 84
16 9 13 28 29 -28 -65 -24 21 50 48 74 42 85 96 115 40 128 110 116 125 139 118 66 53 64 83 70 61 52 32 51 25 48 26 37 53 69 71 40 53 40 47 83 87 75 58
35 25 -15 19 20 -13 -73 -6 12 66 40 15 12 12 74 91 107 125 94 96 97 74 56 40 51 74 106 100 85 60 82 81 42 63 49 47 28 26 27 19 33 54 46 104 120 79 65
38 25 -6 18 15 9 23 24 47 78 79 15 -19 3 14 13 68 73 57 69 59 58 63 64 63 74 88 66 73 56 86 80 107 78 94 46 3 20 18 16 16 6 10 58 117 101 85
24 4 -4 19 15 8 5 55 90 98 96 -8 -4 -4 26 -19 85 92 76 61 53 49 12 33 31 49 44 82 57 46 58 78 49 70 62 85 29 32 24 29 11 5 -24 -2 22 14 107
44 19 -36 22 17 9 1 26 92 129 81 -33 -29 2 11 -14 6 40 69 34 62 41 59 26 7 35 84 93 61 54 44 64 21 72 105 55 46 37 28 49 29 18 35 72 52 67 71
42 12 -30 22 23 14 8 15 47 119 133 10 -10 -32 -26 -31 -12 36 62 44 27 23 31 40 32 27 43 15 65 88 94 72 34 55 79 79 63 38 28 43 28 17 27 17 54 42 109
33 33 -4 9 27 28 23 15 25 57 132 108 68 -7 -19 -33 -13 46 56 28 28 45 53 27 23 14 17 40 61 56 67 57 55 54 59 57 67 31 37 30 25 24 28 6 -15 13 -35
25 49 24 10 16 15 33 33 22 32 69 105 97 86 31 -7 -13 48 74 51 48 45 42 15 10 39 42 39 57 53 19 36 34 44 71 66 75 37 25 32 31 39 40 14 26 17 -2
52 72 29 20 23 21 18 31 33 32 51 81 120 116 99 43 70 127 105 74 61 49 24 5 -2 10 39 24 30 41 42 23 15 7 21 24 19 4 26 31 51 17 31 1 29 4 22
76 71 28 36 22 26 33 26 27 30 72 91 127 117 145 105 100 121 141 121 96 59 27 8 31 33 36 23 17 27 31 31 19 14 11 30 19 41 29 33 48 24 50 24 10 26 5
84 60 36 53 17 40 37 33 35 36 74 107 138 104 115 101 103 96 113 109 87 80 45 36 31 33 39 48 35 38 39 40 28 37 50 26 31 35 16 44 43 47 38 25 35 38 21

GFSGBSN_con_3kmhel_054.txt.gz
Helicity
85 68 37 69 55 50 61 39 89 93 102 61 32 12 24 24 26 33 38 46 36 17 23 27 106 183 135 67 111 37 55 141 60 82 72 141 188 226 172 187 204 161 167 129 109 132 72
79 49 80 67 57 70 59 71 101 107 69 33 24 19 21 27 30 24 25 18 -2 2 15 24 82 204 111 73 61 34 36 67 110 96 69 133 169 204 169 140 168 108 117 119 109 74 43
68 67 83 65 57 65 76 86 115 81 44 17 24 22 20 19 13 2 -9 -15 -11 10 15 16 75 125 119 106 31 76 67 34 88 101 89 111 151 154 116 166 101 160 113 124 56 55 65
75 75 76 58 69 51 64 103 93 42 4 3 11 17 26 14 -13 -16 -5 20 29 18 12 39 36 39 83 73 59 152 130 68 123 120 73 92 114 126 134 145 171 155 121 133 97 81 94
91 75 70 69 37 58 77 88 84 33 13 5 10 11 17 -7 -28 -24 -17 14 44 42 17 42 43 54 136 -22 54 114 121 64 90 77 66 55 109 122 146 155 191 181 137 152 138 48 99
67 97 74 87 45 53 79 90 51 46 29 -0 5 -1 -13 -14 -8 -1 -0 3 29 5 17 12 41 82 118 -35 79 73 107 100 117 90 91 98 94 129 152 163 193 167 176 123 122 106 110
75 75 102 77 20 72 72 96 52 42 18 12 -11 -18 -3 3 -0 15 28 32 23 10 21 45 122 162 65 116 137 94 108 120 122 136 128 134 124 108 90 147 132 105 122 132 128 115 85
60 96 77 59 28 67 115 50 32 43 20 5 -1 2 1 10 2 -7 65 67 32 -17 56 35 148 79 121 56 117 122 93 105 130 118 73 201 139 80 72 107 134 145 140 123 127 102 62
53 82 76 50 36 86 44 24 36 30 24 -0 -2 13 -0 4 -7 39 65 45 32 -4 92 4 67 96 176 165 105 135 111 115 121 109 115 62 70 60 94 167 114 171 113 101 93 95 31
58 64 59 41 60 58 24 27 46 26 12 -3 2 23 15 3 40 38 43 27 9 17 152 156 131 33 118 220 202 130 104 113 136 137 108 97 45 15 80 41 160 125 57 68 91 93 69
72 58 41 29 66 74 49 34 38 4 8 29 28 12 15 38 74 52 -9 -3 4 110 199 145 123 127 54 258 122 145 91 152 112 198 123 148 74 49 14 15 -15 47 58 62 41 30 48
67 44 33 27 35 63 51 36 -5 -1 23 25 44 11 32 36 35 16 10 34 54 202 176 151 116 138 86 126 163 175 138 183 164 156 124 105 113 97 77 102 41 43 107 83 59 48 85
49 39 32 25 42 41 47 30 -39 -0 -10 -0 46 33 58 60 55 68 65 79 94 184 200 125 134 163 120 120 170 181 164 172 128 165 156 139 137 108 100 171 155 108 102 99 97 119 73
47 34 29 37 43 34 39 21 -41 -12 -32 -6 61 71 48 60 33 26 34 106 239 237 177 117 129 111 242 172 156 157 146 172 140 116 143 88 99 91 91 73 42 105 74 76 106 117 87
31 32 41 25 34 27 18 18 -11 -22 13 -8 53 85 91 73 44 51 99 287 300 229 188 165 172 163 154 162 144 141 153 128 120 89 71 78 94 101 95 85 87 74 94 68 51 72 101
31 30 58 12 26 22 4 -6 -9 -5 40 11 59 66 73 42 53 131 153 191 277 244 189 120 129 84 58 121 100 91 85 91 61 83 89 68 81 84 72 85 131 70 43 87 96 87 99
28 26 59 6 18 15 -4 -20 -45 33 37 24 54 47 112 79 76 99 133 198 220 172 109 66 65 66 42 86 83 90 66 70 85 81 63 64 58 79 71 49 52 86 76 83 58 55 48
28 29 53 6 11 9 -6 -7 -38 43 51 42 80 59 112 97 46 56 101 127 183 158 117 53 49 86 55 65 90 84 63 38 60 42 56 62 45 54 60 36 38 45 22 54 45 37 52
25 35 43 4 14 10 21 16 -39 -2 -7 40 51 83 89 70 26 88 72 102 146 110 91 48 30 24 60 75 55 81 60 34 24 50 29 27 49 54 56 47 53 36 54 75 78 62 33
43 36 32 -1 20 12 12 46 10 26 27 41 21 26 57 56 74 67 52 58 80 53 64 42 46 49 58 81 69 71 59 74 16 44 47 31 22 22 23 27 29 44 49 86 90 66 61
61 50 26 20 4 18 17 37 62 65 50 13 -12 4 28 55 80 78 63 44 32 40 51 69 71 48 48 46 49 47 56 66 73 73 86 34 6 34 28 26 24 20 23 52 95 122 50
69 70 22 29 -15 22 21 26 44 110 78 1 1 4 -10 13 48 49 61 61 41 36 48 50 75 101 68 43 46 42 59 60 55 58 74 76 11 13 30 31 10 26 -1 12 26 29 72
84 76 24 25 6 1 22 24 24 69 61 18 3 5 -2 -16 39 33 41 71 73 40 46 46 43 54 98 104 43 56 61 63 36 62 75 55 24 28 31 42 32 29 17 49 117 96 106
94 76 27 19 31 10 23 22 22 27 40 38 49 11 -10 -11 -32 23 63 46 56 47 30 42 7 30 4 63 57 78 91 74 35 72 57 67 59 28 33 44 32 10 24 27 76 34 146
110 92 48 31 34 59 16 23 22 22 34 34 54 70 36 -12 -9 -0 77 53 44 61 59 36 36 9 2 35 61 66 73 68 75 68 62 62 58 33 38 38 27 33 34 39 23 15 -22
128 90 68 51 36 50 36 26 22 23 29 18 52 72 99 46 35 51 37 43 55 52 56 41 19 17 48 56 61 45 33 39 43 45 87 95 83 59 26 36 31 34 39 38 17 34 -14
147 91 69 66 38 36 33 28 22 34 33 23 49 73 84 80 103 108 72 50 68 69 45 44 19 43 55 55 50 47 52 40 26 17 35 63 52 35 30 32 42 25 37 40 37 25 3
132 94 72 68 32 39 34 30 9 10 31 52 57 87 120 106 105 155 156 113 115 78 60 40 54 45 40 34 30 35 38 40 43 28 28 23 30 27 41 35 49 19 54 40 26 34 28
117 79 69 67 19 41 37 15 28 22 29 65 61 115 106 117 113 154 122 122 104 111 89 72 57 41 38 43 43 38 32 38 34 29 33 4 3 2 22 48 50 55 59 56 43 39 36

GFSGBSN_con_3kmhel_057.txt.gz
Helicity
38 52 71 74 61 70 55 50 89 92 84 64 27 19 10 23 23 24 22 25 24 30 40 43 47 30 65 126 95 56 139 199 36 76 83 134 168 186 152 156 204 173 144 151 143 121 97
35 55 71 89 67 65 40 55 81 99 57 21 22 16 26 26 18 8 6 -4 -6 3 3 17 30 48 76 164 20 11 49 200 65 72 81 105 135 206 153 128 167 93 124 105 110 83 92
50 57 62 81 89 52 36 64 84 71 32 29 17 21 21 18 19 2 -15 -28 -13 6 5 2 11 41 94 224 126 82 17 119 84 44 80 70 135 196 145 149 140 124 109 106 63 71 70
54 60 65 103 80 44 28 81 57 36 20 24 20 25 14 20 21 -8 -27 -20 6 18 19 -6 35 34 57 127 60 132 74 35 68 59 76 58 134 153 143 131 178 141 153 118 96 63 75
52 55 75 92 65 32 39 63 41 32 27 26 18 15 16 -8 -25 -27 -18 -25 31 22 18 12 26 45 84 82 75 38 120 51 52 46 67 76 135 146 162 182 193 171 108 128 180 69 95
56 57 81 88 50 40 79 30 42 19 24 29 22 -7 -14 -3 10 -8 -15 31 7 21 31 42 30 62 136 57 59 72 90 54 97 76 109 83 120 151 159 176 183 176 174 135 113 99 102
56 69 78 76 37 54 42 14 15 23 29 14 17 7 10 7 4 3 -11 16 69 43 16 23 28 142 96 53 62 91 90 53 87 109 141 87 122 72 102 161 163 91 135 123 106 114 100
64 65 77 66 28 63 39 28 3 -6 -1 -5 4 10 33 9 20 43 59 58 51 -21 2 36 57 70 128 107 -44 144 81 103 134 97 83 132 59 81 104 130 138 127 146 140 149 129 82
70 68 63 51 32 41 67 51 8 7 -6 8 20 23 23 10 111 69 49 28 17 -3 64 61 -45 66 108 116 42 122 69 120 94 52 79 167 105 102 100 111 150 176 138 146 140 124 58
64 63 53 50 42 34 45 40 21 4 -2 8 26 13 27 76 3 -20 14 14 8 34 147 127 -5 179 97 86 138 115 79 98 166 99 134 107 162 83 64 97 103 135 106 113 108 115 121
67 58 51 41 37 28 34 28 14 17 -29 -2 11 31 71 44 46 24 20 46 60 54 225 104 45 103 120 87 187 190 137 78 112 59 85 63 16 138 148 183 134 105 71 105 116 108 107
64 54 34 51 40 29 20 13 7 10 -7 11 15 17 61 86 90 76 72 56 41 213 242 111 122 71 138 100 201 191 165 153 115 150 124 87 46 17 22 -32 28 17 133 134 123 115 129
69 48 33 48 34 32 8 8 8 -1 -2 31 52 19 36 74 69 71 35 75 194 158 172 182 120 54 169 180 184 163 170 147 92 81 122 164 180 110 79 96 63 52 80 157 222 209 138
71 54 36 39 22 29 7 5 5 10 3 30 56 45 62 64 58 53 119 149 178 205 164 147 72 57 162 164 174 149 188 152 139 88 92 68 92 99 83 67 34 93 66 76 106 121 94
77 57 40 37 13 21 20 1 3 25 13 26 70 89 65 73 83 145 144 235 152 174 137 34 131 139 130 123 95 116 138 131 102 101 68 91 87 95 89 70 75 68 74 65 73 93 100
80 62 39 39 6 13 27 15 7 28 17 32 111 120 91 84 115 166 134 99 132 130 94 39 56 77 82 69 94 76 103 111 92 91 86 59 78 81 63 94 122 71 61 88 90 95 116
89 58 45 38 12 5 22 44 21 38 21 59 79 27 130 91 73 86 90 98 151 99 36 30 37 31 36 39 62 90 86 81 75 77 61 54 47 80 62 60 46 85 81 88 76 64 99
97 60 54 40 32 -4 14 59 50 52 42 35 41 46 87 47 24 91 116 114 123 101 69 42 17 46 44 49 62 50 58 40 56 48 52 68 40 58 64 60 52 49 38 40 41 42 51
105 77 63 52 28 -5 14 43 74 73 17 50 44 48 74 53 49 78 104 115 109 71 61 42 22 8 47 60 48 74 46 48 50 71 41 37 57 66 54 30 55 35 50 57 54 54 29
101 87 69 66 30 9 17 30 64 98 41 30 24 35 3 17 33 38 49 65 49 43 42 32 27 25 46 46 58 49 66 74 32 75 62 57 39 38 33 34 36 39 49 64 53 49 48
96 96 82 63 51 32 22 34 53 103 87 10 7 25 17 7 40 33 21 40 23 27 39 62 50 20 14 46 50 58 61 63 83 75 78 46 24 37 33 32 39 39 35 36 47 72 34
97 97 84 59 72 36 38 36 59 82 91 42 26 -4 5 -11 -5 -6 17 20 33 27 28 50 68 80 31 25 29 -17 62 59 32 68 84 72 13 10 35 30 23 40 18 12 12 22 38
103 96 88 63 77 45 42 54 52 70 34 58 63 40 21 -5 15 13 7 7 2 -16 19 58 47 70 81 71 40 48 56 62 40 58 66 59 14 16 34 46 35 37 26 78 70 51 57
109 99 94 86 73 69 44 54 67 50 34 8 55 78 61 26 30 32 37 34 31 10 14 -2 19 27 17 39 57 87 94 73 59 75 40 62 54 35 38 44 36 17 29 28 82 64 91
123 107 103 98 84 76 56 47 67 56 41 28 21 68 94 69 52 27 38 56 53 53 63 39 24 11 0 37 64 63 68 56 60 71 68 46 54 37 34 39 40 32 43 58 43 52 32
126 111 116 99 84 74 59 38 44 82 42 16 28 23 48 84 103 102 93 63 68 73 67 52 53 40 50 48 57 54 59 57 53 52 85 81 62 48 37 35 34 43 69 57 38 56 16
130 117 120 99 82 79 53 22 21 47 59 17 19 38 57 75 79 109 132 117 89 77 69 58 44 54 62 67 58 48 46 38 40 39 43 74 74 56 40 48 52 23 26 51 64 39 37
128 121 128 99 82 72 49 20 15 32 41 37 17 24 69 104 63 91 134 136 144 116 79 50 91 66 77 74 51 43 42 42 47 39 39 45 46 47 42 53 62 31 83 53 70 54 44
157 153 126 96 91 69 39 23 18 19 18 48 45 40 39 65 77 60 85 86 120 129 111 91 67 54 47 72 61 47 38 38 42 49 48 37 26 24 24 42 47 71 63 66 62 55 43

GFSGBSN_con_3kmhel_060.txt.gz
Helicity
53 40 50 63 58 62 38 40 54 70 36 31 25 16 13 37 40 27 17 6 2 8 13 21 33 58 82 80 133 104 275 131 36 56 69 95 95 139 136 136 131 167 133 127 119 125 120
41 52 52 51 73 40 53 54 27 37 35 23 25 18 22 28 28 15 12 -6 -7 -3 -24 -1 16 52 68 117 116 55 79 259 81 51 66 82 108 103 124 110 126 98 150 108 104 108 73
50 47 42 75 74 63 78 64 45 31 25 15 27 38 24 17 17 21 6 16 -6 -12 -32 4 12 42 49 52 91 -21 36 199 121 54 57 61 109 102 109 141 116 162 89 100 105 87 75
55 59 48 86 66 76 59 48 33 13 7 28 28 34 19 3 -14 -36 -15 -46 -17 11 10 -8 -18 35 19 41 111 66 -75 143 173 54 48 23 82 72 115 128 63 90 101 87 50 54 102
46 49 56 74 67 72 56 52 21 -9 5 15 15 21 11 7 1 17 12 -31 15 27 2 -1 46 51 35 38 92 108 4 107 67 34 22 22 104 90 129 60 92 86 68 71 54 67 53
55 57 48 78 64 50 61 67 12 -8 -17 14 38 32 34 21 12 3 -3 -4 33 19 65 69 62 19 52 97 17 103 59 56 56 39 78 80 117 122 67 82 116 84 89 83 90 101 86
57 56 49 76 43 64 30 23 11 -2 13 24 17 21 27 29 37 9 21 9 28 44 52 -2 18 62 98 57 38 130 176 76 71 63 160 60 103 129 65 55 182 103 57 81 109 89 80
56 50 47 62 44 45 29 11 -4 17 21 11 11 18 1 -2 7 39 37 14 7 -15 -7 32 42 64 216 150 11 98 118 47 85 131 145 136 46 76 70 69 105 45 63 76 141 91 106
54 47 42 53 45 30 22 0 -1 16 15 31 6 -6 -18 -7 37 -3 0 11 11 14 86 28 -32 161 162 121 -60 145 111 24 64 91 101 70 37 61 57 72 85 105 89 99 137 119 106
62 51 39 55 39 30 21 3 -14 18 1 45 33 52 22 82 33 39 51 54 40 52 87 98 104 129 108 64 -8 165 112 139 179 71 98 74 142 22 27 53 51 80 138 125 131 125 146
68 48 37 60 41 33 9 -3 -6 1 4 27 33 34 60 25 63 89 78 51 50 67 327 157 140 92 67 144 115 49 62 188 81 60 89 61 70 58 45 31 48 134 110 131 143 136 134
71 47 34 51 46 29 6 -5 -1 -8 7 13 45 39 40 36 33 35 51 66 110 295 277 169 169 128 49 146 207 99 91 281 210 126 56 111 205 253 170 242 138 74 119 142 129 136 152
73 54 35 41 42 18 12 -2 3 4 5 18 27 50 67 52 88 73 86 172 297 282 234 214 134 96 66 156 120 126 95 31 78 51 121 166 165 234 170 132 213 154 123 188 187 202 200
84 62 29 36 39 9 4 10 14 15 19 32 63 79 77 36 79 112 139 161 179 166 143 164 99 126 167 141 122 148 88 88 102 47 97 180 79 71 56 92 73 88 153 262 225 185 159
98 68 32 41 38 -1 -7 18 19 27 24 19 70 75 106 89 126 131 86 69 58 42 101 78 78 101 100 67 91 111 147 100 78 103 40 53 69 64 55 52 66 59 80 98 129 141 148
96 70 50 44 37 0 -10 23 37 48 31 5 62 57 122 101 64 97 76 48 34 36 62 65 75 74 35 28 60 82 104 101 81 67 50 51 69 70 55 66 81 68 63 84 101 116 147
86 82 56 40 44 16 -13 25 54 65 55 25 66 52 97 57 62 68 78 23 51 48 46 71 73 35 21 27 39 74 55 46 60 59 44 28 59 66 66 54 48 71 76 84 92 93 117
80 88 63 50 42 28 -9 12 54 80 76 18 26 17 47 39 -11 42 83 60 83 71 56 43 34 28 26 40 38 38 39 40 56 63 54 64 39 52 66 50 56 64 75 82 122 81 85
87 85 65 48 50 40 -7 31 56 79 70 40 21 16 53 42 2 0 42 71 55 42 42 30 13 11 27 41 28 38 55 63 54 68 33 24 55 62 41 43 48 41 42 64 60 65 68
85 94 70 47 52 41 16 39 54 80 83 33 20 32 20 18 31 17 12 47 31 23 17 30 15 9 38 48 51 32 43 59 46 78 84 62 43 60 68 51 50 45 31 31 52 41 43
79 97 84 65 63 50 31 19 68 83 77 22 20 31 13 8 7 0 10 23 17 20 37 41 20 18 10 15 38 36 54 47 54 69 69 61 33 39 42 44 42 48 31 22 59 67 38
79 102 85 76 66 63 45 32 45 103 64 23 50 33 13 -2 -2 -3 -10 14 19 15 20 50 41 46 29 35 49 33 59 49 43 55 67 75 30 30 30 34 31 51 37 19 15 12 14
84 94 93 87 78 70 63 45 57 80 54 27 44 63 60 22 6 9 15 15 0 -26 -11 29 70 72 69 55 50 53 41 62 38 33 72 65 29 16 29 46 33 42 37 28 35 34 33
84 91 86 94 86 78 71 64 63 75 58 15 26 49 91 83 54 51 58 42 30 3 -5 -9 1 31 45 54 74 75 85 75 56 68 60 42 45 51 43 44 37 35 29 24 5 20 11
81 86 85 91 96 99 84 68 67 73 79 50 25 43 67 80 102 67 70 68 57 49 39 20 9 22 14 27 66 62 62 41 49 59 50 39 50 49 52 46 56 25 26 34 39 78 25
84 83 87 88 95 114 106 82 61 59 77 62 42 35 44 66 95 119 130 107 91 85 70 58 64 54 41 39 43 39 47 51 40 35 65 61 56 39 46 54 49 56 74 62 49 50 35
86 69 76 83 104 112 119 95 70 40 54 76 56 54 79 85 70 74 112 142 128 113 92 85 67 53 60 58 51 50 59 60 47 47 43 54 58 32 34 46 46 43 65 87 65 78 64
113 78 98 105 125 117 121 101 76 51 29 62 79 49 73 85 96 87 83 108 145 131 135 100 105 70 69 60 62 65 50 50 48 50 45 34 45 52 47 47 47 62 86 68 80 71 81
155 117 85 124 138 123 116 87 65 57 49 72 77 54 68 52 81 61 72 44 65 136 171 138 138 74 73 70 70 61 63 58 54 61 56 46 44 47 32 58 51 75 111 72 46 78 85

GFSGBSN_con_3kmhel_063.txt.gz
Helicity
43 50 42 47 88 70 82 52 57 42 35 22 12 23 27 28 35 32 16 9 24 12 16 24 30 39 46 52 75 73 212 145 59 23 48 103 84 102 129 81 109 127 130 180 194 112 81
60 53 38 54 85 71 65 47 29 22 8 5 30 41 36 31 21 17 13 13 20 12 2 9 10 35 35 51 48 96 98 286 75 35 49 63 82 75 142 101 134 102 203 136 164 89 113
50 53 32 58 84 58 39 35 60 20 3 -2 27 42 41 38 10 -5 -5 -6 -7 -1 15 7 8 12 11 16 56 36 64 262 198 85 62 50 78 87 164 125 115 194 188 137 105 73 65
56 46 44 61 69 38 24 16 25 12 -5 18 36 33 34 38 19 8 -6 5 -52 -13 8 14 9 16 36 13 43 117 -1 201 274 79 71 70 87 84 135 121 71 146 139 102 95 93 75
58 32 51 60 54 36 32 18 17 11 18 27 40 24 13 26 31 17 9 -10 -27 -12 25 -2 -1 49 14 37 32 57 -16 215 198 41 77 65 107 142 114 88 71 110 106 83 56 34 86
51 38 52 61 48 30 11 -1 5 -13 -1 19 34 28 33 17 23 23 -2 -7 -24 -9 6 55 13 5 13 34 27 46 -17 60 169 70 85 120 149 161 150 122 131 99 102 30 74 51 57
48 46 51 59 39 30 7 -8 -16 -7 -1 14 28 58 28 29 16 53 -5 3 19 9 -10 -11 6 25 68 49 31 14 65 121 146 60 175 103 221 126 44 56 52 74 51 146 97 48 61
47 54 49 54 47 35 12 -8 -16 5 8 20 32 83 35 27 43 28 1 6 -15 -6 23 17 27 36 87 2 64 2 44 102 123 102 122 146 112 112 56 54 103 218 68 99 148 84 73
50 57 48 58 53 30 12 2 -3 2 8 13 37 68 84 72 77 45 21 15 19 20 66 30 51 99 65 60 90 70 87 100 132 83 116 87 70 80 80 92 115 131 85 63 107 105 84
62 54 46 58 55 24 18 7 1 6 18 14 30 45 55 109 101 47 60 11 29 25 218 169 134 88 67 112 62 127 86 91 204 65 81 80 78 75 107 71 72 97 138 122 119 66 115
57 54 44 47 48 21 20 8 6 11 26 17 27 54 56 28 105 59 40 21 10 85 182 110 114 96 69 53 43 104 138 105 231 214 160 130 96 13 89 68 61 134 92 89 114 142 158
53 50 45 44 43 20 18 6 -1 15 36 30 24 47 57 117 68 92 71 83 119 246 165 119 98 124 63 135 95 94 116 184 188 213 182 84 116 117 89 182 116 74 103 118 135 147 142
52 48 43 45 43 23 9 8 -3 4 24 30 24 38 52 65 65 92 101 128 237 134 196 97 141 78 103 81 125 76 153 112 72 60 59 23 130 295 193 221 233 134 83 189 183 173 166
48 41 40 40 39 36 1 5 2 10 19 31 19 34 83 86 78 80 118 173 9 151 92 56 77 15 82 77 43 31 12 71 47 88 156 72 155 211 244 225 141 150 147 214 200 160 140
47 35 32 31 45 48 -0 -2 52 33 37 27 38 79 91 92 51 52 69 32 36 61 96 74 52 24 69 28 10 21 32 11 14 109 111 80 76 118 129 141 152 133 156 158 228 194 153
48 32 26 32 39 37 8 -6 56 47 57 42 80 52 66 33 11 34 40 22 37 50 67 68 77 70 47 39 45 45 64 47 28 26 10 20 49 43 47 86 80 166 89 162 174 173 156
58 34 23 29 33 35 21 -13 50 65 73 29 56 25 40 26 40 -16 30 1 21 60 71 74 42 22 8 5 48 49 40 44 60 39 30 25 41 29 30 56 56 61 83 102 131 140 187
67 37 20 27 27 34 25 -1 31 72 86 30 44 23 39 17 -0 4 15 7 27 48 50 41 29 24 15 19 15 37 36 43 55 56 43 60 49 50 40 41 83 97 79 65 105 60 93
60 35 27 26 27 32 27 7 21 60 68 30 12 27 39 22 -13 -18 4 5 9 13 19 22 8 22 23 20 24 43 37 49 68 90 56 24 30 56 51 43 36 45 48 85 92 97 67
58 43 40 32 23 36 31 19 -2 42 57 13 25 16 21 22 31 12 -8 4 21 6 1 -2 -0 -0 7 13 36 25 33 48 46 65 87 51 39 77 105 76 72 62 42 44 87 92 68
60 53 59 44 24 37 37 32 20 23 58 14 43 42 29 23 36 19 22 13 9 14 7 5 1 -15 14 23 35 32 29 28 31 31 48 62 39 47 57 51 39 52 46 30 68 66 81
52 63 67 46 37 38 40 34 38 38 2 29 59 57 66 26 17 16 26 18 15 30 34 33 28 49 33 32 57 44 23 33 21 31 40 56 44 46 34 34 22 44 35 26 19 24 27
47 64 67 57 45 40 46 39 44 61 44 49 30 36 59 79 60 37 48 40 30 26 25 10 52 49 47 67 56 67 65 80 68 36 22 40 34 35 22 24 22 32 26 28 40 45 46
43 59 58 65 50 50 46 46 53 65 68 48 44 30 63 86 95 105 74 60 35 28 27 21 9 18 51 57 65 70 73 67 54 56 41 43 46 45 35 24 27 37 38 25 10 25 10
59 34 36 63 67 66 55 44 56 65 83 73 50 62 61 66 85 83 91 73 56 33 30 36 26 32 33 40 61 65 60 49 52 56 49 63 47 44 62 40 63 30 25 27 26 48 7
94 62 63 59 82 80 78 76 76 84 87 87 83 49 64 62 111 106 114 110 103 66 58 57 54 61 37 15 31 43 42 57 34 35 51 50 53 52 66 54 54 45 30 36 34 59 85
126 158 135 85 97 105 98 110 100 89 76 87 104 70 82 69 48 93 96 167 157 130 134 94 78 76 64 37 39 42 40 66 45 37 38 52 49 27 34 46 55 27 54 95 74 73 85
129 146 143 142 134 129 100 104 126 100 81 85 111 79 113 94 43 62 88 103 128 129 158 127 109 91 78 58 57 53 43 46 60 54 46 38 40 47 47 50 34 53 68 85 129 98 84
171 165 187 174 181 131 78 104 99 89 87 92 127 87 62 89 63 62 79 69 81 101 156 160 173 121 63 63 63 72 60 77 52 59 53 57 54 59 36 52 58 39 145 123 88 100 102

GFSGBSN_con_3kmhel_066.txt.gz
Helicity
46 45 48 59 71 49 36 2 41 36 19 -1 14 33 38 41 30 19 10 14 11 13 15 34 25 45 41 40 6 108 87 100 80 56 62 82 107 119 154 126 109 103 222 127 201 196 185
43 41 50 52 64 44 36 19 10 6 -4 15 21 36 35 44 37 23 -6 -3 -6 -17 30 14 18 19 12 54 34 99 90 94 114 71 63 63 126 86 144 116 112 78 150 235 159 136 205
46 41 54 57 57 49 29 13 5 -3 -6 23 52 35 17 9 33 24 16 -15 -24 -34 -36 13 9 -8 2 -4 59 76 19 133 156 52 80 30 69 87 173 154 117 165 149 244 192 66 128
47 40 50 60 56 52 24 7 -4 -4 12 34 52 30 11 11 20 28 13 5 -33 -30 -37 16 8 5 23 -1 29 50 10 72 149 237 78 22 37 124 129 162 129 161 155 190 143 101 96
46 40 51 54 62 47 28 8 -1 13 24 39 50 38 12 8 11 26 19 -1 -14 -13 -4 -2 -2 6 8 -11 15 43 101 55 197 217 20 33 103 144 148 159 158 146 115 134 106 123 159
48 47 51 50 63 44 26 15 13 26 36 43 40 54 36 5 41 57 31 8 -13 -10 -12 20 -38 -13 12 63 51 26 31 -3 204 173 67 87 147 136 146 194 170 120 117 69 94 79 117
52 55 49 45 51 44 30 18 20 27 38 49 26 45 61 24 41 33 28 28 19 0 -15 -16 -21 38 30 53 37 39 61 89 159 111 190 131 214 114 90 121 124 60 60 87 50 71 79
49 57 48 43 46 41 31 15 12 29 42 49 23 35 27 42 44 52 62 39 0 11 42 20 17 14 -1 11 72 -15 13 110 87 202 103 179 166 102 100 100 134 136 99 51 127 104 68
45 55 48 46 42 38 24 14 5 20 41 60 18 28 18 30 31 50 43 8 37 37 72 66 34 -10 -83 52 70 33 92 105 69 117 130 193 143 127 107 135 147 133 148 91 183 181 159
44 50 50 47 41 33 21 14 -3 19 39 56 28 15 15 14 74 57 106 4 26 82 167 85 42 28 78 93 -3 60 54 125 144 42 203 216 135 100 152 139 102 129 148 89 141 133 127
42 41 45 41 36 33 19 13 -2 11 38 45 37 12 25 54 82 163 102 38 62 79 176 53 95 81 46 51 55 96 76 99 236 186 112 146 112 81 78 78 115 180 151 224 148 123 168
41 37 40 38 34 36 22 15 1 -3 27 46 36 28 23 76 108 134 87 34 96 153 222 177 160 99 81 82 70 92 65 75 214 248 214 125 166 114 109 83 209 140 243 233 144 141 139
33 33 32 31 30 32 25 9 0 -15 16 48 38 33 53 53 95 84 85 73 93 145 90 99 117 113 127 78 155 93 159 191 127 109 110 100 96 133 102 55 90 154 225 201 175 168 157
29 31 28 26 25 25 21 0 3 -5 4 54 49 34 66 69 88 32 39 39 12 49 48 61 71 15 50 89 123 8 61 118 107 62 90 34 23 70 142 109 108 157 144 211 177 149 160
30 29 28 22 22 21 11 -1 1 -8 4 43 48 81 56 83 60 15 32 13 20 35 22 42 87 35 10 -8 -10 -27 -32 27 51 80 42 60 48 76 120 171 228 179 146 118 213 176 175
30 24 24 15 15 19 9 2 12 -8 80 -13 41 50 35 44 37 43 52 58 -2 -34 -2 55 46 49 -19 7 1 -18 -10 2 -18 -24 96 27 41 58 115 258 232 177 122 130 162 202 164
33 20 15 12 12 17 7 -3 -1 69 104 -10 37 31 65 55 41 11 40 39 19 -4 -9 -1 8 18 9 13 39 29 30 30 26 2 35 6 18 28 19 95 115 213 206 150 151 168 165
33 17 14 10 16 18 8 -3 -12 33 95 27 37 13 66 44 19 19 14 12 10 13 29 1 4 9 17 23 28 34 32 44 51 41 20 46 41 44 29 57 75 116 135 98 152 105 139
28 22 13 13 12 10 16 11 0 -6 -1 54 27 25 36 32 32 20 4 19 4 -5 0 -11 -25 -5 10 26 23 37 40 17 38 80 55 22 32 60 47 31 23 40 59 112 91 125 88
31 34 20 19 8 12 17 12 1 -6 -12 34 60 34 27 22 29 23 15 14 10 30 4 -9 -7 -22 -24 -4 15 24 45 41 47 53 65 73 43 75 72 43 55 41 49 68 114 114 79
22 35 34 28 25 14 14 12 6 14 -27 38 60 79 61 33 48 29 21 0 -1 14 21 19 15 -11 -22 6 15 25 66 46 27 31 45 71 44 73 67 49 39 37 53 69 105 96 120
12 26 35 38 43 33 24 21 11 19 -6 40 53 63 55 51 44 36 39 25 10 30 37 26 36 45 43 39 62 53 38 24 32 43 41 55 50 55 53 52 52 57 46 43 54 46 36
13 15 47 42 56 57 33 36 30 36 18 44 50 53 66 48 76 87 85 85 60 41 40 20 45 55 39 90 87 79 82 92 103 50 37 54 60 54 40 38 41 53 47 71 84 64 71
36 33 46 47 59 65 45 51 49 48 37 34 56 51 58 53 74 114 131 89 70 57 41 45 34 41 56 35 48 50 72 76 70 78 57 57 71 68 49 34 54 16 51 36 69 43 38
41 32 46 65 65 64 55 74 85 70 63 61 83 70 89 59 71 70 143 123 99 66 38 28 50 53 26 49 70 84 69 45 38 59 46 72 78 51 58 41 35 68 29 35 44 27 43
55 48 48 72 84 85 72 87 90 95 93 94 121 88 122 98 107 126 102 86 98 94 76 59 64 52 56 48 60 47 49 52 49 44 56 49 93 61 59 57 47 42 20 36 29 46 88
70 64 69 92 121 121 110 95 73 87 97 113 117 104 133 139 78 128 111 115 136 135 95 66 74 78 73 76 75 65 56 56 47 33 40 59 52 56 41 43 45 26 33 52 61 51 83
74 66 69 88 123 126 139 105 88 90 92 137 121 119 130 162 97 89 83 80 114 79 105 109 91 127 108 120 96 78 71 48 66 52 56 52 50 56 59 52 26 64 61 69 80 97 83
65 64 69 91 108 101 164 118 90 70 75 128 184 131 104 158 166 49 39 29 63 89 26 124 168 166 81 100 86 75 58 84 59 65 97 75 63 62 50 36 33 16 63 90 93 85 67

GFSGBSN_con_3kmhel_069.txt.gz
Helicity
47 56 67 64 58 62 38 10 11 10 35 45 58 75 31 13 9 23 17 1 15 16 25 22 15 18 37 48 86 43 248 111 75 51 62 86 138 156 167 156 151 143 144 70 59 93 105
49 57 76 55 45 57 32 24 31 21 31 42 62 61 36 1 7 26 28 13 -4 7 -10 -4 -6 8 25 59 72 78 37 202 91 58 50 96 114 144 132 148 136 92 120 145 176 91 130
47 52 62 51 45 52 31 33 37 44 39 40 43 47 19 3 0 22 21 20 13 -15 -23 -21 -2 -9 1 20 42 96 37 170 87 75 66 77 98 105 118 160 108 144 104 157 206 142 121
49 56 65 44 42 50 29 35 27 35 39 31 34 36 23 9 34 24 -2 3 -17 -19 -18 -5 3 -4 21 31 45 55 63 84 65 52 90 33 40 126 138 164 161 124 153 219 215 148 130
45 51 60 42 38 46 26 19 20 31 39 28 24 27 24 29 33 32 21 12 -11 -2 2 0 -23 -14 20 49 51 45 76 102 90 54 81 46 79 125 136 145 204 204 154 177 203 108 112
42 53 53 44 39 41 25 3 13 32 29 30 26 14 15 44 26 32 28 21 8 -12 0 -4 -33 -17 4 39 71 81 67 53 87 85 114 120 158 146 137 173 134 183 184 158 197 168 122
42 52 55 44 40 38 17 -5 6 30 36 37 30 8 14 28 75 46 53 37 37 29 -5 17 25 28 25 30 60 73 66 65 118 85 147 135 185 90 66 146 172 114 102 87 69 103 101
44 50 55 41 38 42 15 0 -2 28 38 42 33 27 2 7 29 37 81 76 38 41 40 28 30 26 0 43 49 74 86 49 44 92 145 197 78 93 83 123 89 133 138 78 97 58 88
51 50 52 39 29 41 16 3 6 17 34 48 39 45 29 24 23 70 59 63 24 46 178 166 92 20 42 10 23 65 95 94 145 121 90 181 78 80 83 75 80 126 97 102 109 205 209
54 47 48 34 28 31 25 7 8 13 30 49 55 43 41 25 80 92 66 42 34 39 204 137 87 70 62 22 65 68 62 119 106 107 135 96 125 122 123 79 110 88 68 160 171 243 186
54 46 40 31 28 29 23 1 2 17 24 41 45 37 41 49 64 68 86 56 38 52 158 100 175 114 56 58 69 47 31 92 69 224 210 287 132 158 162 143 158 86 156 162 197 178 154
47 40 32 28 25 27 21 -6 -3 10 29 45 20 19 32 62 71 74 67 45 55 60 88 181 97 59 51 45 69 88 12 216 130 207 251 221 207 163 130 110 155 208 231 265 235 181 128
38 36 27 24 17 19 17 -1 -15 1 24 47 16 11 43 45 47 62 25 44 53 33 64 83 111 82 41 57 43 70 88 181 111 103 165 194 174 113 94 88 154 240 124 303 219 209 94
32 29 24 16 11 6 9 8 -13 -6 38 47 15 -2 59 42 32 -10 81 112 61 41 55 81 112 107 79 84 -5 66 47 104 161 101 135 82 116 91 94 80 107 80 314 186 182 192 118
25 25 20 16 12 5 1 0 -1 -8 28 21 1 59 67 26 54 46 67 32 23 69 59 79 64 39 45 14 8 52 38 32 48 63 47 44 47 47 61 95 93 143 254 177 168 147 140
21 21 20 17 16 7 3 -4 -4 17 31 6 49 41 41 88 87 37 35 -4 14 55 57 32 -10 3 6 20 7 11 -11 22 31 55 46 14 32 26 77 119 119 154 210 212 202 169 139
24 19 23 20 15 7 10 3 -9 -13 36 -3 45 31 46 83 55 40 25 -1 -7 16 1 -18 -14 -22 -23 0 12 16 13 34 36 62 79 41 26 45 83 96 120 165 229 156 147 123 120
24 23 28 24 9 9 13 8 1 -12 -1 52 58 53 39 59 39 38 36 20 12 10 33 3 -29 -23 -12 -2 7 11 5 17 23 19 5 31 26 37 41 24 57 145 162 180 149 108 109
17 15 19 20 19 9 14 15 5 6 13 55 33 46 34 52 23 26 22 28 30 27 23 0 -13 -14 -6 11 10 18 26 -3 41 52 25 23 50 67 74 73 61 78 87 126 175 118 59
13 -3 5 11 18 22 29 31 19 11 -8 63 47 42 35 44 33 36 28 24 30 24 20 13 3 2 -2 1 19 16 32 37 41 49 49 49 45 44 41 40 63 93 87 87 111 136 103
-2 -8 -11 -9 -1 -4 -14 -9 -1 7 -9 44 47 67 63 59 44 45 47 33 30 34 22 28 23 9 -4 7 11 17 45 39 32 41 49 64 62 64 63 55 58 54 60 90 104 99 96
-16 -33 -21 -20 -20 -27 -36 -44 -35 -8 -22 52 72 72 58 57 56 59 65 65 55 50 32 47 45 53 31 45 46 51 57 45 35 37 47 75 51 73 59 51 53 55 54 50 63 78 86
-15 -20 -7 -11 1 -4 -8 -13 -14 -25 4 92 63 57 106 51 46 65 109 104 93 75 37 27 29 34 34 54 61 64 63 47 35 55 55 59 66 76 46 57 63 65 54 86 114 114 94
3 -8 9 12 13 33 25 28 37 26 46 80 83 117 156 92 59 66 66 55 70 77 53 33 43 33 40 41 48 74 84 71 89 83 68 87 80 79 50 80 69 35 48 47 94 89 110
16 6 -6 9 11 40 21 34 52 61 97 115 86 175 193 190 73 32 66 67 64 87 80 50 51 35 41 59 68 68 79 79 60 68 56 72 77 64 68 62 40 29 42 55 52 28 58
12 14 20 18 26 36 52 64 58 73 95 144 115 122 199 241 151 88 58 49 55 70 98 69 88 73 74 77 75 67 60 42 53 59 81 86 85 75 64 57 46 49 56 39 58 39 52
16 23 23 12 29 46 48 49 66 70 121 161 130 152 239 263 134 137 112 75 63 103 143 137 107 73 108 97 87 102 70 45 54 55 72 72 81 73 47 39 31 23 36 59 63 28 56
18 18 15 19 31 41 45 55 60 67 76 174 141 152 235 315 204 143 92 115 79 66 85 143 115 37 163 159 115 101 78 54 54 43 67 70 60 63 60 52 28 51 69 45 35 49 54
13 21 34 45 65 74 69 81 81 61 45 106 185 136 181 355 292 118 131 105 82 55 112 59 155 103 115 116 143 100 98 88 79 67 104 80 74 61 59 40 28 12 28 52 53 52 51

GFSGBSN_con_3kmhel_072.txt.gz
Helicity
47 54 72 43 41 49 34 41 31 34 27 30 42 67 75 36 36 31 32 19 24 14 9 2 4 24 50 43 67 202 358 134 87 52 45 99 147 174 176 154 167 204 74 83 115 13 -103
48 56 57 46 44 45 27 35 23 30 29 24 33 64 86 53 35 34 41 29 9 9 -4 -12 -9 -14 5 84 49 75 168 145 167 60 59 89 101 174 153 156 167 131 138 174 142 113 46
50 56 56 38 49 42 22 18 32 30 27 24 27 52 66 31 36 40 30 21 -17 -26 -17 -20 -10 -27 6 44 48 116 107 212 220 72 76 55 78 120 147 154 148 133 99 119 98 69 55
52 52 51 38 45 39 17 13 29 36 34 19 30 28 46 30 17 30 21 15 -2 -10 -19 -10 -16 -8 -0 55 69 59 22 144 214 57 82 56 111 100 151 136 181 140 143 104 82 86 98
55 52 51 34 43 37 16 8 23 44 44 19 23 20 27 30 27 11 12 17 8 7 12 6 -20 -4 26 58 56 78 44 109 152 27 91 129 91 112 148 168 240 164 146 123 126 99 133
52 54 50 36 34 41 18 4 19 31 41 23 22 23 9 7 23 12 13 24 17 11 2 14 5 21 21 40 46 42 87 80 77 39 105 132 141 130 144 169 170 197 187 187 183 145 128
50 54 50 38 30 41 15 2 14 19 30 27 22 19 9 2 -3 26 23 42 49 38 35 28 23 36 59 59 49 64 84 86 125 132 108 81 149 49 124 167 109 139 153 95 126 124 142
50 50 46 35 27 36 14 -1 10 19 20 27 20 13 11 13 8 24 59 72 16 34 57 -23 1 19 21 39 56 105 102 139 126 128 147 124 74 84 93 125 128 89 104 89 94 88 100
52 48 41 32 20 31 17 -0 1 16 19 21 21 10 8 27 23 64 85 115 54 31 75 114 85 27 9 42 57 88 128 115 37 36 71 167 92 106 107 91 102 132 100 84 88 116 82
46 45 41 27 13 21 18 1 -9 2 22 19 9 7 -4 1 77 94 99 64 70 41 87 56 29 32 15 40 73 88 107 110 30 74 177 192 61 64 85 63 106 121 69 77 106 96 90
44 40 38 23 7 10 18 7 -7 -8 13 24 16 6 15 30 96 104 82 75 41 47 48 47 71 34 59 57 63 64 65 108 17 143 156 154 117 86 83 107 116 68 95 95 107 130 115
39 40 35 22 5 6 15 13 2 -0 3 12 9 12 32 65 89 106 77 41 41 29 -2 113 70 59 49 29 22 -18 54 123 100 42 120 203 228 186 140 163 163 89 115 158 152 204 162
42 35 30 23 7 3 8 9 10 6 2 3 -0 30 52 65 64 64 81 74 72 53 32 59 75 46 28 4 -26 -23 117 110 106 140 122 182 209 176 156 169 158 127 158 162 142 149 121
49 38 30 19 7 2 -5 -0 5 7 2 3 17 37 64 60 43 21 38 56 61 30 21 35 55 81 36 37 59 33 38 32 62 78 174 130 121 115 113 131 88 133 160 164 134 148 135
53 37 26 19 10 -2 -8 -5 -6 -2 15 -1 35 57 45 52 88 44 43 19 22 37 26 7 36 32 45 25 -12 5 -21 21 68 64 80 114 117 111 86 120 96 141 138 143 169 163 116
52 34 27 18 4 -2 -7 -7 -4 3 14 -3 80 70 19 63 86 46 42 12 3 15 22 17 1 6 -2 -4 4 20 11 10 23 25 34 39 62 87 93 112 127 119 178 223 234 124 113
43 28 25 15 4 -5 -8 -2 1 -0 11 14 58 81 39 79 42 42 57 25 9 29 27 13 1 -27 -27 -14 16 7 9 -19 5 61 63 43 62 46 80 94 92 128 149 263 248 228 190
35 17 18 7 -2 -20 -36 -50 -39 -22 -9 32 25 83 49 71 44 24 43 42 25 13 10 -4 4 -17 -23 -6 11 10 17 29 23 10 45 38 51 77 91 70 67 98 76 154 181 210 209
16 6 7 -16 -46 -87 -111 -124 -110 -101 -60 63 50 35 42 54 81 33 16 36 54 45 28 16 8 1 -7 3 6 11 18 16 45 32 17 41 62 81 64 63 76 106 101 118 211 215 149
8 -5 -19 -47 -57 -84 -106 -127 -137 -136 -114 48 24 44 55 64 52 65 48 33 36 47 45 27 28 17 22 12 14 15 22 44 51 52 55 63 55 45 41 31 65 89 103 106 149 144 185
-4 -26 -40 -41 -39 -53 -72 -85 -93 -105 -82 33 -47 -21 56 87 115 69 66 60 56 26 37 59 65 58 54 38 28 14 39 54 62 65 65 65 34 54 37 48 54 53 95 127 132 106 93
-23 -23 -32 -17 -12 -28 -45 -50 -51 -67 -51 14 -25 -3 34 38 102 127 97 98 84 54 51 59 50 67 69 43 42 39 47 45 35 71 68 73 49 72 63 54 57 68 62 67 81 144 -28
-9 -9 -22 -3 -4 -15 -18 -25 -27 -9 10 23 -5 30 77 26 51 123 199 152 82 49 37 52 66 48 59 49 57 58 49 44 47 44 56 68 69 81 57 85 90 66 35 92 122 134 116
-0 2 -17 1 -1 11 12 13 15 22 49 43 36 71 93 82 101 93 139 121 59 47 35 42 55 42 38 54 47 58 56 51 47 58 74 73 86 81 44 88 77 43 69 80 101 125 154
16 -0 -3 10 7 23 27 33 34 37 71 79 69 98 117 148 146 99 130 147 44 18 26 20 29 44 51 73 89 68 67 58 49 64 84 86 119 96 79 58 9 -6 53 75 81 33 123
17 4 10 14 24 35 45 40 35 47 73 89 78 107 132 156 147 237 131 196 127 66 18 46 74 102 99 96 98 89 79 65 51 69 104 109 92 98 80 69 44 38 75 63 67 30 40
13 9 15 29 36 40 47 31 31 55 72 94 87 118 163 151 147 295 272 282 130 95 28 46 77 80 102 128 121 125 114 68 72 58 65 131 138 87 72 45 29 32 36 43 57 34 29
29 27 31 37 41 46 51 38 39 68 96 117 102 100 166 197 188 178 196 176 119 104 67 55 27 61 75 113 151 129 118 105 102 63 69 102 88 93 80 57 33 38 78 51 32 44 40
22 30 48 46 49 56 51 40 57 105 131 143 129 98 121 248 368 316 196 110 132 88 114 95 106 50 202 116 120 164 162 165 127 99 115 71 85 79 59 34 30 16 29 35 42 42 42

GFSGBSN_con_3kmhel_075.txt.gz
Helicity
45 54 55 46 49 39 20 19 29 27 24 34 27 47 46 21 24 27 30 23 25 21 -7 -17 4 6 20 39 67 124 330 168 98 63 83 110 162 173 206 186 173 201 95 81 136 170 139
46 51 47 42 47 43 22 20 21 31 31 28 23 38 34 43 24 28 27 11 -15 1 -22 -35 -29 -17 3 50 22 86 277 133 128 62 60 85 116 167 169 161 150 146 97 69 -30 -2 21
44 46 45 40 39 43 21 21 25 36 32 32 22 23 32 38 56 21 18 -0 -28 -14 -11 -13 -13 -25 -16 -1 8 73 135 151 270 90 66 64 115 156 173 153 123 139 125 62 -6 67 23
46 45 46 36 36 43 25 17 23 25 37 32 24 24 13 10 31 19 19 11 -3 -3 1 6 7 11 -14 19 51 26 43 195 207 110 39 79 144 134 170 155 185 145 170 81 24 74 49
50 47 48 37 35 38 21 13 17 19 32 31 25 26 12 -7 -8 13 29 24 14 3 8 3 -7 -8 7 43 39 39 34 92 80 124 73 86 132 106 169 157 202 200 137 112 79 32 88
54 48 49 36 33 34 17 11 15 11 27 23 29 33 13 -3 -22 -22 12 42 31 19 14 20 24 1 20 28 33 47 45 49 81 98 52 64 128 157 183 174 119 224 190 150 96 68 86
53 50 48 36 28 29 11 6 10 13 20 22 23 32 35 2 -3 -29 15 43 70 52 48 15 1 20 35 66 32 69 76 77 143 106 118 109 172 87 160 165 115 135 143 108 124 91 103
51 52 45 35 24 25 19 8 4 9 18 25 18 16 17 37 -0 27 77 109 64 77 58 12 -6 11 19 26 42 85 84 153 115 64 157 165 101 106 119 146 117 109 100 99 107 104 95
53 50 45 36 21 19 21 9 1 4 11 26 19 16 24 31 44 80 118 125 38 44 67 49 37 21 31 24 59 94 99 69 65 94 127 141 104 117 127 149 120 120 100 74 96 99 71
51 45 40 33 22 16 17 12 7 3 9 15 9 23 23 50 114 106 115 78 45 15 80 61 57 39 33 37 84 83 110 119 50 73 172 139 62 90 78 104 107 107 93 93 78 103 97
46 41 34 29 21 16 12 8 2 2 4 4 -11 12 40 67 108 125 101 67 33 23 39 59 60 70 19 78 55 112 83 141 108 46 89 114 74 99 80 76 83 95 106 82 78 89 42
48 35 33 25 18 17 10 4 -5 -6 -4 3 -32 12 70 86 69 61 85 53 28 24 36 25 36 4 23 41 78 87 107 115 95 91 89 144 186 129 84 118 103 77 110 150 125 76 46
47 38 32 21 17 12 10 4 -2 -8 -14 -15 -15 27 87 83 74 60 69 54 35 55 9 18 16 -8 -10 -11 22 75 62 34 13 151 120 187 182 146 168 157 142 94 110 112 118 115 41
48 39 30 16 9 5 6 7 -0 -15 -22 -20 -15 65 62 73 76 73 40 41 83 21 20 4 38 -6 -19 8 26 52 52 27 12 33 151 143 138 117 153 152 99 131 83 123 109 59 53
49 35 24 16 6 -2 -4 8 12 -9 -3 -18 34 51 55 52 97 63 59 86 56 32 2 2 1 32 -33 -33 -26 13 6 35 52 53 57 73 107 133 148 184 167 141 124 124 137 120 92
46 31 17 12 3 -12 -14 -11 -7 -17 -16 -15 67 57 41 61 78 58 69 66 37 33 20 20 4 -0 -9 -47 -48 -35 -21 19 45 38 94 52 79 103 118 124 173 164 172 150 162 98 88
44 29 10 -0 -29 -64 -56 -59 -77 -37 -40 -3 59 77 50 54 47 68 149 68 42 33 43 24 9 -10 -9 -5 -16 -14 -25 37 41 60 90 72 86 127 144 146 125 157 125 135 144 176 99
43 22 5 -32 -78 -101 -112 -107 -107 -100 -80 5 40 44 35 38 104 121 190 98 57 53 43 20 17 -0 -9 12 17 -4 -1 41 26 77 79 76 76 73 93 86 87 93 120 176 204 202 282
33 11 -9 -53 -75 -90 -95 -109 -128 -140 -104 -20 -28 -8 14 63 82 82 122 149 86 62 64 51 35 26 10 2 18 22 19 32 37 32 44 85 73 67 77 116 122 109 128 152 172 177 124
23 -1 -20 -32 -50 -60 -62 -71 -91 -100 -83 -19 -19 -23 4 59 74 102 148 181 156 60 44 58 55 50 45 25 21 29 30 37 52 40 53 53 57 49 37 33 66 107 114 127 149 112 173
20 -7 -8 -16 -17 -38 -51 -50 -48 -46 -16 17 7 18 33 40 70 101 135 171 214 173 57 43 50 73 70 62 48 29 40 57 62 78 92 91 36 62 48 32 54 40 85 94 56 89 119
20 -0 4 5 -9 -22 -33 -14 3 10 22 30 55 56 60 54 77 80 136 215 220 221 211 99 58 63 59 40 58 52 47 62 58 103 109 114 63 67 56 58 48 44 49 64 93 77 102
16 6 20 16 5 3 -9 12 24 53 40 49 24 41 93 81 106 115 147 196 194 210 98 81 125 118 90 43 45 63 49 54 67 74 100 117 96 90 47 85 86 56 8 91 134 136 164
29 25 25 18 11 21 12 23 30 47 41 30 36 63 99 96 147 150 159 167 178 222 305 4 4 50 76 58 47 48 61 49 55 67 106 125 136 109 62 78 69 43 71 52 76 88 138
39 37 36 26 26 33 28 37 35 40 44 48 38 74 121 126 165 113 187 223 189 202 243 93 9 39 55 47 67 65 78 67 59 72 94 117 148 107 86 73 44 -21 34 62 64 17 52
34 31 42 49 33 47 41 51 47 42 51 48 64 78 123 169 158 203 224 239 328 254 197 89 35 85 68 101 124 108 74 70 29 77 143 147 134 147 127 81 26 20 59 55 65 27 38
36 32 40 52 38 45 44 52 58 61 69 71 83 112 136 153 163 251 264 275 226 224 186 33 -14 26 74 90 85 185 124 87 59 59 88 146 168 148 130 86 21 34 31 43 71 48 54
40 34 36 59 48 35 31 40 65 82 95 94 87 132 168 168 158 332 191 242 228 237 168 33 -41 45 65 59 77 162 126 107 113 79 91 124 88 151 133 81 12 40 87 59 40 37 43
34 32 31 65 59 35 27 32 69 95 101 114 73 129 147 236 240 308 143 92 98 105 91 63 51 51 76 94 146 138 125 135 146 125 140 104 92 107 83 38 41 12 31 43 36 36 37

GFSGBSN_con_3kmhel_078.txt.gz
Helicity
19 33 41 45 41 34 21 15 19 28 9 19 26 35 26 25 47 47 43 40 10 -0 -2 -7 -7 2 20 40 71 83 127 138 154 94 69 124 137 188 191 181 191 197 155 171 173 134 72
22 29 42 51 48 39 27 16 26 26 15 14 30 33 40 40 50 31 31 13 -1 -11 -22 -12 -14 -26 -19 19 22 64 75 179 127 62 66 106 101 156 152 201 165 142 166 139 175 153 166
29 31 51 55 50 37 23 18 21 15 12 10 25 37 33 32 37 33 22 16 3 -5 -12 -8 -1 12 -25 -14 8 93 94 150 158 82 88 71 120 187 185 178 157 164 185 199 146 115 99
35 35 53 54 49 39 25 24 22 15 21 10 19 39 35 21 9 13 8 11 12 14 9 7 10 22 9 4 3 33 111 105 138 127 71 68 128 189 180 184 204 169 184 150 145 60 71
34 36 45 49 44 38 32 21 23 19 14 15 15 26 34 25 4 -9 -23 10 19 28 23 7 18 26 23 19 26 26 108 121 96 80 106 57 140 204 192 203 231 197 167 160 120 50 57
32 35 41 43 39 31 29 21 19 17 15 17 10 11 30 26 24 -7 -10 15 23 29 49 29 40 22 15 15 30 43 31 85 159 94 139 122 144 196 224 230 170 195 215 174 143 51 47
37 31 36 36 34 30 31 29 23 18 14 16 21 10 20 28 39 31 51 40 37 51 53 67 27 43 45 41 32 49 15 86 193 145 155 74 152 155 186 193 134 174 179 142 99 54 61
47 31 32 32 29 24 26 28 24 22 21 15 15 21 19 32 44 84 90 116 54 37 68 40 18 30 48 32 48 53 53 215 204 128 126 112 143 122 111 164 133 140 157 134 111 61 52
49 31 28 30 29 22 28 27 25 26 25 14 1 19 37 36 59 115 128 103 35 9 28 50 33 12 40 48 36 72 93 209 127 37 69 105 125 112 129 134 146 159 121 133 100 103 101
48 34 24 24 27 24 22 21 21 19 23 14 -6 10 45 57 109 124 140 80 26 -7 87 53 59 32 31 59 53 57 111 137 138 112 121 65 99 92 98 140 122 155 113 80 104 139 95
42 37 26 22 20 20 16 17 17 15 14 13 -11 12 56 81 118 117 114 64 24 15 92 54 62 16 18 35 38 68 124 128 89 33 136 86 94 131 119 104 117 105 113 99 98 102 106
44 40 29 27 18 12 18 12 16 14 10 -0 -7 29 92 100 88 88 96 58 23 75 80 46 23 31 16 48 34 31 125 91 35 38 32 129 120 123 74 122 103 82 136 144 112 98 18
44 43 33 26 21 12 19 18 14 17 6 -9 5 45 96 103 99 96 83 56 98 130 46 43 24 12 3 -10 30 65 77 98 63 117 157 133 119 99 119 142 125 115 141 146 113 86 13
37 36 34 23 18 12 9 23 13 11 -3 -9 35 93 75 80 83 90 59 71 205 67 41 30 37 8 3 -9 24 67 81 113 80 54 76 86 86 79 95 104 68 118 98 152 120 69 17
39 31 21 16 10 -4 -11 -11 2 2 -2 8 96 45 65 55 86 58 95 143 135 68 53 46 46 31 7 -8 -40 35 55 99 47 89 59 77 107 134 117 136 143 123 129 114 136 94 56
42 33 18 4 -11 -34 -44 -57 -35 -26 -27 44 88 68 47 39 73 75 135 117 71 38 46 51 64 44 28 4 -29 -11 65 29 28 59 49 74 81 101 129 122 162 138 153 165 167 72 37
46 35 9 -9 -40 -58 -67 -88 -83 -73 -54 55 43 26 38 57 75 116 117 115 77 47 49 53 37 39 32 22 12 -27 -47 71 63 68 67 53 67 75 90 102 134 202 179 197 182 154 61
55 33 2 -30 -59 -66 -88 -107 -95 -84 -36 18 40 13 27 70 66 96 99 109 91 76 67 37 25 21 27 44 27 28 8 21 50 83 84 81 82 41 86 132 136 125 130 142 152 102 128
63 31 -1 -31 -43 -51 -67 -84 -72 -56 -0 39 40 14 23 64 46 23 68 78 99 90 81 75 58 35 21 40 46 43 42 48 48 74 79 124 113 105 84 113 120 123 125 104 126 106 91
62 34 10 -14 -13 -33 -54 -65 -48 -19 24 32 64 35 18 60 47 67 57 81 85 110 104 113 81 42 22 -0 61 70 51 50 58 52 51 86 119 86 85 69 106 109 120 119 154 157 133
63 51 22 7 7 -21 -34 -40 -16 -17 9 47 54 53 60 56 59 77 99 129 106 144 151 119 105 86 50 3 6 80 70 74 73 67 104 80 45 60 36 45 64 60 72 96 113 123 130
75 41 23 16 17 4 -9 -12 -3 4 42 60 75 77 76 100 99 100 112 147 152 154 237 161 183 84 58 -2 13 62 81 76 59 106 125 118 70 65 50 55 46 57 61 68 87 15 7
95 63 42 34 31 28 15 20 21 31 46 65 56 54 86 104 143 167 164 167 211 228 228 185 237 159 29 17 111 80 67 78 63 73 111 136 110 80 21 61 56 -23 4 50 172 180 178
110 82 58 39 40 35 23 39 34 58 61 61 65 89 100 114 153 198 245 224 216 211 413 143 108 177 19 4 103 114 68 72 71 82 104 114 132 108 53 67 6 33 65 64 64 44 171
123 99 64 47 40 41 27 46 53 73 66 45 42 88 97 115 174 180 279 265 230 195 306 268 156 94 10 -106 -77 64 84 74 73 76 111 132 143 117 98 84 48 -9 30 54 83 44 45
141 109 56 35 37 43 35 54 68 79 70 53 50 48 104 132 140 223 258 255 269 336 379 218 100 -39 2 -16 -36 -74 103 98 28 91 151 191 187 136 149 98 40 42 71 49 49 39 48
165 117 63 41 43 45 44 45 68 84 95 77 65 46 89 113 138 212 193 257 300 386 410 193 61 45 39 20 -3 -12 46 51 66 50 77 161 185 144 165 123 50 31 61 72 72 41 55
139 104 72 44 53 41 39 38 57 80 85 91 65 50 82 104 121 104 188 215 300 355 306 135 35 31 22 11 -12 68 28 89 177 105 100 116 77 112 169 101 14 63 115 76 54 60 45
136 105 78 53 51 40 31 39 41 61 70 101 90 66 82 92 110 167 116 122 184 189 162 193 98 26 38 24 47 48 72 62 112 118 147 115 113 87 74 81 72 36 14 33 46 44 44

GFSGBSN_con_3kmhel_081.txt.gz
Helicity
25 37 35 39 38 32 21 20 23 26 24 23 41 39 35 40 56 47 48 23 8 9 10 18 16 -4 1 12 26 29 87 108 266 117 69 116 160 183 218 157 199 198 139 174 172 158 159
20 34 44 45 34 38 29 19 19 22 21 21 46 57 34 38 43 37 42 40 11 -1 -1 14 14 19 14 26 39 55 117 65 188 106 102 88 81 160 176 138 148 182 138 112 118 120 112
17 27 47 45 32 31 37 24 20 20 30 31 38 51 44 27 32 31 28 37 20 -0 -0 11 17 39 27 7 52 70 77 78 129 93 98 102 98 155 186 144 175 131 192 190 185 129 57
16 24 35 45 38 26 27 37 25 19 27 39 39 40 49 37 26 19 19 30 33 19 6 10 20 34 23 -0 38 76 88 83 144 104 90 59 110 137 179 189 211 147 175 129 152 130 141
22 25 32 39 38 24 30 33 31 22 24 38 46 45 44 38 34 19 7 41 36 32 19 7 25 26 18 17 59 58 75 99 158 118 66 61 130 145 180 167 235 198 145 159 160 127 111
34 29 30 35 35 31 24 27 36 29 30 32 44 54 46 41 41 30 13 49 49 52 30 13 42 29 13 52 46 66 129 117 128 139 113 52 150 149 167 195 167 218 173 168 134 93 111
38 35 31 31 35 34 25 26 28 33 31 35 37 51 59 55 46 45 59 59 66 33 35 32 27 32 46 74 34 32 86 101 139 140 73 110 135 132 147 159 147 181 157 117 109 92 127
41 38 33 29 37 37 31 26 27 30 28 33 35 48 60 72 61 77 92 131 94 38 54 54 26 38 53 63 13 46 54 104 138 103 124 116 78 114 132 134 137 178 144 110 104 58 66
44 38 34 23 34 39 33 26 27 28 25 28 31 43 61 76 64 104 128 119 33 24 81 53 50 38 48 49 8 67 83 182 121 67 146 139 81 85 135 156 164 178 134 125 79 93 107
46 37 30 18 24 34 27 30 30 29 28 27 29 43 68 81 107 104 114 71 28 1 111 85 60 42 51 56 48 63 137 169 143 79 80 135 93 107 120 132 122 132 108 100 99 110 97
53 38 30 20 9 25 27 25 31 29 27 25 23 52 81 99 114 105 90 51 8 15 166 68 56 30 42 30 26 56 164 161 88 66 58 34 73 83 107 97 104 122 99 78 100 115 119
59 43 35 28 7 12 22 25 25 24 22 21 25 67 109 87 81 74 90 55 21 113 110 66 38 17 40 37 9 21 138 127 133 65 123 91 112 97 75 130 126 61 141 147 115 106 51
70 52 43 32 13 9 14 20 18 12 7 7 35 79 86 73 87 96 79 68 95 148 54 57 46 40 10 -3 8 44 126 77 -1 99 109 92 122 112 110 141 143 118 138 120 112 98 10
75 66 56 37 12 -0 -2 4 14 -1 -12 5 67 107 64 56 76 92 64 65 89 86 46 47 41 40 36 6 -25 38 68 -15 96 71 103 150 124 98 88 79 84 101 113 130 89 65 55
66 80 68 45 11 -11 -25 -24 -3 -15 -22 37 90 76 42 43 82 71 73 55 103 114 67 57 47 36 47 11 -18 -20 19 31 70 73 88 99 95 97 86 104 119 89 91 96 90 84 58
69 79 75 48 11 -17 -32 -40 -25 -34 -26 46 48 72 45 56 76 76 66 52 81 67 75 78 67 73 31 40 -9 -16 -19 47 69 63 74 37 87 100 100 83 124 93 133 118 132 54 26
79 79 68 42 4 -22 -40 -52 -50 -59 -27 50 10 41 51 75 65 57 39 39 59 76 82 101 74 48 35 23 26 -27 -22 52 57 79 103 89 103 93 104 107 118 155 143 153 132 122 54
86 79 65 36 -4 -24 -38 -42 -53 -56 -10 27 23 34 62 72 35 39 53 68 65 69 96 79 59 53 45 16 -0 -37 -41 41 39 129 92 86 111 103 101 96 110 119 105 126 130 69 116
100 80 60 32 -7 -19 -22 -21 -40 -39 7 36 48 40 9 52 59 30 19 38 63 94 100 129 123 84 64 54 22 -5 31 56 67 93 86 124 91 133 64 115 130 119 144 162 185 145 80
114 79 61 30 -5 -11 -11 -12 -20 -29 19 42 62 55 21 60 49 67 51 68 69 86 130 116 126 127 122 81 61 11 51 48 54 73 73 117 125 123 93 57 88 139 134 136 156 153 115
111 88 72 36 6 -3 3 17 3 -16 28 43 38 56 59 86 94 110 97 116 129 140 139 176 210 217 160 143 77 55 36 81 65 61 85 61 67 103 105 100 90 75 87 119 144 116 153
112 98 76 41 19 23 29 38 22 -3 31 50 81 83 77 105 119 137 131 158 174 185 241 276 336 234 189 197 113 62 97 102 80 113 120 119 67 70 91 80 64 75 75 93 100 90 64
132 113 80 61 35 43 54 68 36 20 23 66 57 87 121 102 139 149 134 181 222 248 216 285 354 361 160 127 48 26 99 74 45 64 120 133 101 71 40 76 51 -20 19 129 155 178 187
156 133 95 77 61 75 87 88 67 74 43 64 68 110 137 108 162 164 169 159 173 243 332 270 193 325 217 106 2 -90 -28 106 81 69 109 91 118 104 49 49 -2 18 74 49 62 18 137
193 123 112 89 80 83 97 98 81 101 62 66 54 107 132 131 159 140 136 154 187 202 296 285 191 183 73 43 27 -170 -253 44 46 129 98 145 114 82 68 66 27 3 25 53 78 33 11
234 173 104 116 81 80 89 83 71 72 75 63 65 79 122 145 100 120 110 154 188 209 239 172 76 38 63 81 23 -52 -197 29 35 50 123 151 126 113 93 51 -12 14 44 28 39 48 40
242 221 140 129 93 87 79 75 68 64 56 61 64 58 107 108 72 102 85 131 172 198 216 163 87 67 39 53 41 29 -135 21 89 58 57 134 136 78 107 77 69 43 100 62 60 35 47
243 227 141 124 105 78 76 77 67 66 65 72 49 37 74 74 33 69 98 141 141 197 221 123 77 76 57 63 26 -10 -39 -2 60 45 61 101 97 116 131 86 53 126 169 108 35 47 28
258 269 141 115 96 83 83 73 59 56 66 60 63 31 73 55 37 55 53 154 157 219 123 80 67 35 53 51 35 -0 -45 30 66 63 151 130 87 70 61 21 23 9 16 7 32 26 23

GFSGBSN_con_3kmhel_084.txt.gz
Helicity
7 8 13 17 18 19 35 29 24 21 29 31 33 57 55 71 60 55 51 48 34 21 12 15 5 -2 -41 -6 7 41 96 136 226 160 219 144 70 127 185 154 112 149 107 133 135 150 135
18 12 14 22 15 21 28 34 30 26 32 39 42 58 51 56 57 57 44 44 46 35 22 17 7 10 20 24 17 1 38 121 209 136 185 94 87 135 134 124 84 113 73 128 140 143 124
36 26 16 23 25 21 21 28 35 31 25 41 44 50 62 47 44 45 27 34 40 50 32 21 8 20 29 8 29 63 49 51 238 123 127 96 133 138 150 120 161 96 125 99 121 112 88
41 37 26 25 28 17 19 27 36 36 37 39 46 46 64 62 41 40 16 24 33 46 32 8 10 12 25 21 40 47 85 70 214 102 88 38 141 157 184 181 147 76 80 82 74 79 67
45 47 35 32 27 24 18 21 31 35 36 30 39 43 46 64 46 38 14 14 40 40 23 9 30 23 34 37 59 85 87 100 139 81 73 46 60 166 154 136 132 102 79 71 48 100 86
62 60 44 37 29 25 17 19 29 34 34 39 38 45 36 61 52 36 19 25 24 41 40 36 62 43 26 46 72 108 80 106 138 84 68 117 87 129 142 130 111 112 91 66 59 73 73
88 56 60 50 33 23 20 18 26 33 36 41 38 43 34 58 61 47 55 40 59 62 37 38 24 12 22 56 72 97 102 121 136 103 108 139 146 105 91 133 212 85 58 64 88 86 73
86 52 66 63 46 28 25 22 21 24 27 29 31 43 39 63 65 83 77 94 56 19 83 48 39 34 45 62 105 115 84 71 127 26 -11 77 115 108 103 109 140 124 82 61 75 66 68
80 51 62 75 56 36 24 25 20 17 23 28 35 40 36 66 81 114 111 83 4 4 34 40 44 42 36 63 92 138 110 76 25 21 34 35 67 100 100 121 106 103 54 53 82 56 51
100 65 56 84 69 45 32 26 20 17 23 27 37 39 46 66 103 120 113 55 -3 -13 72 34 54 48 43 76 48 103 117 96 104 31 104 58 46 36 111 100 76 70 108 84 57 26 63
115 64 52 81 75 50 35 25 21 18 24 28 37 42 58 78 127 105 94 34 -11 9 81 61 53 47 47 16 -4 28 101 96 23 35 126 90 39 28 56 80 78 92 82 66 93 70 78
112 71 52 71 69 49 32 27 20 9 16 26 35 56 97 89 78 85 91 41 19 51 62 52 37 38 26 6 2 33 111 137 92 84 60 62 79 61 70 98 103 81 90 88 73 67 48
115 77 52 59 59 40 17 17 13 -0 1 13 41 51 67 76 86 83 73 46 54 18 46 83 47 45 23 -3 -11 -28 -22 13 75 36 53 98 88 81 83 76 102 93 76 116 78 75 57
128 84 61 45 45 29 8 5 -1 -9 -11 5 75 75 62 62 70 71 49 47 -16 61 54 41 51 36 44 28 -4 -29 -78 -79 -35 79 71 89 97 92 76 67 85 51 70 135 86 47 34
147 94 72 42 30 18 7 -2 -16 -11 -3 48 88 36 51 66 79 55 46 16 22 78 70 62 64 33 48 53 3 -15 -46 -122 -93 -12 59 50 91 124 120 98 109 85 107 141 97 67 40
171 116 78 49 25 10 1 -2 -11 -4 10 60 32 17 25 61 68 49 20 24 34 73 88 79 83 55 39 60 43 10 -17 -50 12 14 58 39 78 93 106 114 120 127 94 94 111 56 34
192 136 84 56 31 5 -4 6 -6 -8 21 68 11 12 23 53 36 24 50 35 34 72 96 105 100 121 97 65 39 35 10 8 76 75 108 48 63 77 93 101 108 135 92 114 118 101 82
211 153 94 60 39 1 -8 10 1 -6 36 41 9 12 43 33 13 13 56 48 39 62 102 86 97 116 129 146 97 40 19 13 56 102 130 111 87 54 50 84 94 69 52 58 83 37 69
211 163 101 68 42 3 -5 7 -1 -10 5 26 6 22 7 19 51 46 47 60 55 80 118 114 150 160 149 155 149 79 22 46 51 62 57 121 79 110 83 102 110 100 74 74 51 124 84
245 169 111 76 51 13 -1 13 5 -10 4 20 6 22 39 47 51 57 62 108 112 121 131 118 192 229 237 149 112 90 68 43 34 53 96 63 131 116 81 102 88 118 67 65 113 120 54
230 154 104 80 60 22 18 24 20 2 14 12 6 26 36 70 87 86 79 114 143 155 185 195 303 335 376 284 99 26 50 5 66 69 108 110 77 107 117 126 117 78 30 47 96 80 70
233 145 115 76 63 44 32 24 36 25 34 33 52 51 66 98 109 108 111 141 151 168 207 243 325 396 287 284 94 64 42 29 48 82 74 85 106 67 81 105 105 88 76 69 40 20 8
166 96 96 76 74 63 56 57 50 35 18 45 40 50 64 112 130 115 127 147 163 204 188 229 357 426 191 106 73 19 17 -84 75 126 90 78 77 55 22 39 63 61 42 38 64 63 48
163 153 109 90 92 76 87 99 89 50 22 50 50 71 90 117 111 122 142 156 155 185 209 212 261 260 197 41 6 34 15 -86 -51 25 43 128 100 86 75 43 18 35 63 41 24 6 21
191 175 154 97 97 102 121 136 123 87 49 65 69 72 92 121 131 100 104 127 101 138 207 234 203 106 1 23 65 52 39 -106 -105 38 -6 24 82 80 70 49 63 41 18 47 42 40 14
207 189 141 131 114 120 137 159 145 151 129 140 96 68 79 107 71 129 100 125 120 131 110 197 82 37 32 58 58 58 -14 -107 -91 37 120 123 82 84 76 50 -5 28 25 6 30 28 22
234 192 194 147 134 134 175 156 131 117 105 102 98 75 76 95 57 74 58 119 139 128 116 110 58 58 35 54 64 49 -9 -115 -42 -4 73 89 85 66 55 41 27 34 78 47 7 57 53
314 243 225 242 202 135 169 141 134 121 104 108 97 65 55 55 5 -12 87 122 110 123 107 111 57 43 21 67 68 67 24 -44 -84 -25 18 31 39 48 53 47 37 81 151 89 72 55 40
357 262 270 301 157 159 151 136 127 115 104 86 103 37 59 24 44 31 23 97 80 100 124 95 50 27 32 34 60 47 32 4 -38 -87 64 48 88 66 43 42 45 -17 12 6 27 22 21

GFSGBSN_con_3kmhel_087.txt.gz
Helicity
-0 9 22 18 10 14 11 29 22 23 20 35 38 60 71 55 58 58 38 36 53 52 27 8 2 -0 30 -9 -17 7 93 88 184 173 190 156 92 148 137 103 66 49 176 152 211 150 70
10 2 18 26 25 25 19 20 21 25 20 40 34 51 60 62 36 42 25 34 49 53 26 9 4 3 28 24 -17 -41 -12 96 221 161 137 165 155 104 191 90 71 64 25 119 147 87 94
35 22 10 27 38 36 31 26 23 29 25 28 44 44 54 65 44 29 19 13 46 49 18 9 8 17 28 -16 -2 -7 41 101 219 143 119 155 219 189 156 175 96 73 69 65 29 40 109
54 50 22 26 41 47 43 36 33 32 30 28 38 46 44 49 54 29 12 3 47 48 13 17 2 15 41 5 34 13 28 110 120 117 112 176 132 268 223 101 125 88 64 95 61 145 106
85 71 50 36 50 48 50 43 33 37 27 31 35 39 41 38 43 30 6 -11 42 51 9 27 31 2 31 21 49 55 55 83 67 71 116 97 104 160 188 113 127 138 92 64 37 54 81
109 85 72 56 58 52 56 48 48 36 30 31 37 37 41 34 36 38 4 1 16 39 85 53 50 62 -5 33 71 99 24 106 40 27 55 140 191 121 132 120 120 83 142 52 59 20 84
150 103 102 73 59 52 59 52 48 36 34 34 37 33 43 32 34 41 28 38 74 88 24 26 17 27 18 64 88 40 63 49 26 12 50 142 122 90 101 114 220 54 86 59 60 61 20
151 110 99 79 74 51 53 52 48 39 39 39 36 35 39 36 36 47 47 43 -13 -17 54 37 37 43 36 70 60 62 135 102 85 41 -8 75 55 57 87 91 180 126 84 103 97 75 46
167 105 97 88 80 53 45 51 47 38 40 36 36 34 37 42 37 71 57 38 -39 -20 1 52 46 20 13 -8 23 38 100 90 47 73 64 75 117 150 121 125 156 151 100 64 83 26 44
175 102 101 96 76 52 44 40 43 38 36 33 31 32 49 46 43 76 71 27 -27 -20 53 35 54 37 43 34 -7 54 96 105 74 71 1 111 75 80 87 91 109 72 133 115 59 65 120
187 139 108 103 70 51 38 32 34 34 31 30 25 34 55 47 74 64 63 11 -13 21 8 38 36 30 19 -59 -23 -39 61 66 35 -8 42 23 31 -16 50 101 92 141 76 110 85 62 111
222 191 143 119 63 47 29 21 28 24 18 20 10 40 66 60 56 71 48 15 26 29 37 37 14 8 -0 -17 -21 -31 -9 65 82 63 120 51 77 42 53 97 134 77 69 86 72 97 67
198 222 170 134 66 42 27 14 19 9 3 -6 13 46 49 32 52 59 45 48 52 12 40 63 46 32 11 19 11 -13 -27 -12 -28 8 69 102 59 92 107 41 119 99 90 125 108 120 64
238 236 146 141 73 45 29 7 12 -4 -7 10 48 43 37 29 48 45 37 50 26 33 62 39 54 36 36 69 22 19 -5 1 10 102 55 85 92 59 49 84 89 86 81 149 91 71 58
196 286 146 140 77 47 27 11 9 1 -1 64 68 9 27 46 45 25 17 31 42 45 65 53 81 61 93 82 44 35 7 -5 13 71 71 78 88 109 102 92 112 54 80 98 170 176 232
221 207 147 139 79 50 29 14 10 11 15 61 29 4 22 36 29 17 3 38 34 48 58 59 60 86 81 171 104 66 38 8 7 18 48 80 83 73 109 106 59 116 105 123 155 140 89
152 269 165 148 93 63 31 16 12 14 14 16 19 7 24 29 8 -1 50 51 42 57 58 66 60 94 98 109 124 110 60 9 -33 -11 27 78 126 61 112 84 68 88 125 134 122 91 109
143 359 179 150 112 72 30 17 13 16 36 -3 15 9 26 11 14 12 49 53 50 66 93 78 70 121 142 136 91 125 59 25 -6 50 123 87 60 115 35 71 59 56 31 63 95 91 75
149 185 205 162 127 81 27 17 20 28 33 10 -5 15 11 1 40 53 48 58 70 100 112 149 165 196 172 178 186 89 60 18 -15 52 97 216 128 114 71 77 75 128 92 58 32 59 51
207 309 253 169 132 84 34 20 16 17 -16 34 9 22 16 17 24 39 69 83 85 113 113 132 175 210 256 202 94 160 43 12 24 33 50 197 207 171 122 130 86 116 75 78 105 134 80
169 251 234 155 132 78 50 22 23 11 5 10 23 25 20 36 46 63 75 103 97 116 148 173 235 284 267 263 185 56 8 -55 -12 13 32 78 153 139 95 134 88 60 34 43 92 90 94
238 260 291 165 112 55 44 35 41 32 47 32 64 46 41 53 59 76 95 107 101 133 157 169 271 250 249 219 153 44 35 -84 -55 -16 75 69 69 69 64 89 130 82 90 54 25 49 16
302 373 295 214 188 62 68 44 54 54 52 102 48 71 50 67 63 73 91 109 125 143 152 195 301 276 126 71 77 40 40 -32 -89 -121 -49 18 122 112 89 8 38 105 41 64 52 35 33
355 393 254 209 155 81 84 56 47 37 53 97 80 75 80 81 63 75 99 117 111 108 135 230 233 204 161 36 18 23 41 28 -52 -157 -56 79 46 98 47 26 3 66 85 -9 3 19 32
309 440 318 254 165 61 105 68 45 34 52 94 89 71 90 92 79 86 93 72 99 110 143 173 165 110 6 20 69 62 101 58 12 -58 -20 49 41 67 64 31 75 54 37 60 49 37 9
345 322 216 123 103 91 108 76 89 67 78 118 116 94 95 115 87 132 112 79 75 114 159 161 113 41 35 53 59 75 84 7 4 -64 27 42 22 69 78 99 50 78 38 54 58 27 44
420 308 188 140 160 122 118 134 130 110 84 152 153 107 113 146 122 126 93 89 102 99 118 142 108 60 37 56 63 64 36 -32 -55 -43 -43 -2 58 53 36 47 59 55 66 59 30 58 40
362 243 184 161 129 134 130 192 155 169 216 194 203 137 127 159 146 100 109 121 91 77 84 146 114 87 44 53 44 46 42 2 -58 -49 -7 -1 -2 87 50 60 28 98 81 53 78 63 40
416 230 189 169 138 127 162 211 172 161 156 228 209 136 152 170 157 103 121 98 83 88 98 125 123 65 40 33 36 28 50 49 33 -82 5 -31 70 68 63 68 59 -8 22 22 10 39 40

GFSGBSN_con_3kmhel_090.txt.gz
Helicity
35 15 1 4 6 7 22 36 46 55 49 46 38 40 39 54 49 35 40 34 52 46 14 -11 -13 -13 39 18 6 -31 1 39 92 179 188 90 118 209 165 138 124 136 193 157 234 94 86
80 52 21 22 10 15 16 27 53 52 51 49 48 38 39 48 49 29 25 22 36 35 8 -6 -18 -27 56 -10 -1 -14 53 36 167 189 158 113 97 190 264 88 66 70 194 278 115 149 112
122 70 61 35 35 24 27 30 40 56 44 52 44 43 31 36 42 22 11 14 28 30 2 -1 -26 18 13 1 27 33 48 77 171 117 182 114 135 200 339 203 36 -74 -27 97 108 198 141
135 117 87 70 46 36 39 32 41 55 43 47 53 39 31 37 30 14 2 -1 27 43 4 -3 -6 34 50 23 39 31 136 176 123 89 100 133 199 201 377 293 185 49 26 126 128 77 89
106 137 122 85 70 55 41 42 36 48 50 44 49 36 30 35 23 9 8 -15 -5 49 22 26 50 35 31 57 27 13 160 103 34 71 106 82 131 210 239 230 171 89 36 8 59 175 214
94 132 155 111 103 66 41 42 36 43 46 47 47 39 25 37 21 4 10 10 32 29 76 71 59 22 -13 -8 76 61 111 108 39 61 93 115 146 169 171 153 93 90 91 -5 4 25 96
66 108 186 127 90 62 42 40 38 41 36 46 44 34 20 28 20 8 11 47 67 86 35 26 -11 -9 -46 20 88 47 168 34 27 48 57 75 89 98 105 92 156 103 85 105 12 28 -2
51 73 162 142 105 82 45 37 32 35 29 43 38 30 26 22 17 16 31 63 10 17 37 63 28 15 10 48 -21 66 145 108 47 76 29 99 101 69 63 113 145 151 130 126 129 58 25
56 112 181 153 94 95 54 39 26 32 24 32 37 25 24 24 21 38 32 58 -0 1 22 66 8 -4 5 9 -22 -32 74 131 51 51 44 66 76 140 145 121 110 138 75 114 89 50 73
65 59 180 152 114 100 60 45 21 25 18 25 25 22 25 30 39 49 42 38 12 11 44 14 24 -25 -8 7 -4 -3 66 79 81 1 -8 40 75 113 90 101 143 135 146 179 194 79 100
125 84 132 160 154 115 76 55 22 18 9 16 16 19 32 40 21 42 41 19 12 33 40 18 19 -6 -30 -24 -0 -6 -17 14 -55 22 64 65 104 65 93 83 133 223 100 93 159 113 129
77 98 115 169 232 151 103 61 33 9 -3 12 5 17 34 37 31 32 21 12 38 47 38 30 5 3 14 -5 8 -7 8 6 45 -27 19 71 71 85 89 137 122 118 168 137 94 79 105
70 140 142 181 218 193 119 69 40 7 -6 7 8 18 28 -6 11 15 20 57 58 45 41 40 29 19 25 58 36 15 -19 -22 -41 -44 -67 4 40 59 69 98 108 137 131 163 129 121 66
48 79 128 171 237 148 107 73 45 17 -1 -2 28 22 7 -8 10 9 23 33 60 49 75 54 54 42 50 79 55 62 30 -13 -11 -58 -91 37 105 59 43 75 99 135 132 171 150 106 27
144 117 133 171 249 131 92 67 49 31 9 24 50 -2 4 -2 -8 -26 -6 50 58 65 64 51 63 35 48 109 84 79 62 38 6 -2 -31 22 137 92 82 87 143 93 103 116 82 108 132
179 154 171 181 226 149 94 62 47 40 20 51 59 15 41 14 -17 -14 13 48 50 42 48 52 76 121 70 201 192 124 69 19 62 -13 76 111 90 89 129 194 130 142 179 155 129 132 122
344 152 182 189 258 162 92 66 51 44 23 21 78 58 39 19 -3 12 68 52 41 50 54 81 80 131 124 146 252 198 111 17 58 54 73 81 79 102 169 173 142 167 149 148 147 155 157
340 197 168 198 203 162 138 79 55 46 42 81 73 60 37 18 31 38 48 48 38 61 79 79 72 126 166 135 135 134 164 46 -16 -34 105 90 125 128 98 61 89 98 86 141 179 128 125
396 13 113 195 220 162 135 88 62 50 83 115 60 65 31 18 34 39 50 40 47 69 100 119 138 182 209 236 298 120 94 36 17 -5 -26 95 25 147 134 157 111 118 101 90 116 167 123
65 125 125 243 255 173 142 90 66 35 -3 83 74 64 52 15 10 21 50 57 65 73 71 119 142 180 239 219 132 216 100 53 -8 -44 -26 57 161 132 133 102 106 113 90 97 153 161 140
146 204 122 304 236 165 140 90 57 25 -12 89 67 55 41 32 24 35 62 83 89 116 102 134 152 180 278 368 203 81 37 59 -73 -80 -84 -1 -77 52 66 73 132 53 95 101 114 135 154
31 137 255 223 226 147 138 87 60 46 84 111 96 59 69 62 64 39 76 74 85 126 155 132 171 233 243 251 215 82 99 93 66 -60 -164 81 -49 17 63 125 176 128 107 46 62 103 92
44 78 107 290 302 212 134 119 69 72 148 124 118 80 52 53 48 62 61 67 108 147 119 135 209 198 166 140 85 60 81 69 105 -27 -175 -140 81 27 64 68 75 57 49 86 93 74 81
71 169 126 275 368 213 150 111 67 67 92 142 110 93 70 46 57 69 77 108 114 127 117 183 212 185 149 37 30 56 63 70 66 65 -46 -113 -14 -11 6 106 74 51 88 14 95 107 76
117 276 167 311 347 149 136 121 59 36 61 126 126 107 97 72 79 109 125 114 125 141 122 132 164 142 38 51 99 104 114 72 44 71 59 -28 27 -9 16 67 76 47 29 69 53 26 31
111 246 148 305 358 254 166 124 71 76 60 100 119 111 129 108 77 142 138 134 90 107 146 141 135 57 48 85 95 111 112 88 90 23 -17 30 37 38 2 19 49 81 32 75 66 58 82
205 169 62 311 289 251 263 121 80 59 77 137 75 152 136 150 134 138 132 116 122 131 141 166 135 107 49 110 96 99 61 26 51 23 -25 15 15 -17 -1 14 35 40 1 16 60 55 53
179 248 127 305 237 232 200 128 62 82 107 170 103 180 148 154 143 147 140 138 131 121 114 150 139 120 110 143 100 57 44 21 26 -9 8 26 16 19 21 33 50 79 82 40 67 69 62
81 268 163 249 262 357 201 126 89 54 98 139 166 222 217 177 137 155 202 180 185 135 141 154 155 139 93 121 73 38 43 35 30 35 32 25 31 -6 6 84 85 25 72 48 56 50 59

GFSGBSN_con_3kmhel_093.txt.gz
Helicity
51 54 63 50 48 16 16 19 12 25 10 22 13 41 42 42 52 39 24 22 28 30 18 0 -16 -18 37 30 48 17 75 56 58 55 -13 162 292 257 175 114 73 201 192 187 270 329 241
51 69 87 76 72 51 38 31 26 30 13 7 24 32 45 31 36 32 20 16 19 25 18 10 -11 0 41 14 54 97 102 114 110 60 -39 -16 262 276 308 85 49 96 168 155 209 247 364
47 50 105 87 84 66 62 49 35 22 22 10 18 36 36 20 27 25 9 3 8 23 17 18 0 21 26 62 83 120 72 87 89 137 55 11 93 363 278 171 77 30 50 178 252 89 355
46 37 70 114 102 85 73 73 44 25 23 13 15 30 27 26 23 14 -1 -26 -28 21 15 13 10 22 46 107 78 61 158 71 88 95 73 57 104 150 303 218 162 117 102 79 130 111 103
23 44 53 87 138 105 79 78 48 30 26 22 13 24 25 16 14 6 -7 -26 -44 32 24 33 16 66 5 105 63 159 138 37 72 98 90 70 104 141 273 228 194 171 111 106 91 92 133
20 35 56 70 166 114 83 80 61 35 33 21 15 27 26 10 13 3 -11 -14 -5 16 42 56 80 26 -5 35 112 119 109 60 87 111 112 131 109 104 164 185 149 85 166 145 45 39 119
62 55 62 64 127 149 114 76 64 42 41 20 18 21 19 12 10 13 -5 -4 13 18 9 5 3 3 12 53 45 91 133 54 63 67 91 99 102 79 98 117 69 37 -26 43 -2 8 94
71 43 25 80 119 170 113 82 72 51 46 23 15 17 9 5 14 15 23 47 18 23 74 25 25 21 34 43 1 12 95 45 107 53 46 83 94 115 136 110 117 156 27 27 147 67 77
74 56 28 32 133 133 124 88 77 64 48 33 18 9 -4 6 12 25 45 40 -8 3 49 45 12 7 17 8 -6 -6 -1 37 -3 59 78 84 101 141 169 174 140 112 67 68 77 94 69
150 25 4 7 144 158 135 107 82 68 49 43 15 5 -10 16 32 32 46 13 -2 -1 75 35 23 7 11 18 -7 -5 12 -22 -41 -40 69 127 104 103 140 169 140 144 122 97 93 152 84
141 80 -12 125 32 153 139 91 74 79 51 42 15 1 -10 25 31 23 31 -3 -5 2 83 38 33 6 -16 -2 11 -1 -10 -21 -84 -75 13 74 111 102 119 114 123 174 93 101 141 115 133
63 82 41 56 134 194 149 118 123 78 59 39 16 1 -5 9 13 13 1 -13 -2 51 68 55 51 47 49 17 19 11 3 -13 -14 -66 -3 36 86 78 90 109 131 79 170 139 214 175 151
-35 28 64 18 161 182 223 122 119 83 66 34 17 7 -3 -3 6 11 6 7 50 86 33 44 54 70 84 83 60 25 12 7 -13 -44 -91 -25 96 112 85 130 169 144 158 197 197 143 107
16 41 29 70 130 109 222 141 133 85 71 37 35 25 -14 -1 -3 -1 -14 12 71 58 62 24 30 33 56 84 64 70 5 7 14 -20 -55 -50 -56 94 64 68 72 102 181 157 152 132 79
53 19 45 97 119 215 274 166 112 73 91 46 68 34 19 15 6 -14 28 46 63 55 50 45 50 79 71 108 116 91 90 87 9 42 8 -42 -71 94 73 97 111 100 92 151 111 93 94
-7 -14 -19 107 161 242 282 197 65 118 104 77 97 55 43 25 15 32 53 40 56 48 52 48 97 131 189 236 259 215 92 47 28 94 52 -32 -112 91 133 162 178 142 166 144 187 108 110
-25 -2 -67 153 187 279 251 202 76 115 95 36 81 95 52 52 53 61 62 41 46 37 56 87 102 133 173 212 310 256 190 40 50 73 -25 52 -8 72 133 151 197 199 173 172 151 121 102
-3 76 14 163 283 326 282 191 89 150 109 102 78 90 63 71 71 49 47 48 37 79 63 66 80 122 189 194 190 209 206 133 72 19 -34 8 5 -44 114 140 158 192 173 180 164 176 148
41 40 161 273 176 126 299 209 116 143 193 200 111 127 88 68 41 23 32 31 46 57 77 85 100 123 183 245 284 157 117 49 44 -20 -59 -84 21 67 66 90 76 146 169 165 188 176 139
75 70 242 281 84 169 341 137 117 130 96 156 96 102 104 35 33 17 23 31 38 41 51 84 90 128 166 187 142 224 172 123 37 -31 -23 -33 -86 14 -48 93 108 131 89 92 146 165 173
155 94 206 223 56 124 402 152 143 99 69 153 101 85 58 33 -18 8 32 30 58 63 71 93 90 123 206 266 217 162 133 77 86 0 -23 -77 -198 -58 42 28 63 78 87 87 123 109 105
79 102 178 83 64 102 350 120 131 101 113 128 118 113 96 71 57 53 40 34 63 82 124 95 138 165 221 253 252 163 130 120 108 56 17 -31 -169 -40 21 28 29 52 52 14 13 67 67
69 78 213 79 166 295 319 124 163 176 256 104 123 127 137 50 52 57 34 51 67 128 122 145 153 152 144 135 85 82 116 104 143 146 105 -18 -81 -69 -163 20 119 81 88 86 133 45 56
117 118 126 82 185 152 306 192 206 162 146 110 83 158 144 37 21 21 66 82 103 118 144 145 144 156 122 33 35 66 71 55 90 111 77 3 -99 -67 -126 21 28 40 36 39 92 79 111
114 136 112 60 140 177 274 167 161 100 108 134 108 103 113 41 39 76 98 94 131 120 123 115 123 132 61 51 94 108 98 82 69 53 80 20 -48 -93 -127 -29 46 49 44 36 57 43 56
124 125 128 26 35 204 224 126 154 75 143 144 127 137 121 72 34 67 87 97 93 101 117 90 100 102 83 87 104 131 115 75 80 45 25 33 -26 -40 -104 -125 -53 5 27 36 42 76 56
56 121 200 113 147 293 269 219 102 99 89 132 115 128 144 120 121 116 70 83 107 123 126 95 90 118 100 125 124 126 85 20 77 79 62 40 53 44 -73 -77 27 32 23 21 65 63 58
19 133 214 135 18 177 323 213 128 108 76 221 76 95 100 137 170 143 122 99 113 112 116 89 108 105 142 141 128 84 77 24 22 38 68 61 44 18 25 33 5 107 81 60 56 69 69
78 115 205 72 -12 168 212 211 144 111 144 192 166 118 99 137 106 127 167 174 101 120 155 106 119 152 132 139 93 68 62 19 30 58 27 55 56 32 31 29 53 183 201 149 105 85 67

GFSGBSN_con_3kmhel_096.txt.gz
Helicity
60 70 78 97 110 52 38 31 16 26 14 8 8 24 17 4 3 23 28 37 27 5 2 5 9 -11 12 29 64 138 130 51 25 52 9 206 251 196 109 -13 158 248 224 334 386 384 527
25 42 55 81 113 111 43 35 33 23 23 12 16 27 31 7 -8 14 13 30 6 -10 -5 0 5 -4 45 -3 136 113 126 74 16 -2 -28 139 255 226 184 133 32 153 159 436 369 322 393
36 15 34 51 77 116 99 38 36 44 19 20 23 33 29 5 2 -2 1 6 -6 -14 -17 -5 7 14 21 59 118 106 87 33 17 -55 -17 60 158 227 216 117 122 -2 123 306 280 331 260
30 54 54 28 69 103 138 77 43 48 34 24 25 40 28 8 -6 -7 -7 -17 -17 -17 -23 5 20 53 54 106 93 95 107 53 59 -10 -67 57 116 234 217 111 197 -1 25 10 181 307 416
79 44 93 55 34 89 139 138 39 56 34 33 31 39 38 16 -13 -18 -12 -22 -3 3 -15 14 19 31 12 39 67 96 99 117 86 61 24 24 143 200 151 161 202 200 45 95 44 61 135
168 111 69 84 70 41 95 150 105 27 29 33 36 45 38 13 -14 -25 -22 -20 -1 21 -2 40 42 17 5 47 53 102 93 118 95 74 28 16 40 119 138 157 127 103 44 86 109 31 -49
169 177 116 80 71 66 82 119 153 35 33 39 33 42 33 22 -15 -22 -8 -7 6 14 -2 39 22 52 50 62 33 63 64 94 73 73 96 74 32 54 124 144 166 101 23 43 11 -28 -20
86 119 144 72 33 93 58 121 138 54 37 51 42 45 29 37 -3 -15 18 20 11 13 74 4 27 30 41 28 -4 33 53 42 49 63 119 111 62 77 87 142 182 151 72 72 86 123 85
-9 85 107 39 34 19 70 91 111 91 49 54 53 42 29 57 20 7 24 25 -13 -16 42 40 27 33 27 11 1 12 -2 25 -4 2 56 46 114 112 86 106 159 141 48 39 28 44 139
34 -16 2 87 25 -50 105 91 147 86 66 48 53 46 35 85 45 24 14 15 -13 -15 59 45 32 32 19 30 1 16 10 -8 -26 -49 5 11 116 116 121 125 104 116 95 52 70 42 104
85 31 -49 2 38 -11 69 90 186 118 37 54 61 46 48 82 42 26 7 16 -21 -11 69 42 50 24 9 23 17 7 5 -33 -62 -62 -7 22 123 106 109 154 158 134 176 126 130 174 126
90 86 30 -43 20 -3 105 90 21 88 49 74 61 47 76 80 48 9 6 18 -10 40 60 41 56 52 55 39 16 9 6 -11 -28 -55 -41 -24 105 87 106 131 116 118 193 235 215 187 106
55 84 89 -46 0 -49 66 166 86 143 93 67 56 51 81 62 51 29 39 38 43 59 26 55 56 52 51 74 65 47 21 7 5 -15 -79 -78 -53 72 75 112 156 139 191 195 144 145 150
43 45 44 5 -28 4 35 164 120 179 121 81 64 65 72 69 61 48 73 53 34 42 37 14 28 19 55 83 64 53 34 20 1 11 -20 -55 -56 53 83 110 122 128 77 155 132 97 132
55 45 32 28 -32 13 47 126 196 153 179 166 105 124 92 68 69 59 82 39 24 32 44 56 48 78 69 85 117 127 55 70 7 49 56 -16 -30 117 96 112 121 124 115 100 105 110 107
65 44 31 7 -4 12 83 72 177 168 157 129 150 117 77 65 83 87 84 25 41 47 51 47 69 86 111 138 188 197 130 63 46 57 79 -3 -59 -7 106 93 105 83 127 140 150 93 100
52 39 -4 15 9 5 70 91 228 145 182 47 151 138 98 91 123 119 46 32 47 53 55 60 58 94 114 170 223 211 170 103 86 49 104 59 0 -65 102 118 141 192 193 187 122 117 84
33 15 -8 -19 36 96 54 92 375 260 151 114 158 152 75 109 139 70 43 43 58 73 53 52 58 76 102 139 199 193 199 189 80 108 75 21 -26 -26 41 119 134 99 128 164 154 162 188
23 -14 -7 14 54 96 72 268 102 277 75 259 230 224 132 146 80 37 54 51 49 70 41 48 56 66 101 151 155 153 165 137 112 108 42 -7 -34 -12 14 66 96 157 189 199 247 169 107
12 -9 36 47 47 72 172 262 86 206 53 268 156 182 161 90 67 54 43 34 22 19 56 62 58 67 111 155 165 169 187 151 93 34 -11 -19 -128 -123 -71 69 94 63 156 135 233 191 141
5 13 13 74 254 97 212 134 332 120 -88 195 152 110 121 105 7 -25 41 28 37 46 44 65 59 66 115 124 127 172 167 130 94 38 48 -7 -56 -172 -177 -27 -5 27 35 102 184 186 128
-14 48 168 115 48 210 38 -65 431 137 -16 147 137 128 182 44 75 10 39 12 44 52 72 59 87 107 153 178 183 137 114 119 140 102 163 113 120 -101 -203 -48 21 15 -3 16 33 89 48
52 186 76 66 84 294 108 -10 331 33 100 153 101 150 170 104 92 73 43 38 31 86 65 95 99 118 133 127 104 85 90 92 127 151 145 133 63 -21 -136 -129 -49 43 51 53 69 80 54
63 67 74 74 170 215 141 85 307 42 50 130 102 134 262 124 91 44 72 67 59 61 83 98 75 97 99 66 51 68 71 64 101 106 93 93 3 -58 -10 -91 -85 18 83 103 145 113 87
20 24 99 102 133 197 195 247 231 49 49 133 141 163 327 120 71 116 91 83 108 88 81 90 39 75 76 70 107 118 97 96 86 48 48 13 6 -21 -32 -91 -46 -10 14 39 42 55 8
13 7 88 108 128 133 31 252 183 47 124 132 200 159 231 89 89 94 96 67 61 66 73 72 47 67 88 86 104 122 109 96 86 54 4 3 -16 17 -37 -181 -73 -22 79 55 32 83 56
5 26 96 88 108 155 134 386 153 25 76 149 223 192 208 87 104 104 63 57 74 78 69 55 35 70 83 99 116 131 106 57 84 76 83 42 36 64 53 -56 -55 41 92 60 53 71 74
20 25 72 71 109 151 160 266 234 34 29 166 258 278 168 95 112 110 92 68 93 80 50 59 53 41 87 105 123 117 115 78 80 41 63 66 103 78 43 40 -20 72 90 116 97 120 73
33 28 17 49 117 115 107 364 155 5 93 162 239 269 176 105 92 111 122 142 80 73 88 74 45 80 100 121 89 100 103 79 90 86 22 58 67 78 92 63 12 0 43 157 187 138 108

GFSGBSN_con_3kmhel_099.txt.gz
Helicity
18 1 -6 10 38 63 89 118 95 53 19 -19 -26 -2 22 42 36 23 -3 -2 -3 -20 -22 -14 -2 -4 30 39 53 128 115 45 39 -37 80 198 162 157 -73 -119 -91 429 298 389 394 418 523
89 46 39 34 25 31 72 103 110 72 45 -5 -21 -16 22 36 33 29 -9 -10 -10 -28 -28 -13 -0 -2 33 12 116 135 97 43 37 -11 -34 125 114 118 -1 -183 -187 195 324 515 376 414 409
183 166 88 85 97 77 45 62 131 98 52 43 -6 -21 11 25 15 27 -6 -21 -23 -28 -29 -13 5 43 57 92 111 107 71 48 59 -4 45 48 36 94 40 -208 -127 45 237 508 518 518 447
108 132 130 114 130 113 98 73 105 133 87 44 10 1 17 17 3 30 -9 -29 -23 -19 -21 -6 8 38 58 76 102 76 66 76 92 38 -69 49 85 89 57 -21 -15 27 -23 514 486 473 424
72 79 101 103 105 99 88 133 142 110 85 67 46 12 22 18 -2 19 -2 -21 -10 -13 -16 3 26 50 18 24 29 88 68 93 77 40 64 35 113 95 39 -1 -4 43 -74 165 331 231 335
1 51 88 94 98 73 68 125 136 112 79 68 54 27 23 22 4 18 20 2 -25 -15 -15 27 34 19 -6 12 41 54 84 74 54 37 22 4 87 66 35 54 -15 -32 -12 34 76 182 115
2 -16 -2 101 128 84 54 80 123 67 102 57 63 37 20 22 7 31 67 41 27 12 -1 28 43 31 17 23 31 42 24 40 53 13 12 39 32 86 71 81 70 13 19 -45 9 -87 53
71 75 65 37 78 130 100 18 129 164 87 51 74 61 29 29 19 44 85 64 35 18 30 17 21 8 17 26 -33 26 21 -12 -31 -35 -17 44 87 55 96 101 102 102 32 85 65 -140 -110
62 69 79 87 25 72 88 63 121 63 59 86 47 79 40 27 37 53 76 68 35 12 21 31 25 20 21 10 7 1 7 7 -17 -53 -50 -55 38 59 63 81 133 128 74 93 55 -21 13
76 86 68 45 37 3 66 24 115 118 50 70 102 49 25 32 56 58 66 90 51 22 27 32 30 24 10 20 6 21 10 -12 -23 -35 -33 -55 83 81 66 72 65 100 104 78 83 71 -26
64 44 42 43 24 -4 18 35 73 94 189 107 121 63 28 11 55 48 58 100 64 15 24 42 46 21 16 29 16 12 8 3 -26 -42 -51 -51 -42 118 89 87 108 68 98 73 97 140 111
49 32 19 35 23 10 8 5 76 75 120 67 146 88 35 52 72 59 70 98 65 45 11 33 30 36 52 53 32 20 15 10 1 2 -11 -24 31 78 110 127 124 101 128 166 163 148 68
48 34 32 38 31 30 11 15 72 90 136 29 109 99 56 72 40 65 82 109 72 33 38 19 27 25 31 55 52 52 50 48 59 64 24 6 -17 54 82 126 130 134 177 117 112 137 91
52 49 61 49 34 34 3 -8 53 97 185 90 99 117 37 80 70 76 126 142 28 18 27 28 32 38 55 68 60 72 54 76 53 86 84 84 53 29 85 91 106 144 116 103 89 111 123
27 42 54 58 44 20 -12 -30 7 95 159 58 125 188 70 86 57 78 143 89 23 3 52 60 56 37 38 49 79 113 76 88 63 77 140 116 45 7 113 136 130 133 111 69 25 192 100
16 34 43 25 33 25 -27 -28 -7 50 153 59 176 169 82 82 71 120 127 48 38 20 50 70 46 42 52 67 115 131 112 90 102 88 61 50 31 2 18 105 128 118 120 132 108 35 77
33 51 135 19 26 23 -3 14 54 41 97 105 182 150 132 79 105 142 69 42 41 21 35 65 35 55 49 81 128 147 161 136 112 80 97 91 72 4 -7 31 106 159 147 156 92 119 61
32 73 29 29 40 17 21 49 85 91 81 126 147 220 64 102 141 90 32 39 38 45 32 64 70 59 59 86 113 144 189 161 115 120 158 87 58 45 -28 -7 90 136 100 124 130 93 124
37 56 64 -13 26 11 35 64 113 93 83 190 161 151 114 121 91 62 60 54 32 41 20 50 43 39 47 82 104 138 174 137 143 145 144 57 117 52 -72 -49 59 93 115 86 142 169 103
46 49 25 -17 -8 17 55 54 65 -6 66 288 220 200 142 98 68 89 63 53 31 14 28 46 45 51 45 62 81 123 173 138 118 120 72 48 99 60 -114 -124 -110 114 85 67 98 111 103
43 36 -5 1 9 56 81 82 61 20 29 331 249 103 112 88 -11 33 56 37 45 21 12 26 46 37 61 68 94 121 133 153 137 80 100 164 181 27 -108 -128 -72 17 49 87 100 166 134
24 -9 -20 3 149 375 197 36 110 186 52 287 217 94 127 15 34 33 65 29 14 33 30 14 33 45 73 101 108 109 133 106 153 136 157 161 180 44 -102 -130 -117 -13 -22 -34 15 65 62
-16 -6 41 88 35 50 66 95 298 7 183 194 198 127 116 40 117 81 56 35 -3 66 35 16 57 59 46 61 81 80 89 100 119 140 140 140 98 92 98 -63 -126 -95 -23 -10 9 17 45
-17 20 46 32 40 41 232 188 -38 99 91 266 155 115 133 96 88 71 69 78 55 11 29 42 62 46 61 93 70 71 74 68 70 76 91 83 13 8 79 9 -82 -71 23 36 -4 78 45
2 17 42 57 68 83 213 234 16 71 71 142 112 83 117 133 91 144 100 89 112 83 44 39 28 46 80 94 95 99 82 78 85 59 52 24 -10 23 41 -40 -73 -26 -18 54 96 127 82
10 26 33 41 85 83 203 110 -160 73 6 128 127 91 83 127 147 133 92 64 51 38 33 21 37 47 78 87 94 89 77 93 100 89 51 29 4 45 42 38 -31 -32 31 57 29 98 122
11 32 25 57 81 93 157 43 -109 112 9 84 95 73 112 95 217 147 94 37 38 41 31 17 17 33 56 84 92 90 76 81 103 115 116 97 79 84 72 66 11 -32 23 50 -7 58 174
22 30 34 83 89 87 149 121 66 236 106 83 106 126 84 122 231 154 91 68 65 32 15 25 27 15 54 72 85 79 89 80 81 82 103 143 157 88 75 69 50 -26 -23 -19 53 70 75
46 33 32 89 98 100 149 146 257 247 218 142 203 181 104 148 154 104 94 100 69 37 28 38 -3 28 62 83 70 80 80 72 87 71 40 104 77 93 101 70 53 -19 -32 44 41 40 97

GFSGBSN_con_3kmhel_102.txt.gz
Helicity
209 209 188 168 128 101 106 116 119 75 69 37 56 43 37 26 14 -3 -18 0 19 -8 -36 -41 -27 -28 25 52 26 76 35 4 7 18 80 100 58 60 -12 -70 31 47 519 367 222 408 388
147 158 149 152 138 114 88 98 169 114 62 71 44 48 43 39 24 -10 -14 -9 11 -7 -22 -35 -13 -12 58 47 73 59 44 6 4 63 139 101 68 35 -52 -55 -91 32 182 493 207 339 561
84 107 111 121 121 95 101 78 97 133 112 92 61 43 51 44 21 -9 -10 -13 6 -12 -13 -21 -8 39 45 73 42 35 26 -36 -52 -24 19 47 51 16 -59 -25 22 28 105 473 379 501 447
29 54 78 91 106 93 59 63 65 130 80 100 56 44 33 40 20 -8 -13 -26 9 -7 -2 1 8 46 20 56 27 24 41 -23 -14 24 63 61 57 14 -40 -112 -104 -120 -210 189 529 640 339
-6 2 3 41 101 116 119 103 147 141 154 106 69 52 29 66 29 0 -24 -20 -1 -4 -5 6 30 30 -12 -13 8 29 17 16 7 40 64 102 49 12 -45 -89 -100 -238 -158 130 376 465 425
33 45 62 72 58 61 100 111 122 181 208 158 98 43 32 96 30 10 -21 3 -2 -4 34 44 35 14 18 8 27 29 16 17 19 14 -41 -11 39 20 40 13 -149 -131 -119 2 11 330 392
9 21 32 68 102 104 64 102 99 104 243 190 41 50 89 78 32 18 21 45 25 29 27 33 33 32 7 21 43 28 14 9 -24 -30 -14 1 33 44 62 71 16 -71 -105 -15 -76 73 261
16 30 40 50 50 31 64 39 71 67 127 318 223 120 90 15 72 33 36 42 23 39 8 10 16 26 15 -1 7 2 -11 -26 -32 -9 -5 37 46 17 52 52 31 -14 -84 -37 -58 -43 -15
66 68 85 75 85 95 66 27 42 64 114 146 351 129 78 82 58 53 19 34 40 43 10 -7 12 14 16 9 11 11 -16 -17 -47 -73 -77 -27 4 27 1 10 39 61 3 -32 10 -34 2
67 67 61 69 74 59 51 -12 21 48 75 100 278 105 95 86 48 49 31 39 38 24 13 -14 18 1 10 14 21 14 7 -12 -43 -75 -138 -109 43 39 26 18 13 16 62 48 70 -29 -2
44 46 58 55 49 47 45 35 2 -3 43 93 107 95 55 109 61 47 32 39 30 27 40 25 46 26 8 41 30 12 12 3 -5 -45 -138 -132 -109 4 35 45 53 36 54 49 81 102 116
42 38 46 44 39 33 41 33 -11 -14 10 89 114 27 79 109 55 54 23 23 42 56 29 4 19 0 10 24 39 26 28 20 13 -2 -25 -74 -46 19 88 89 93 36 88 121 128 96 14
56 50 45 31 25 28 41 36 -15 -12 2 98 105 98 92 129 56 54 35 53 66 42 33 -6 -24 7 11 17 33 54 64 58 60 59 36 -32 -28 -11 84 122 136 129 109 120 54 83 22
63 61 50 33 8 27 31 60 -9 -12 15 107 -12 88 51 104 42 78 63 101 78 26 10 2 17 60 31 43 42 85 94 99 73 96 118 126 80 28 37 102 107 115 83 87 39 56 63
64 59 37 12 12 29 22 54 -5 -7 12 13 45 120 132 86 47 74 93 75 60 11 10 32 68 46 7 22 45 78 87 107 101 113 205 198 107 31 -2 51 115 119 127 102 77 68 92
65 34 24 12 5 29 27 43 -21 -11 3 24 98 46 52 87 86 77 106 53 57 13 22 18 37 35 29 24 55 73 82 109 121 109 89 126 136 30 -7 -1 110 134 98 145 141 106 114
32 26 28 23 25 81 33 41 -28 -35 15 40 113 -9 0 146 104 104 65 17 19 16 20 7 27 52 37 29 65 79 100 134 112 131 106 161 187 53 -5 7 -7 134 148 138 113 109 19
18 29 25 26 72 25 24 29 25 12 77 48 98 25 37 220 142 120 30 51 36 28 40 21 30 37 22 32 57 78 118 125 107 118 193 137 225 150 44 -52 -40 42 52 126 149 105 105
16 29 19 65 -8 -8 -9 21 34 35 72 28 58 50 88 238 93 54 36 43 26 27 15 12 9 -7 -33 28 40 91 131 131 146 177 180 157 240 287 48 -10 -55 -61 43 59 90 163 93
13 18 28 40 25 9 18 36 44 59 74 93 84 107 108 110 108 49 53 52 51 32 15 26 7 22 13 18 47 102 121 110 110 141 99 130 234 304 213 -54 -113 -105 48 74 72 75 74
5 9 19 25 -21 -46 -5 46 50 69 29 34 91 122 156 87 35 57 70 42 52 15 23 21 11 -13 18 31 56 81 109 115 108 104 118 209 299 201 60 -65 -154 -100 -17 114 82 84 41
-14 -3 0 34 130 151 242 114 86 61 -1 33 76 114 114 72 61 9 15 50 30 32 21 -2 -10 38 38 46 66 77 103 85 107 112 160 171 246 130 145 10 -80 -68 -47 2 23 47 37
-30 -28 -9 3 18 -7 45 61 74 12 -29 34 121 192 35 42 84 30 19 36 24 29 29 3 -8 49 45 54 86 81 84 88 95 122 138 138 123 143 125 33 -66 -63 -12 -7 59 38 25
-23 -59 -24 14 2 -3 15 20 178 49 24 141 136 158 115 44 92 19 59 53 40 47 -1 20 43 25 41 113 110 84 86 71 78 73 77 107 72 53 89 37 85 -38 -31 16 10 29 27
-30 -100 -45 10 5 13 -24 147 271 26 28 112 139 141 95 61 70 53 58 67 112 104 44 27 12 20 61 63 48 49 41 50 59 53 56 59 70 126 167 83 14 -3 -25 -6 42 27 117
-26 -109 -23 15 36 8 -10 200 97 80 164 311 262 80 86 74 71 104 95 90 73 61 43 9 21 19 39 37 48 54 50 62 73 73 64 73 59 96 103 149 179 31 28 15 30 12 116
-18 -101 19 31 75 40 10 243 10 60 151 225 184 86 134 84 129 140 83 54 56 59 21 2 -33 0 14 13 43 59 52 76 80 91 97 100 105 126 110 99 48 38 41 -3 13 3 72
-19 -90 52 41 77 58 66 203 60 -102 40 170 107 62 144 42 156 140 150 73 69 44 -1 0 23 -20 13 14 36 46 64 73 76 89 103 130 150 132 134 129 101 17 10 18 -5 43 41
-22 -85 62 45 64 77 117 196 197 -4 65 124 75 127 93 133 140 137 154 138 98 46 33 21 -29 -5 16 40 38 69 72 73 84 75 78 95 105 117 142 106 67 51 26 -5 0 36 52

GFSGBSN_con_3kmhel_105.txt.gz
Helicity
74 68 90 101 108 118 126 107 80 88 114 137 62 67 64 49 16 51 39 19 3 -24 -2 2 8 -23 15 26 36 62 -16 -7 10 -8 -12 31 25 40 44 18 37 44 55 -10 80 203 141
43 55 63 75 97 103 104 101 107 117 120 151 39 98 84 52 26 39 45 26 5 -31 4 5 15 6 43 36 53 34 -36 -20 10 15 27 44 15 39 -9 3 38 25 98 129 239 331 313
18 1 8 31 66 75 94 80 101 140 194 204 179 86 79 29 21 21 49 49 8 -16 -6 10 32 44 35 62 36 32 -19 -24 -14 4 15 20 40 14 -32 -16 -3 72 -49 110 -14 138 292
30 26 37 54 45 59 75 84 79 67 128 263 248 41 95 41 41 43 40 74 20 -6 -10 6 53 56 28 29 18 -10 -3 15 27 -2 24 16 19 9 -7 -45 9 13 -10 87 136 48 469
-9 -8 18 41 57 70 70 69 68 79 66 142 274 382 94 59 56 14 38 40 42 5 -10 5 90 73 18 3 4 -5 26 27 28 30 31 51 22 34 -33 -65 -39 30 107 -25 48 -50 468
-3 9 17 24 10 -9 12 60 44 40 67 130 169 232 110 60 57 49 46 9 75 14 25 57 96 28 30 22 18 4 17 13 6 -5 20 16 35 28 -43 21 7 10 46 -20 75 -120 309
27 33 38 39 41 54 39 21 39 57 75 91 141 152 238 115 48 41 33 48 85 -12 23 -47 -15 23 29 18 9 15 -0 -8 -17 -47 -35 -20 -11 10 52 75 110 49 59 -14 -31 -136 192
66 70 60 53 54 47 34 44 39 42 61 84 101 140 88 84 85 80 9 58 49 10 -21 -26 -40 -10 19 21 19 23 -0 -0 -29 -21 -37 -15 8 6 46 19 56 45 54 18 -33 -74 72
73 70 73 76 71 58 58 50 55 40 53 65 87 182 42 118 28 21 55 59 68 37 -38 -8 -4 -16 21 13 26 27 18 13 -0 -64 -38 1 18 -17 1 54 43 24 -23 -33 -46 -54 29
76 77 74 70 62 44 47 43 37 42 46 43 81 154 99 99 -4 59 58 25 97 40 -20 -15 9 21 23 9 17 17 14 27 16 35 -35 -55 33 42 35 26 2 2 4 -9 10 -19 31
79 69 63 62 54 41 23 32 35 14 37 4 40 131 67 79 30 29 47 40 89 38 70 8 24 34 16 24 28 17 19 24 38 34 38 29 -48 -72 35 39 38 12 27 4 25 47 45
55 52 54 45 44 37 16 10 32 -0 11 -31 21 92 78 62 34 27 37 50 65 65 64 13 13 1 -11 5 23 25 36 33 34 36 22 34 14 9 48 82 68 47 95 119 87 31 -22
44 50 48 48 43 29 18 6 30 9 -11 -28 45 83 77 130 28 70 41 107 82 62 24 10 7 -8 -19 -11 -6 36 50 50 56 69 53 30 34 13 22 51 134 108 105 67 36 57 21
47 52 45 41 25 12 7 4 21 -0 -15 -0 65 54 101 98 21 85 98 137 63 65 15 15 -4 -3 -30 -24 -17 22 52 57 66 80 111 125 154 50 30 43 97 82 81 72 13 22 50
41 42 32 22 18 16 13 21 12 -12 -9 16 55 127 111 45 -9 84 114 79 73 37 20 -3 27 -2 -15 -32 -37 -13 21 63 78 111 177 209 160 56 25 16 44 101 81 93 97 121 80
32 21 21 26 34 40 30 21 7 1 -2 33 25 62 60 -14 28 128 125 80 58 31 16 21 11 -10 -25 -35 -23 -1 26 86 92 115 111 173 182 84 35 31 1 46 69 105 117 64 83
29 18 19 35 36 76 63 28 19 14 5 57 33 39 22 -17 86 147 69 59 57 6 6 3 -7 -3 -16 -42 -10 11 53 90 83 121 133 193 224 126 40 20 3 -28 58 78 56 140 80
24 10 18 35 50 52 -0 37 26 31 51 25 34 44 16 32 93 74 45 67 22 23 8 12 -12 -0 -31 -32 -11 24 60 74 68 100 168 152 233 195 167 -2 -60 -38 -18 45 89 82 112
27 9 12 17 47 34 -9 14 33 48 63 42 34 70 61 122 43 62 60 36 34 17 22 2 -8 -7 -12 -31 -16 31 62 80 94 112 162 136 250 321 173 104 -46 -57 -91 -15 72 63 130
37 12 8 10 59 58 -16 -22 42 32 55 31 60 66 64 49 77 107 66 31 49 4 14 6 -8 -2 6 -4 23 49 78 60 72 105 105 153 247 345 344 215 -45 -68 -82 -44 24 55 68
36 21 -3 -4 36 68 92 -16 29 54 69 13 30 49 68 21 56 64 81 61 88 41 23 11 7 1 -15 -10 -0 42 60 71 72 71 98 174 268 205 132 79 -0 -75 -43 -78 -92 31 54
28 25 -8 -9 -2 8 -4 26 61 39 45 20 113 65 78 26 37 52 64 30 101 40 19 22 8 -11 4 -10 2 44 61 47 61 63 103 97 152 130 150 73 4 -52 -44 -24 -8 57 22
34 33 -11 -22 -12 7 -8 -8 6 59 -19 -5 49 43 45 3 75 65 11 54 66 20 22 13 -19 7 25 16 69 83 71 73 71 86 94 78 96 106 91 29 11 66 28 -26 -35 -25 26
49 39 -17 -28 1 -1 14 20 57 90 49 25 42 34 61 90 94 46 18 11 46 34 2 29 22 -0 -1 77 94 101 109 80 71 57 55 96 105 92 82 43 173 65 -25 -43 -42 -17 59
58 45 -14 -55 -15 13 12 -14 -40 10 83 -9 53 43 57 38 88 20 24 32 65 59 33 40 24 -7 51 22 6 37 21 25 32 40 42 70 96 118 132 135 75 57 5 3 -28 -34 47
75 49 -22 -58 24 7 -8 -9 55 180 13 21 21 15 58 57 41 34 71 65 69 59 50 34 47 28 1 -10 -17 24 33 44 48 50 44 68 71 105 116 157 179 109 24 2 -3 12 26
71 49 -33 -62 25 27 -2 82 190 180 46 201 91 56 51 66 51 94 66 58 41 55 26 14 -21 -30 -11 -20 -0 21 29 58 53 70 79 79 86 122 132 139 84 54 46 40 69 26 -11
74 51 -47 -70 47 38 30 120 169 96 121 160 150 106 47 88 34 83 94 35 55 46 4 1 17 -17 -6 -28 15 8 36 49 54 66 87 107 122 109 137 136 140 44 46 83 46 19 -2
70 36 -47 -49 56 57 55 126 153 101 47 95 121 96 77 91 53 96 86 74 76 61 21 40 -25 -41 -21 36 29 56 56 63 70 62 67 83 98 119 146 141 71 74 71 58 38 26 13

GFSGBSN_con_3kmhel_108.txt.gz
Helicity
42 43 48 48 55 75 86 87 74 88 115 113 171 152 62 96 48 28 19 26 -2 24 52 55 -5 16 36 46 52 24 5 18 14 -12 -55 -47 -1 10 -8 -8 -12 -4 -94 -14 -23 -8 78
16 16 20 28 41 59 69 81 86 92 76 79 144 221 83 91 67 31 30 26 49 21 44 57 2 34 43 20 55 12 -6 26 21 8 -10 -70 -2 14 -5 -6 5 -18 -50 -67 -20 -128 3
14 15 15 22 32 49 58 64 67 79 72 79 117 178 258 121 45 41 54 47 58 14 7 71 23 42 38 24 26 -19 16 23 9 12 21 10 11 16 -33 -23 21 -35 -28 -15 15 -4 83
-7 2 8 15 32 32 8 33 63 71 70 80 101 151 158 100 43 38 66 21 25 15 11 24 46 54 12 30 -6 2 -1 -0 4 -12 10 10 -2 29 8 -12 -0 -5 -12 -20 -5 97 30
42 28 32 19 12 25 40 37 32 59 61 57 79 116 143 178 71 57 45 22 21 20 12 29 65 11 -7 2 5 -28 -7 5 26 14 29 24 7 31 16 -18 -10 -31 -16 -58 -26 -75 -9
48 43 47 55 62 47 33 37 45 46 48 65 84 100 112 165 58 62 51 15 25 51 72 66 81 -39 -9 21 -9 -28 -22 1 8 28 35 14 26 39 14 51 38 17 -6 78 57 10 43
57 58 62 48 64 68 88 89 71 40 45 63 77 87 77 77 55 57 91 60 10 22 54 -46 -38 -49 -40 -8 -5 7 -32 5 -2 -8 13 21 37 -11 58 101 125 62 27 -29 112 2 -3
62 58 49 54 57 66 77 78 93 43 43 48 55 89 109 6 45 74 65 38 46 47 -25 -54 -19 -29 -25 -17 25 8 -13 12 -6 -8 10 26 16 -17 17 54 41 47 16 45 21 23 -66
62 64 61 69 69 73 84 87 66 43 19 37 28 69 117 63 76 71 36 -0 45 42 -24 -44 -3 -23 -31 -13 29 16 1 7 15 24 2 -0 14 -8 -10 17 37 29 32 22 23 7 -6
58 61 57 60 65 78 80 86 61 23 9 30 17 38 53 83 32 46 23 39 41 34 -51 -56 -26 13 4 -16 17 -0 11 20 44 58 24 27 3 22 36 39 44 38 8 -2 -12 -2 41
56 56 53 59 68 78 75 55 27 12 -8 20 5 20 42 41 51 49 19 -1 40 81 -8 -1 23 33 19 11 -0 15 8 41 44 57 67 62 33 12 -10 66 69 82 56 8 -19 17 58
51 51 51 62 62 54 31 15 10 6 -12 7 -2 35 35 45 83 63 -16 -4 55 65 39 21 32 23 12 7 -7 10 29 34 45 45 46 48 33 39 33 42 85 67 71 37 25 16 80
50 54 50 54 46 22 27 30 29 3 -10 -11 21 44 11 42 21 31 37 23 54 67 54 37 34 20 14 3 -7 -4 23 52 43 72 76 58 50 43 51 85 62 46 25 49 59 47 73
49 52 47 41 19 23 27 31 19 20 20 8 36 60 -0 20 63 37 56 63 33 46 88 38 31 13 11 -8 -4 -13 18 46 40 44 77 142 194 64 38 57 50 10 71 92 49 40 63
50 47 42 28 14 12 34 10 15 3 13 18 39 26 62 62 36 5 39 72 33 131 56 35 27 22 5 1 1 -7 6 37 39 57 87 127 207 86 50 21 11 7 35 91 74 79 82
47 40 34 21 19 28 24 18 -4 2 13 32 20 25 65 61 29 66 72 38 72 70 20 42 54 36 10 -1 7 5 5 25 37 55 62 112 165 118 68 32 -6 -55 1 43 76 40 59
47 37 25 25 31 30 14 7 6 3 30 32 14 67 -2 37 59 79 41 30 67 37 12 41 41 22 13 9 15 11 12 32 21 71 86 141 118 178 83 82 36 -23 -101 -39 42 149 74
50 33 28 17 30 35 19 2 4 20 45 25 19 85 19 71 70 66 20 49 66 -0 -15 22 13 12 7 4 20 12 21 17 12 63 110 113 161 192 186 59 -17 -41 -86 16 30 -7 71
49 36 21 12 28 48 29 17 -35 18 23 20 47 60 20 72 54 62 59 53 67 37 -2 17 17 7 -6 9 30 11 9 23 11 66 105 108 200 231 251 167 41 -5 -89 -162 81 53 41
66 46 22 1 6 37 35 58 -21 33 44 17 71 79 43 25 43 71 72 50 76 37 21 14 4 -3 4 19 23 16 28 12 32 71 78 112 172 215 225 195 20 -27 -50 -98 -83 -86 63
77 60 15 -3 -11 10 36 -15 10 26 39 18 36 91 49 28 40 52 62 45 46 41 24 11 15 25 17 23 23 19 20 27 35 38 68 101 163 147 130 98 13 -64 -22 -47 -66 -60 -96
84 75 30 -0 -27 3 17 1 -30 4 13 50 66 87 43 6 15 25 13 19 81 41 42 37 40 7 14 25 26 22 19 20 23 33 59 47 112 99 118 63 30 42 12 -12 -19 -20 -28
88 83 50 14 -31 -15 1 -5 -17 27 4 16 33 127 80 41 38 28 24 59 95 46 29 20 13 7 22 22 21 29 16 46 32 34 54 55 89 88 85 38 75 176 41 -16 -25 -26 -29
81 89 68 24 -22 -32 28 -3 -1 13 48 19 22 62 61 82 94 25 6 33 72 41 21 19 27 14 -2 51 65 60 75 70 34 21 22 66 86 88 84 62 143 97 -4 -10 -16 -29 -35
75 86 79 25 -24 -29 15 -17 21 17 3 10 17 33 80 94 113 57 57 49 38 36 19 22 21 5 22 7 -3 -3 -2 15 10 15 23 35 67 82 94 110 104 117 61 18 -4 -16 -11
76 79 62 26 -38 -23 12 -5 15 19 37 -0 15 22 47 116 76 50 44 33 58 40 24 25 43 36 26 7 1 11 5 14 33 34 29 47 58 75 112 116 127 158 67 23 13 65 16
73 68 74 30 -29 7 8 35 38 85 74 -5 -24 -12 17 55 72 59 39 69 45 38 32 19 2 -14 5 13 10 8 -4 23 34 54 63 64 77 92 118 121 128 106 44 64 157 155 31
86 59 78 33 -6 36 36 76 88 86 44 203 116 46 11 56 41 79 55 43 58 33 26 1 6 -7 -5 1 3 -2 1 39 42 50 58 78 103 97 113 118 129 108 117 164 109 69 40
107 55 76 17 -12 59 41 105 119 105 71 133 249 140 92 52 40 37 41 49 58 44 19 18 8 -30 -30 -6 -0 10 45 63 46 45 61 59 55 74 90 109 110 122 122 99 119 113 89

GFSGBSN_con_3kmhel_111.txt.gz
Helicity
25 11 19 36 34 51 54 49 61 72 87 94 82 86 117 178 103 69 55 42 21 26 19 22 32 15 -6 6 34 105 41 17 1 21 -7 9 -8 23 29 41 -5 -14 -52 -36 -46 -80 -64
6 3 9 9 9 21 24 19 40 43 70 63 71 84 101 106 72 66 49 33 16 15 20 19 53 7 -28 -66 117 60 33 16 13 3 -8 -4 -22 -3 28 8 -11 -10 -57 -66 -136 -237 -128
18 29 29 32 27 10 -2 -5 31 34 41 38 57 65 102 111 53 56 21 34 38 18 9 11 34 8 -86 -30 70 34 34 5 25 7 -2 -1 -39 -35 10 -25 0 -11 -65 -63 -109 -139 -155
31 46 43 34 48 57 58 40 -15 17 35 31 37 46 56 91 167 49 41 31 45 12 3 14 32 7 -99 78 30 20 32 -3 33 -10 -2 -11 -15 33 5 -15 -10 -14 -15 -51 -101 -54 -103
51 51 54 49 49 57 57 63 67 -1 28 29 27 42 67 63 81 67 37 44 54 9 -3 39 22 -15 -94 30 37 39 21 15 0 14 20 29 9 5 -11 36 16 22 8 14 -19 -51 -34
40 55 54 48 48 46 39 38 50 47 34 44 16 44 74 74 24 37 42 55 64 49 44 50 41 -67 -50 -43 13 10 18 -1 -2 2 8 30 15 31 27 45 40 84 49 6 48 -9 -3
64 51 50 55 53 42 50 49 55 35 37 34 25 43 58 107 41 16 52 80 51 30 37 -34 -14 -31 -33 -8 -5 27 21 -5 -3 12 51 59 57 93 13 13 47 49 28 18 -7 75 11
62 47 60 59 49 49 57 49 66 54 43 23 26 44 39 76 72 56 51 72 68 65 -2 -28 -15 -28 -22 -1 -24 3 -7 19 21 27 33 29 54 25 16 86 60 50 14 -15 48 -3 -17
68 59 61 60 64 58 61 60 70 45 35 17 32 41 26 53 61 43 37 45 50 44 -3 -26 -7 -21 -24 -29 -18 -11 0 0 22 33 41 11 4 -11 -5 40 61 43 67 46 26 -43 -35
58 64 63 66 59 57 49 52 33 38 29 21 20 25 19 37 30 37 26 48 19 37 5 -38 -36 -23 -2 2 -10 -14 -14 16 41 38 21 35 -2 -6 -20 14 65 99 56 31 5 -25 0
62 60 67 59 49 47 50 26 26 29 14 8 26 19 16 32 51 41 16 26 33 66 -13 -7 -16 17 23 27 -5 -15 -15 34 50 38 74 68 27 9 18 3 74 99 74 71 48 31 43
48 56 57 48 54 48 26 23 41 27 11 -16 38 20 21 25 11 24 -21 29 61 78 12 0 -8 24 21 6 -4 -15 9 34 39 43 61 36 34 50 44 -23 -7 52 31 18 41 40 64
57 47 50 45 48 36 17 23 35 -3 3 -25 -3 5 2 1 14 47 40 29 100 106 40 24 46 34 27 -3 -8 -7 15 48 30 79 92 54 64 39 38 38 26 -4 42 69 43 55 111
55 47 48 39 39 38 19 13 16 3 -5 -21 10 20 2 58 36 34 51 87 112 69 76 61 59 34 34 -8 2 -15 11 35 48 43 77 143 198 77 17 25 31 -27 15 44 58 75 85
50 56 45 44 30 39 19 1 12 12 -26 11 20 -21 44 54 35 43 107 136 79 83 71 96 53 67 28 7 18 -10 -1 11 23 26 71 150 215 71 40 9 3 -12 -44 69 73 70 70
73 50 42 39 27 33 15 11 22 -8 11 39 -12 26 63 26 41 62 125 116 76 117 65 84 89 81 47 15 14 1 7 1 24 29 37 101 202 152 79 21 21 -49 -66 11 51 34 13
84 62 42 44 24 21 17 0 5 11 39 45 1 98 49 43 61 69 75 94 106 79 110 109 72 61 45 25 24 6 12 14 21 42 58 68 153 208 118 144 65 -8 -86 -49 -13 64 52
92 74 45 44 17 17 31 2 7 16 46 33 47 129 34 76 57 86 58 76 116 67 50 64 45 41 40 21 13 7 18 32 18 45 66 83 111 198 128 91 16 -23 -58 -134 -130 31 46
109 80 46 54 10 -6 25 19 -33 19 20 35 51 60 39 94 75 90 56 48 105 90 51 61 39 25 18 23 29 8 16 -2 8 48 63 68 156 126 304 184 103 39 -42 -73 -37 24 19
106 89 49 64 -6 -15 28 -2 7 5 31 48 57 96 60 55 93 113 78 38 90 42 40 41 20 11 16 27 24 19 37 17 32 55 55 69 109 132 107 107 92 4 -78 -74 -61 -67 36
87 107 58 69 -3 -11 21 -3 -16 16 43 45 60 70 70 53 78 109 53 88 154 95 25 26 22 27 39 47 28 28 31 37 27 41 50 59 98 100 93 73 37 21 -27 -69 -74 -50 -60
96 118 75 77 2 -26 20 12 -17 36 30 43 61 73 68 96 61 100 47 133 119 64 70 34 36 17 25 45 40 52 35 31 21 37 46 27 84 87 97 70 66 118 26 4 -22 -27 -45
101 118 80 68 15 -9 15 51 32 67 60 21 29 46 83 100 33 31 25 101 108 60 30 25 23 18 29 26 11 10 10 8 20 33 38 44 76 74 89 77 108 186 100 27 -3 -19 -35
104 107 84 80 10 -7 -1 49 61 40 49 25 28 37 75 91 75 15 37 98 93 66 54 19 21 23 0 -20 -21 -9 0 32 30 25 24 59 65 73 79 101 132 148 59 39 27 -3 -17
109 108 92 82 23 -5 -2 38 39 60 45 26 23 23 44 55 21 -4 79 73 61 54 36 18 15 4 -31 -3 9 20 12 25 16 17 26 41 47 69 89 89 119 151 120 100 97 70 29
120 109 99 81 51 -8 -7 20 45 37 7 6 13 4 24 21 -23 67 102 86 118 66 18 8 10 -9 10 8 20 27 18 8 22 30 26 46 53 64 94 117 131 160 126 46 37 128 96
130 94 116 73 45 1 -6 -2 30 39 6 -23 -37 19 10 -20 22 87 46 64 53 48 48 4 -10 -5 -10 28 26 16 16 8 18 36 46 60 65 85 104 112 118 153 104 65 225 215 95
148 89 116 79 42 17 19 10 22 52 86 7 -50 35 17 9 12 60 63 75 55 39 42 11 -2 -4 7 26 15 10 3 19 22 50 56 69 88 97 94 119 115 165 143 163 151 113 123
147 92 93 97 43 14 40 33 37 65 93 142 92 49 -8 45 30 57 62 41 61 60 40 2 23 -10 -16 9 8 6 11 25 25 27 60 51 75 72 85 99 103 153 102 125 103 150 162

GFSGBSN_con_3kmhel_114.txt.gz
Helicity
-2 0 6 15 22 24 19 9 15 50 48 41 28 39 60 79 112 120 97 30 34 24 21 10 14 10 20 5 -53 134 67 49 30 60 64 24 13 27 33 1 -11 62 54 -12 -19 -43 -38
9 9 32 38 43 37 33 22 7 9 34 31 19 17 47 67 63 147 33 73 22 31 34 31 15 30 18 -90 94 96 52 55 36 67 26 3 4 3 19 13 15 -11 23 28 16 -19 -68
28 35 45 55 47 46 50 47 31 22 18 22 22 10 9 47 67 75 82 31 53 26 45 25 4 27 -13 -76 80 42 41 44 63 87 23 5 9 -6 3 -1 -19 -6 -2 25 94 19 -56
31 45 48 55 54 43 49 63 61 42 27 16 19 9 4 17 61 59 91 32 66 64 35 27 2 20 -18 27 50 0 31 35 77 42 7 -7 12 -5 2 -12 -6 9 -5 -42 38 76 -28
39 51 48 53 53 50 55 61 61 57 30 16 19 13 8 13 58 100 63 46 48 55 49 32 20 -6 -34 23 9 39 39 31 40 39 39 19 19 8 5 27 34 72 53 111 31 161 47
37 55 57 57 47 43 43 42 44 55 49 29 20 20 25 25 59 110 29 43 50 38 48 29 18 -10 -28 -14 41 32 19 25 36 40 45 8 3 18 26 9 11 28 35 41 108 175 89
54 61 62 51 47 49 44 42 48 45 29 27 9 4 46 35 42 81 39 55 61 27 26 14 -14 -10 -6 8 16 33 27 6 15 5 19 112 57 51 25 28 7 72 78 77 36 215 49
58 51 68 55 53 49 45 44 35 29 19 7 9 18 35 43 32 23 30 45 89 66 31 36 14 -4 14 -7 -6 -5 2 11 26 36 36 25 61 12 -21 -23 61 86 95 39 65 96 -51
48 51 57 45 45 45 46 32 33 25 19 24 25 33 32 28 26 15 31 48 75 78 25 -9 -14 -8 -3 -28 0 -5 0 1 30 23 17 28 9 -18 -18 -11 50 93 112 73 79 -33 -35
37 32 50 43 44 51 43 53 25 26 37 30 23 23 36 15 7 31 38 73 38 41 51 0 -4 -4 -7 15 -7 -5 -8 2 26 31 10 34 -6 -18 -12 -21 46 80 55 110 60 41 39
37 17 34 36 48 57 56 31 24 21 32 3 -21 -5 -19 -10 17 7 39 125 58 51 66 14 2 15 21 47 6 -10 -7 18 66 26 27 65 26 20 26 47 33 44 73 79 59 37 10
59 35 35 40 46 60 41 22 21 11 5 -13 -25 -6 -20 20 12 27 26 106 80 95 78 35 15 18 26 29 7 -7 2 18 49 49 63 82 51 61 52 3 13 -2 45 52 22 28 40
69 65 48 48 44 42 32 24 13 6 -35 -33 -13 -2 17 26 42 -10 48 62 136 137 67 44 40 58 75 16 7 5 3 35 29 62 75 93 99 64 49 41 21 -2 6 43 49 52 58
122 97 58 52 40 38 26 23 14 -6 15 25 45 43 71 68 30 5 46 169 185 102 80 71 67 56 54 16 15 -10 20 31 48 59 114 182 182 121 45 56 26 -29 -33 -36 1 54 53
173 98 56 55 46 32 18 10 10 40 40 43 14 29 61 36 34 46 72 291 139 142 116 98 84 93 53 29 30 3 13 25 34 45 105 155 199 108 65 34 26 -10 -99 33 7 48 226
154 108 66 62 60 19 15 11 -7 59 54 42 35 61 116 70 30 64 129 146 188 83 129 151 127 130 21 23 11 27 27 22 50 36 57 140 186 145 85 26 16 -10 -37 -67 60 76 66
152 105 52 69 67 3 13 12 1 56 84 80 69 89 53 87 92 154 166 137 208 110 103 124 143 61 49 13 37 15 20 21 30 45 55 78 147 138 135 152 53 0 -67 -50 24 25 31
152 121 62 78 57 -3 8 9 61 64 101 69 87 113 77 87 74 151 128 154 138 132 120 105 89 65 58 39 27 15 26 40 34 53 76 69 135 139 175 139 105 14 -30 -54 -58 -30 -22
155 129 76 75 57 7 -2 23 54 30 53 74 111 112 111 100 102 122 96 127 96 108 110 97 70 51 47 27 29 23 17 18 26 43 65 71 118 90 272 217 136 71 -16 -28 -31 15 12
188 131 88 72 66 4 -2 21 60 56 66 49 84 86 119 82 102 115 174 131 117 53 83 59 50 41 30 19 26 19 27 22 36 39 53 59 98 127 150 171 130 131 -15 -22 -24 -26 12
173 129 91 66 89 17 7 21 54 95 91 38 64 105 70 76 93 114 93 152 138 106 65 55 28 35 50 29 7 26 29 45 39 43 56 62 91 75 73 103 86 104 69 2 -12 -18 -51
148 144 92 63 66 60 46 64 15 94 133 55 34 68 60 73 70 112 118 152 123 89 79 57 40 42 41 22 32 62 51 39 40 47 50 43 90 78 96 92 82 113 86 52 6 -2 -19
140 162 95 63 37 39 39 29 10 59 117 119 55 31 24 39 19 69 81 122 101 75 36 32 51 44 36 19 5 4 6 14 33 39 44 57 80 88 119 123 99 117 116 104 64 15 -4
135 163 102 63 26 17 7 16 24 42 44 83 57 73 22 -36 -36 2 56 75 74 72 73 32 39 30 7 -21 -38 -24 -5 6 11 15 27 65 74 78 91 108 125 172 95 87 74 79 58
123 154 120 74 48 -2 -9 6 13 16 2 50 45 59 39 -39 -30 -27 55 76 50 51 41 34 20 13 -8 4 2 12 11 7 28 14 20 40 51 68 92 92 123 168 169 148 127 97 128
137 125 131 78 48 2 -1 7 7 -9 -37 -31 33 35 40 -4 -8 16 60 55 69 61 28 16 2 -21 3 10 10 11 11 8 8 29 21 38 57 68 67 102 116 168 164 101 111 158 103
152 104 128 75 64 6 6 8 -51 -77 -64 -63 -19 0 16 -34 3 24 35 49 76 69 46 17 -4 -3 -9 25 18 21 10 20 1 17 33 43 53 84 94 93 71 161 154 116 205 211 159
158 106 117 64 54 30 17 29 18 25 50 -3 -50 1 16 -29 -18 32 36 37 55 68 40 28 26 4 3 30 28 20 5 26 14 51 42 64 75 75 74 93 82 173 129 138 161 183 174
161 133 107 81 45 57 41 40 50 37 40 28 25 20 -5 -9 4 47 100 71 66 78 62 40 28 14 5 20 29 25 23 25 25 17 45 25 64 66 95 89 67 130 133 165 159 167 218

GFSGBSN_con_3kmhel_117.txt.gz
Helicity
36 42 30 35 41 40 34 50 52 44 27 23 28 37 44 53 71 79 133 37 76 -18 24 33 33 32 39 38 10 80 55 39 35 37 31 55 56 53 63 29 56 51 45 64 76 31 81
40 30 42 46 39 38 47 46 46 49 46 27 14 23 38 35 59 80 102 141 20 64 67 35 47 41 33 -7 30 52 40 47 30 49 51 33 46 39 15 56 53 17 -19 65 96 60 144
39 35 46 41 47 36 31 26 43 56 58 57 48 23 21 20 42 68 87 123 107 76 66 15 56 29 26 -4 36 72 43 39 71 67 58 45 6 29 -31 -7 -4 -2 44 10 24 84 115
37 38 57 47 41 18 24 35 48 61 58 48 37 36 19 23 11 58 96 84 94 17 69 3 33 24 27 -1 51 4 21 4 98 66 58 14 -10 1 7 -20 -23 37 43 51 45 76 143
40 64 45 41 36 26 34 37 51 45 38 25 10 10 14 23 24 50 108 59 45 32 46 12 35 9 27 22 20 27 17 11 55 55 51 58 -15 18 -11 -7 19 47 42 87 58 72 203
41 35 27 40 32 29 19 29 35 31 23 23 12 -2 8 21 34 34 74 42 59 56 54 24 49 32 12 7 15 28 23 0 -4 19 37 44 31 10 4 13 -23 -17 -9 59 141 66 281
50 31 12 29 25 12 9 36 37 43 41 27 15 6 10 30 34 15 41 56 69 63 57 21 26 47 26 16 -3 2 5 10 7 -16 -9 22 53 44 41 -25 2 25 24 21 38 -17 185
44 38 36 4 7 15 29 41 38 23 20 22 26 33 25 35 23 15 37 73 78 64 75 80 56 37 44 -11 11 -3 -4 8 13 46 26 16 43 80 19 15 15 23 33 70 14 46 92
49 47 42 34 6 12 34 39 27 17 8 26 28 30 23 27 34 2 36 57 64 76 78 71 39 32 9 -7 32 -1 -6 8 29 37 39 36 17 -23 -26 -42 31 39 35 44 65 34 118
60 74 73 28 13 31 41 31 28 26 5 18 26 2 -17 -9 13 31 41 72 50 6 79 36 27 28 8 13 20 1 -8 12 24 55 30 48 23 17 -17 -14 81 22 48 56 81 56 5
90 83 116 20 38 43 42 25 25 5 -7 10 11 -4 -8 13 32 58 51 104 53 58 90 77 53 39 37 40 19 16 2 4 50 51 65 97 59 40 51 51 17 11 52 67 58 51 50
98 113 112 34 49 59 34 28 26 3 20 45 45 22 38 55 42 39 55 90 65 140 133 92 54 46 49 57 31 23 17 15 34 51 71 133 64 78 69 66 88 34 46 70 36 37 79
87 151 97 45 65 64 27 39 13 17 20 80 77 62 53 51 72 47 50 58 146 169 137 114 84 83 100 48 31 32 29 24 18 50 87 85 107 59 36 59 43 16 14 32 54 83 114
121 159 106 54 68 36 48 33 35 30 32 66 42 57 30 74 90 52 34 131 177 151 134 121 111 120 86 61 37 24 18 28 28 79 145 166 183 105 43 55 61 3 -47 -34 30 32 122
174 127 79 75 66 22 62 67 80 65 40 58 59 84 76 144 72 42 187 261 208 184 212 154 167 156 83 62 31 20 8 31 64 71 121 142 180 88 68 20 41 19 -26 14 44 178 114
172 130 108 84 64 20 65 77 65 67 74 103 110 127 158 131 113 156 262 205 183 108 144 160 164 112 68 57 46 36 27 48 80 76 76 137 170 100 92 46 30 25 96 -14 58 124 71
170 135 101 81 57 20 65 77 71 72 94 67 39 114 142 159 132 205 280 230 196 134 99 101 163 79 59 49 44 35 48 57 67 103 94 100 163 145 109 91 27 13 42 22 36 55 77
168 128 118 83 52 10 55 65 55 64 109 98 71 108 121 118 107 235 244 261 189 145 109 93 63 69 74 60 48 36 57 62 65 76 104 94 159 189 176 132 44 6 13 25 -33 38 3
173 123 136 97 62 -5 18 19 72 44 -14 184 100 101 142 85 77 143 192 157 154 125 119 91 76 62 49 46 40 28 40 51 50 56 84 88 98 141 116 113 38 -4 12 30 12 -26 28
159 116 126 100 60 20 5 16 59 29 -8 22 95 50 104 101 103 96 126 174 126 96 67 71 64 45 45 40 18 22 39 46 57 63 57 80 88 123 139 156 122 30 -28 4 -2 -51 -26
153 103 103 81 50 25 28 36 68 58 -6 2 68 48 38 -13 73 70 87 102 89 75 71 50 44 45 55 42 32 23 27 41 44 52 56 60 87 80 73 70 51 80 52 -2 -23 -11 0
126 101 96 59 39 28 24 24 41 54 34 -33 60 46 48 25 70 69 65 88 64 65 41 50 32 38 29 21 19 38 30 18 35 36 48 44 74 76 64 88 68 62 59 76 50 15 6
83 112 101 64 27 9 2 -7 19 35 -17 -13 16 73 44 46 34 44 76 62 54 21 24 12 32 37 26 6 3 -2 -7 11 26 35 40 53 70 62 66 66 65 82 117 103 101 108 64
46 136 99 71 14 -3 -23 -42 -60 10 34 -19 -15 3 19 37 -6 19 57 56 38 20 8 11 20 24 7 1 -3 -2 2 1 9 9 26 52 58 73 83 52 85 125 96 100 127 125 141
29 130 112 76 25 -16 -14 -14 -57 -45 -23 -11 21 20 6 31 5 -15 35 51 47 40 24 12 4 -3 -16 -3 7 3 -15 -12 2 7 9 33 50 57 79 75 62 92 108 126 140 108 147
27 86 124 77 35 26 14 -13 -13 -16 -1 7 4 18 26 18 4 50 19 50 58 50 41 24 -3 -13 10 6 15 19 3 14 -4 -8 6 22 43 56 61 79 94 102 107 101 90 103 130
43 67 117 89 53 36 29 15 11 14 36 40 30 23 20 10 33 30 4 36 59 58 44 34 10 9 14 28 24 25 8 24 6 6 11 21 28 55 63 66 45 75 127 111 137 127 131
64 64 111 111 62 39 31 26 28 41 44 48 71 29 47 -15 4 26 47 36 61 69 56 35 43 27 26 32 42 26 33 17 20 24 26 31 42 39 41 42 30 119 119 127 109 107 142
75 63 116 113 87 44 43 32 20 61 67 76 53 78 42 33 5 33 39 65 48 42 50 59 41 30 17 42 34 39 43 45 39 16 24 18 36 32 81 52 50 90 74 114 133 151 153